[[{"header":{"parameterUnit":"m.s-1","parameterCategory":1,"la1":30.6,"la2":29.2853,"lo1":-89.7004,"lo2":-87.6739,"dy":0.0162,"dx":0.0183,"nx":112,"ny":82,"refTime":"2023-10-11T12:00:00:Z","depth":0,"parameterNumber":2,"parameterNumberName":"U-component_of_WINDS"},"data":[0.0,0.0,0.0,0.0,0.0,0.0,0.0,0.0,0.0,0.0,0.0,0.0,0.0,0.0,0.0,0.0,0.0,0.0,0.0,0.0,0.0,0.0,0.0,0.0,0.0,0.0,0.0,0.0,0.0,0.0,0.0,0.0,0.0,0.0,0.0,0.0,0.0,0.0,0.0,0.0,0.0,0.0,0.0,0.0,0.0,0.0,0.0,0.0,0.0,0.0,0.0,0.0,0.0,0.0,0.0,0.0,0.0,0.0,0.0,0.0,0.0,0.0,0.0,0.0,0.0,0.0,0.0,0.0,0.0,0.0,0.0,0.0,0.0,0.0,0.0,0.0,0.0,0.0,0.0,0.0,0.0,0.0,0.0,0.0,0.0,0.0,0.0,0.0,0.0,0.0,3.5512,3.7917,3.9826,4.0545,3.9411,3.6954,3.3472,2.8506,0.0,0.0,0.0,0.0,0.0,0.0,0.0,0.0,0.0,0.0,0.0,0.0,0.0,0.0,0.0,0.0,0.0,0.0,0.0,0.0,0.0,0.0,0.0,0.0,0.0,0.0,0.0,0.0,0.0,0.0,0.0,0.0,0.0,0.0,0.0,0.0,0.0,0.0,0.0,0.0,0.0,0.0,0.0,0.0,0.0,0.0,0.0,0.0,0.0,0.0,0.0,0.0,0.0,0.0,0.0,0.0,0.0,0.0,0.0,0.0,0.0,0.0,0.0,0.0,0.0,0.0,0.0,0.0,0.0,0.0,0.0,0.0,0.0,0.0,0.0,0.0,0.0,0.0,0.0,0.0,0.0,0.0,0.0,0.0,0.0,0.0,0.0,0.0,0.0,0.0,0.0,0.0,0.0,0.0,0.0,0.0,0.0,0.0,0.0,0.0,0.0,0.0,0.0,0.0,3.5263,3.8395,3.9175,3.8564,3.6774,3.4816,3.2093,2.8015,0.0,0.0,0.0,0.0,0.0,0.0,0.0,0.0,0.0,0.0,0.0,0.0,0.0,0.0,0.0,0.0,0.0,0.0,0.0,0.0,0.0,0.0,0.0,0.0,0.0,0.0,0.0,0.0,0.0,0.0,0.0,0.0,0.0,0.0,0.0,0.0,0.0,0.0,0.0,0.0,0.0,0.0,0.0,0.0,0.0,0.0,0.0,0.0,0.0,0.0,0.0,0.0,0.0,0.0,0.0,0.0,0.0,0.0,0.0,0.0,0.0,0.0,0.0,0.0,0.0,0.0,0.0,0.0,0.0,0.0,0.0,0.0,0.0,0.0,0.0,0.0,0.0,0.0,0.0,0.0,0.0,0.0,0.0,0.0,0.0,0.0,0.0,0.0,0.0,0.0,0.0,0.0,0.0,0.0,0.0,0.0,0.0,0.0,0.0,0.0,0.0,0.0,0.0,3.3974,3.5585,3.7534,3.7222,3.651,3.5692,3.319,3.0641,2.8212,2.7129,0.0,0.0,0.0,0.0,0.0,0.0,0.0,0.0,0.0,0.0,0.0,0.0,0.0,0.0,0.0,0.0,0.0,0.0,0.0,0.0,0.0,0.0,0.0,0.0,0.0,0.0,0.0,0.0,0.0,0.0,0.0,0.0,0.0,0.0,0.0,0.0,0.0,0.0,0.0,0.0,0.0,0.0,0.0,0.0,0.0,0.0,0.0,0.0,0.0,0.0,0.0,0.0,0.0,0.0,0.0,0.0,0.0,0.0,0.0,0.0,0.0,0.0,0.0,0.0,0.0,0.0,0.0,0.0,0.0,0.0,0.0,0.0,0.0,0.0,0.0,0.0,0.0,0.0,0.0,0.0,0.0,0.0,0.0,0.0,0.0,0.0,0.0,0.0,0.0,0.0,0.0,0.0,0.0,0.0,0.0,0.0,0.0,0.0,0.0,0.0,0.0,0.0,3.3923,3.4797,3.5909,3.5049,3.4465,3.4362,3.1656,2.9512,2.8223,2.6523,0.0,0.0,0.0,0.0,0.0,0.0,0.0,0.0,0.0,0.0,0.0,0.0,0.0,0.0,0.0,0.0,0.0,0.0,0.0,0.0,0.0,0.0,0.0,0.0,0.0,0.0,0.0,0.0,0.0,0.0,0.0,0.0,0.0,0.0,0.0,0.0,0.0,0.0,0.0,0.0,0.0,0.0,0.0,0.0,0.0,0.0,0.0,0.0,0.0,0.0,0.0,0.0,0.0,0.0,0.0,0.0,0.0,0.0,0.0,0.0,0.0,0.0,0.0,0.0,0.0,0.0,0.0,0.0,0.0,0.0,0.0,0.0,0.0,0.0,0.0,0.0,0.0,0.0,0.0,0.0,0.0,0.0,0.0,0.0,0.0,0.0,0.0,0.0,0.0,0.0,0.0,0.0,0.0,0.0,0.0,0.0,0.0,0.0,0.0,0.0,0.0,0.0,3.1693,3.1864,3.3717,3.2973,3.2273,3.176,3.0486,2.9062,2.7793,2.6074,0.0,0.0,0.0,0.0,0.0,0.0,0.0,0.0,0.0,0.0,0.0,0.0,0.0,0.0,0.0,0.0,0.0,0.0,0.0,0.0,0.0,0.0,0.0,0.0,0.0,0.0,0.0,0.0,0.0,0.0,0.0,0.0,0.0,0.0,0.0,0.0,0.0,0.0,0.0,0.0,0.0,0.0,0.0,0.0,0.0,0.0,0.0,0.0,0.0,0.0,0.0,0.0,0.0,0.0,0.0,0.0,0.0,0.0,0.0,0.0,0.0,0.0,0.0,0.0,0.0,0.0,0.0,0.0,0.0,0.0,0.0,0.0,0.0,0.0,0.0,0.0,0.0,0.0,0.0,0.0,0.0,0.0,0.0,0.0,0.0,0.0,0.0,0.0,0.0,0.0,0.0,0.0,0.0,0.0,0.0,0.0,0.0,0.0,0.0,0.0,0.0,0.0,3.096,3.1168,3.223,3.1999,3.1601,3.1172,2.9922,2.8613,2.7344,0.0,0.0,0.0,0.0,0.0,0.0,0.0,0.0,0.0,0.0,0.0,0.0,0.0,0.0,0.0,0.0,0.0,0.0,0.0,0.0,0.0,0.0,0.0,0.0,0.0,0.0,0.0,0.0,0.0,0.0,0.0,0.0,0.0,0.0,0.0,0.0,0.0,0.0,0.0,0.0,0.0,0.0,0.0,0.0,0.0,0.0,0.0,0.0,0.0,0.0,0.0,0.0,0.0,0.0,0.0,0.0,0.0,0.0,0.0,0.0,0.0,0.0,0.0,0.0,0.0,0.0,0.0,0.0,0.0,0.0,0.0,0.0,0.0,0.0,0.0,0.0,0.0,0.0,0.0,0.0,0.0,0.0,0.0,0.0,0.0,0.0,0.0,0.0,0.0,0.0,0.0,0.0,0.0,0.0,0.0,0.0,0.0,0.0,0.0,0.0,0.0,0.0,3.0149,3.0116,3.0348,3.125,3.1328,3.1133,3.0703,2.9473,2.8301,2.7285,0.0,0.0,0.0,0.0,0.0,0.0,0.0,0.0,0.0,0.0,0.0,0.0,0.0,0.0,0.0,0.0,0.0,0.0,0.0,0.0,0.0,0.0,0.0,0.0,0.0,0.0,0.0,0.0,0.0,0.0,0.0,0.0,0.0,0.0,0.0,0.0,0.0,0.0,0.0,0.0,0.0,0.0,0.0,0.0,0.0,0.0,0.0,0.0,0.0,0.0,0.0,0.0,0.0,0.0,0.0,0.0,0.0,0.0,0.0,0.0,0.0,0.0,0.0,0.0,0.0,0.0,0.0,0.0,0.0,0.0,0.0,0.0,0.0,0.0,0.0,0.0,0.0,0.0,0.0,0.0,0.0,0.0,0.0,0.0,0.0,0.0,0.0,0.0,0.0,0.0,0.0,0.0,0.0,0.0,0.0,0.0,0.0,0.0,0.0,0.0,0.0,0.0,3.0053,2.9147,2.8965,3.0703,3.0898,3.0703,3.0234,2.9023,2.8105,0.0,0.0,0.0,0.0,0.0,0.0,0.0,0.0,0.0,0.0,0.0,0.0,0.0,0.0,0.0,0.0,0.0,0.0,0.0,0.0,0.0,0.0,0.0,0.0,0.0,0.0,0.0,0.0,0.0,0.0,0.0,0.0,0.0,0.0,0.0,0.0,0.0,0.0,0.0,0.0,0.0,0.0,0.0,0.0,0.0,0.0,0.0,0.0,0.0,0.0,0.0,0.0,0.0,0.0,0.0,0.0,0.0,0.0,0.0,0.0,0.0,0.0,0.0,0.0,0.0,0.0,0.0,0.0,0.0,0.0,0.0,0.0,0.0,0.0,0.0,0.0,0.0,0.0,0.0,0.0,0.0,0.0,0.0,0.0,0.0,0.0,0.0,0.0,0.0,0.0,0.0,0.0,0.0,0.0,0.0,0.0,0.0,0.0,0.0,0.0,0.0,0.0,0.0,2.9083,2.8652,2.8965,3.0703,3.0898,3.0586,2.9824,2.8848,2.7851,2.6836,0.0,0.0,0.0,0.0,0.0,0.0,0.0,0.0,0.0,0.0,0.0,0.0,0.0,0.0,0.0,0.0,0.0,0.0,0.0,0.0,0.0,0.0,0.0,0.0,0.0,0.0,0.0,0.0,0.0,0.0,0.0,0.0,0.0,0.0,0.0,0.0,0.0,0.0,0.0,0.0,0.0,0.0,0.0,0.0,0.0,0.0,0.0,0.0,0.0,0.0,0.0,0.0,0.0,0.0,0.0,0.0,0.0,0.0,0.0,0.0,0.0,0.0,0.0,0.0,0.0,0.0,0.0,0.0,0.0,0.0,0.0,0.0,0.0,0.0,0.0,0.0,0.0,0.0,0.0,0.0,0.0,0.0,0.0,0.0,0.0,0.0,0.0,0.0,0.0,0.0,0.0,0.0,0.0,0.0,0.0,0.0,0.0,0.0,0.0,0.0,0.0,0.0,2.8515,2.8465,2.8887,3.0449,3.0781,3.0605,2.9883,2.9043,2.8066,2.6973,0.0,0.0,0.0,0.0,0.0,0.0,0.0,0.0,0.0,0.0,0.0,0.0,0.0,0.0,0.0,0.0,0.0,0.0,0.0,0.0,0.0,0.0,0.0,0.0,0.0,0.0,0.0,0.0,0.0,0.0,0.0,0.0,0.0,0.0,0.0,0.0,0.0,0.0,0.0,0.0,0.0,0.0,0.0,0.0,0.0,0.0,0.0,0.0,0.0,0.0,0.0,0.0,0.0,0.0,0.0,0.0,0.0,0.0,0.0,0.0,0.0,0.0,0.0,0.0,0.0,0.0,0.0,0.0,0.0,0.0,0.0,0.0,0.0,0.0,0.0,0.0,0.0,0.0,0.0,0.0,0.0,0.0,0.0,0.0,0.0,0.0,0.0,0.0,0.0,0.0,0.0,0.0,0.0,0.0,0.0,0.0,0.0,0.0,0.0,0.0,0.0,0.0,2.8317,2.8361,2.8789,3.0059,3.0605,3.0703,3.0234,2.9414,2.8574,2.7773,0.0,0.0,0.0,0.0,0.0,0.0,0.0,0.0,0.0,0.0,0.0,0.0,0.0,0.0,0.0,0.0,0.0,0.0,0.0,0.0,0.0,0.0,0.0,0.0,0.0,0.0,0.0,0.0,0.0,0.0,0.0,0.0,0.0,0.0,0.0,0.0,0.0,0.0,0.0,0.0,0.0,0.0,0.0,0.0,0.0,0.0,0.0,0.0,0.0,0.0,0.0,0.0,0.0,0.0,0.0,0.0,0.0,0.0,0.0,0.0,3.4048,0.0,0.0,0.0,0.0,0.0,0.0,0.0,0.0,0.0,0.0,0.0,0.0,0.0,0.0,0.0,0.0,0.0,0.0,0.0,0.0,0.0,0.0,0.0,0.0,0.0,0.0,0.0,0.0,0.0,0.0,0.0,0.0,0.0,0.0,0.0,0.0,0.0,0.0,0.0,0.0,0.0,2.7262,2.7859,2.8789,3.0059,3.0605,3.0703,3.0234,2.9414,2.8711,2.8184,2.6953,0.0,0.0,0.0,0.0,0.0,0.0,0.0,0.0,0.0,0.0,0.0,0.0,0.0,0.0,0.0,0.0,0.0,0.0,0.0,0.0,0.0,0.0,0.0,0.0,0.0,0.0,0.0,0.0,0.0,0.0,0.0,0.0,0.0,0.0,0.0,0.0,0.0,0.0,0.0,0.0,0.0,0.0,0.0,0.0,0.0,0.0,0.0,0.0,0.0,0.0,0.0,0.0,0.0,0.0,0.0,0.0,0.0,0.0,0.0,0.0,3.5102,0.0,0.0,0.0,0.0,0.0,0.0,0.0,0.0,0.0,0.0,0.0,0.0,0.0,0.0,0.0,0.0,0.0,0.0,0.0,0.0,0.0,0.0,0.0,0.0,0.0,0.0,0.0,0.0,0.0,0.0,0.0,0.0,0.0,0.0,0.0,0.0,0.0,0.0,0.0,0.0,2.6918,2.7754,2.8711,2.9785,3.0488,3.0801,3.0547,2.9726,2.9043,2.8633,2.7598,0.0,0.0,0.0,0.0,0.0,0.0,0.0,0.0,0.0,0.0,0.0,0.0,0.0,0.0,0.0,0.0,0.0,0.0,0.0,0.0,0.0,0.0,0.0,0.0,0.0,0.0,0.0,0.0,0.0,0.0,0.0,0.0,0.0,0.0,0.0,0.0,0.0,0.0,0.0,0.0,0.0,0.0,0.0,0.0,0.0,0.0,0.0,0.0,0.0,0.0,0.0,0.0,0.0,4.2308,4.2861,4.3539,4.3187,4.3212,4.3363,3.9722,3.7487,3.6358,3.5705,0.0,0.0,0.0,0.0,0.0,0.0,0.0,0.0,0.0,0.0,0.0,0.0,0.0,0.0,0.0,0.0,0.0,0.0,0.0,0.0,0.0,0.0,2.8613,2.9959,2.9473,2.8869,2.9548,0.0,0.0,0.0,0.0,0.0,0.0,0.0,0.0,0.0,0.0,0.0,2.6973,2.7871,2.873,2.959,3.041,3.0898,3.0898,3.0137,2.9492,2.9062,2.8242,2.7578,0.0,0.0,0.0,0.0,0.0,0.0,0.0,0.0,0.0,0.0,0.0,0.0,0.0,0.0,0.0,0.0,0.0,0.0,0.0,0.0,0.0,0.0,0.0,0.0,0.0,0.0,0.0,0.0,0.0,0.0,0.0,0.0,3.6081,3.6232,0.0,0.0,0.0,0.0,0.0,0.0,0.0,0.0,0.0,0.0,0.0,0.0,0.0,4.1279,4.2308,4.384,4.4468,4.4217,4.6125,4.6627,4.5874,4.6301,4.625,4.5824,4.5246,0.0,3.9772,3.8743,0.0,0.0,0.0,0.0,0.0,0.0,0.0,0.0,0.0,0.0,0.0,0.0,0.0,0.0,0.0,0.0,0.0,0.0,0.0,0.0,0.0,0.0,2.8364,2.8509,2.8529,2.8404,2.845,2.8469,2.8232,2.7946,2.7201,2.6392,0.0,0.0,0.0,0.0,0.0,0.0,2.7461,2.832,2.916,3.0019,3.0586,3.0898,3.0898,3.041,2.9941,2.9512,2.8691,2.8027,2.7598,2.6031,0.0,0.0,0.0,0.0,0.0,0.0,0.0,0.0,0.0,0.0,0.0,0.0,0.0,0.0,0.0,0.0,0.0,0.0,0.0,0.0,0.0,0.0,0.0,0.0,0.0,0.0,0.0,0.0,0.0,3.6734,3.7764,3.6508,3.6985,3.691,0.0,0.0,0.0,0.0,0.0,0.0,0.0,0.0,0.0,4.2308,4.3212,4.4041,4.4844,4.5899,4.6753,4.7431,4.8385,4.8937,4.9113,4.9364,4.9339,4.9113,4.9113,4.7431,4.4468,4.1806,3.9747,3.809,0.0,0.0,0.0,0.0,3.6307,3.6609,3.6935,3.7061,3.6985,3.6609,0.0,0.0,0.0,0.0,0.0,0.0,0.0,2.9771,2.9908,2.9278,2.8711,2.8945,2.9004,2.8945,2.8691,2.8608,2.8327,2.7402,2.706,2.6663,2.5996,2.621,0.0,0.0,0.0,2.6777,2.7871,2.8535,2.9258,3.0098,3.0605,3.0898,3.0898,3.0469,3.0117,2.9941,2.9121,2.8555,2.8379,2.7294,2.6623,0.0,0.0,0.0,0.0,0.0,0.0,0.0,0.0,0.0,0.0,0.0,0.0,0.0,0.0,0.0,0.0,0.0,0.0,0.0,0.0,0.0,0.0,0.0,0.0,0.0,0.0,0.0,0.0,3.7588,3.8868,3.6634,3.8341,3.8718,0.0,0.0,0.0,0.0,0.0,0.0,4.148,4.261,4.379,4.502,4.6024,4.6878,4.7581,4.8134,4.9038,5.0243,5.0368,5.0896,5.1699,5.1699,5.1699,5.1699,5.1699,5.0594,4.8485,4.4895,4.2283,4.04,3.8994,3.804,3.7513,3.7889,3.8216,3.8492,3.8919,3.9069,3.8944,3.809,3.7362,3.6609,3.5164,0.0,0.0,0.0,0.0,2.9953,3.0339,2.9908,2.9336,2.9648,2.9726,2.9648,2.9316,2.916,2.8711,2.7422,2.7266,2.7266,2.7051,2.6934,0.0,2.7148,2.7109,2.7422,2.8476,2.8984,2.9531,3.0293,3.0684,3.0898,3.0898,3.0566,3.0332,3.0195,2.959,2.892,2.8358,2.7725,2.6719,2.5498,0.0,0.0,0.0,0.0,0.0,0.0,0.0,0.0,0.0,0.0,0.0,0.0,0.0,0.0,0.0,0.0,0.0,0.0,0.0,0.0,0.0,0.0,0.0,0.0,0.0,0.0,0.0,0.0,0.0,3.6634,3.9697,0.0,0.0,0.0,0.0,4.03,4.1806,4.3212,4.4342,4.5497,4.6853,4.846,4.9088,4.9916,5.1021,5.1574,5.19,5.1975,5.2503,5.2779,5.2854,5.2854,5.2854,5.2854,5.2854,5.2176,5.0896,4.8058,4.5271,4.276,4.2133,4.1254,4.0325,4.035,4.0049,3.9622,3.9647,3.9647,3.9647,3.9597,3.8818,3.7518,3.5593,3.4572,0.0,0.0,3.0831,3.0529,2.9838,2.9937,3.0137,3.0156,3.0156,3.0156,3.0137,2.9824,2.916,2.7871,2.7949,2.7969,2.7148,0.0,2.8066,2.7695,2.8301,2.8965,2.9434,2.9863,3.0312,3.0801,3.0879,3.0898,3.0898,3.0859,3.0664,3.0234,3.0156,2.9182,2.6918,2.5501,2.4411,2.395,2.2589,0.0,0.0,0.0,0.0,0.0,0.0,0.0,0.0,0.0,0.0,0.0,0.0,0.0,0.0,0.0,0.0,0.0,0.0,0.0,0.0,0.0,0.0,0.0,0.0,0.0,0.0,0.0,0.0,3.9747,4.2986,0.0,4.1706,4.2484,4.3162,4.3162,4.4367,4.5748,4.7205,4.8335,4.9565,5.087,5.1448,5.1925,5.2327,5.2528,5.2628,5.2628,5.2829,5.2929,5.2929,5.2929,5.2929,5.2929,5.2929,5.2503,5.1699,5.0368,4.7958,4.502,4.4116,4.3062,4.2108,4.2108,4.1982,4.1856,4.2208,4.1882,4.1046,3.9209,3.8161,3.7044,3.4039,3.3027,3.2512,3.0872,3.0378,3.0386,3.0407,3.0527,3.0644,3.0644,3.0644,3.0566,3.0254,3.0312,3.0117,2.9082,2.9023,2.9023,2.8711,2.8672,2.875,2.8867,2.8906,2.918,2.9883,3.0098,3.0371,3.084,3.0898,3.0898,3.0898,3.0898,3.0335,2.8932,2.8536,2.7446,2.5422,2.449,2.3505,2.2363,2.1926,2.1247,0.0,0.0,0.0,0.0,0.0,0.0,0.0,0.0,0.0,0.0,0.0,0.0,0.0,0.0,0.0,0.0,0.0,0.0,0.0,0.0,0.0,0.0,0.0,0.0,0.0,0.0,4.2911,4.2007,4.5497,4.7004,4.4593,4.5372,4.6024,4.6024,4.723,4.8535,4.9816,5.077,5.1599,5.2352,5.2729,5.2929,5.2929,5.2929,5.2929,5.2929,5.2929,5.2929,5.2929,5.2929,5.2929,5.2929,5.2929,5.2503,5.18,5.1423,4.964,4.7054,4.61,4.507,4.4066,4.389,4.3689,4.345,4.3119,4.2372,4.1212,3.8712,3.7525,3.6512,3.3818,3.2839,3.2416,3.1265,3.0762,3.0723,3.1016,3.1211,3.1289,3.1133,3.1094,3.1016,3.0703,3.0781,3.0723,3.0137,3.0019,2.9922,2.9629,2.9453,2.9453,2.9746,2.9531,2.9609,3.0332,3.0547,3.0703,3.0879,3.1152,3.1211,3.0918,3.1152,3.0447,2.8301,2.7911,2.6574,2.4005,2.3648,2.272,2.1118,2.1118,2.0723,1.98,0.0,0.0,0.0,0.0,0.0,0.0,0.0,0.0,0.0,0.0,0.0,0.0,0.0,0.0,0.0,0.0,0.0,0.0,0.0,0.0,0.0,0.0,0.0,3.8316,4.148,4.374,4.3237,4.7029,4.8611,4.5949,4.7631,4.8887,4.8887,5.0393,5.1574,5.2101,5.2628,5.2929,5.2929,5.2929,5.2929,5.2929,5.2929,5.2929,5.2929,5.2929,5.2929,5.2929,5.2929,5.2929,5.2929,5.2929,5.2302,5.1297,5.1297,5.0318,4.8761,4.8159,4.7255,4.6276,4.5723,4.5146,4.4336,4.2179,4.1044,4.029,3.8037,3.6961,3.633,3.4816,3.4031,3.343,3.2494,3.1855,3.1523,3.1504,3.1836,3.2051,3.1601,3.1504,3.1504,3.1504,3.1191,3.0918,3.0918,3.0918,3.0644,2.9766,2.9941,3.0234,3.0234,3.0234,0.0,3.0879,3.1289,3.1387,3.0976,3.168,3.1816,3.0976,3.166,3.1016,2.8444,2.839,2.6729,2.2736,2.2587,2.1872,2.0214,2.0227,2.0094,1.9813,0.0,0.0,0.0,0.0,0.0,0.0,0.0,0.0,0.0,0.0,0.0,0.0,0.0,0.0,0.0,0.0,0.0,0.0,0.0,0.0,0.0,0.0,4.1505,4.1605,4.4267,4.6602,4.7657,4.9916,5.1122,5.0368,5.1197,5.1624,5.1222,5.1975,5.2528,5.2703,5.2854,5.2929,5.2929,5.2929,5.2929,5.2929,5.2929,5.2929,5.2929,5.2929,5.2929,5.2929,5.2929,5.2929,5.2929,5.2929,5.2528,5.185,5.1448,5.077,4.9816,4.8435,4.7506,4.6853,4.6276,4.5723,4.491,4.2639,4.1614,4.0646,3.7758,3.6438,3.5728,3.376,3.3112,3.2913,3.1956,3.1836,3.1836,3.123,3.1621,3.1992,3.123,3.1289,3.1426,3.1133,3.1211,3.1348,3.1348,3.1601,3.1543,3.0684,3.0625,3.0801,3.1113,3.1152,3.1309,3.1758,3.1914,3.1953,3.1836,3.2031,3.143,2.9777,2.9804,2.8357,2.4811,2.4642,2.349,2.0953,2.0732,2.0383,1.992,2.012,2.0187,0.0,0.0,0.0,0.0,0.0,0.0,0.0,0.0,0.0,0.0,0.0,0.0,0.0,0.0,0.0,0.0,0.0,0.0,0.0,0.0,0.0,0.0,4.2509,4.4317,4.5573,4.7154,4.8686,5.0142,5.1574,5.2452,5.2452,5.2729,5.2804,5.2477,5.2754,5.2929,5.2929,5.2929,5.2929,5.2929,5.2929,5.2929,5.2929,5.2929,5.2929,5.2929,5.2929,5.2929,5.2929,5.2929,5.2929,5.2929,5.2929,5.2628,5.2076,5.1749,5.1147,0.0,0.0,0.0,0.0,0.0,4.4939,4.4354,4.1415,4.0185,3.9501,3.6415,3.5371,3.4814,3.3414,3.293,3.2734,3.2402,3.2363,3.2305,3.1816,3.2187,3.2519,3.1855,3.1875,3.1992,3.1738,3.1738,3.1797,3.1797,3.1992,0.0,3.1504,3.1426,3.1504,3.1758,3.1797,3.1634,3.1096,3.1285,3.0953,3.0025,3.0299,2.9887,2.8323,2.841,0.0,0.0,0.0,2.253,2.055,2.0374,0.0,0.0,0.0,2.0535,2.0414,2.0588,0.0,0.0,2.0347,2.0227,0.0,0.0,0.0,0.0,0.0,0.0,0.0,0.0,0.0,0.0,0.0,0.0,0.0,0.0,0.0,0.0,4.4819,4.7355,4.9565,4.9916,5.0343,5.1348,5.2327,5.2929,5.2929,5.298,5.3005,5.3005,5.308,5.308,5.303,0.0,0.0,0.0,0.0,5.2929,5.2929,5.2929,5.2929,5.2929,5.2929,5.2929,5.2929,5.2929,5.2929,5.2929,5.2929,5.2628,5.2101,5.2101,5.1398,5.0167,4.8535,4.7733,4.7184,4.4611,4.3559,4.2818,3.9239,0.0,0.0,3.5002,3.4082,3.3926,3.3535,3.3164,3.293,3.3262,3.3105,3.2851,3.2754,3.3066,3.3301,3.2832,3.2754,3.2793,3.2734,3.248,3.2226,3.1983,3.206,3.1996,3.1873,3.188,3.1924,3.1983,3.1777,3.1162,2.9547,2.976,2.9357,2.7371,2.7785,0.0,2.6889,2.7117,2.6342,2.3902,2.3688,2.274,2.0859,2.0935,2.0935,2.0681,2.0922,2.0949,2.0722,2.0722,2.0855,2.1096,2.0575,2.0334,0.0,0.0,0.0,0.0,0.0,0.0,0.0,0.0,0.0,0.0,0.0,0.0,0.0,0.0,0.0,4.4342,4.6778,4.9063,5.1297,5.2,5.2352,5.2578,5.2804,5.2929,5.2929,5.3306,5.3557,5.3557,5.3984,5.4059,5.3582,5.3557,5.3356,5.2929,5.2929,5.2929,5.2929,5.2929,5.2929,5.2929,0.0,0.0,5.2929,5.2929,5.2929,5.2929,5.2929,5.2628,5.2101,5.2101,5.1172,4.964,4.8385,4.686,4.5116,4.4094,4.2552,4.0725,3.9,3.7737,3.6476,3.5012,3.4101,3.3535,3.3437,3.3359,0.0,3.2988,3.3105,3.3144,3.2461,3.2851,3.3223,3.248,3.2559,3.2695,3.2363,3.25,3.2285,3.0858,3.0993,3.0912,2.9585,2.9722,3.0098,3.0552,2.959,2.885,2.8742,2.9094,2.9025,2.8689,2.8668,2.8067,2.5916,2.5916,2.4878,2.258,2.2134,2.1706,2.1042,2.0855,2.0735,2.0681,2.0735,2.0842,2.1029,2.1029,2.1056,2.1109,2.0989,2.0935,0.0,0.0,0.0,0.0,0.0,0.0,0.0,0.0,0.0,0.0,0.0,3.9094,0.0,0.0,4.4141,4.6351,4.856,5.0519,5.19,5.2578,5.2929,5.2929,5.2929,5.2929,5.2929,5.3406,5.3708,5.3708,5.4235,5.431,5.3733,5.3708,5.3457,5.2955,5.2929,5.2929,5.2929,5.2929,5.2929,5.2929,5.2929,5.2929,5.2929,5.2929,5.2929,5.2929,5.2929,5.2779,5.2503,5.2226,5.0861,4.89,4.78,4.6384,4.4617,4.2509,4.0934,3.9518,3.8089,3.7064,3.6073,3.5303,3.4609,3.4023,3.3809,3.3594,3.3379,3.3164,3.3262,3.332,3.291,3.3105,3.332,3.2891,3.2949,3.3105,3.3125,3.3281,3.2969,3.132,3.1289,3.1007,2.9108,2.8377,2.8345,2.9453,2.8977,2.8235,2.7594,2.763,2.7324,2.6504,2.6379,2.5967,2.4691,2.438,2.3593,2.2231,2.1937,2.1697,2.155,2.1416,2.1336,2.1336,2.1189,2.1189,2.1336,2.1189,2.1109,2.1109,2.1109,2.1109,0.0,0.0,0.0,0.0,0.0,0.0,0.0,0.0,3.8442,3.9471,4.0551,4.163,4.261,4.4895,4.7004,4.8209,5.0117,5.1624,5.2176,5.2653,5.2929,5.2929,5.2929,5.298,5.308,5.3557,5.3909,5.4009,5.4461,5.4511,5.4059,5.3808,5.3507,5.308,5.298,5.2929,5.2929,5.2929,5.2929,5.2929,5.2929,5.2929,5.2929,5.2929,5.2929,5.2929,5.2491,5.2327,5.2302,5.1319,4.9745,4.7745,4.6374,4.5309,4.4101,4.0979,3.9479,3.8603,3.7233,3.6387,3.5957,3.5527,3.5078,3.4609,3.4199,3.3828,3.3555,3.3555,3.3496,3.3437,3.3535,3.3555,3.3555,3.3555,3.3613,3.3642,3.3714,3.3662,3.3086,3.1237,3.0819,3.0327,2.8467,2.7009,2.6713,2.8308,2.8201,2.7555,2.6173,2.595,2.5442,2.4071,2.3941,2.3915,2.3861,2.3354,2.2939,2.2699,2.2352,2.2151,2.2151,2.2044,2.1991,2.1991,2.175,2.163,2.163,2.139,2.1283,2.1283,2.1283,2.1216,4.4227,4.2507,4.0858,4.1231,3.9991,3.9171,0.0,0.0,4.1781,4.2384,4.3388,4.4367,4.4995,4.6552,4.8259,4.9866,5.1197,5.2201,5.2754,5.2879,5.2929,5.2929,5.2929,5.3105,5.3557,5.4135,5.4687,5.5164,5.5265,5.5265,5.5189,5.426,5.3683,5.3607,5.3181,5.2929,5.2929,5.2929,5.2929,5.2929,5.2929,5.2929,5.2929,5.2929,5.2929,5.2792,5.0998,5.0269,5.0079,4.7809,4.645,4.5669,4.3413,4.2188,4.1635,4.0414,3.8881,3.7429,3.6936,3.6387,3.5957,3.5527,3.5078,3.4609,3.4199,3.4043,3.4004,3.4004,3.373,3.3516,3.3906,3.4004,3.4004,3.4004,3.4277,3.4158,3.2459,3.2193,3.112,2.7724,2.7135,2.6885,2.534,2.5187,2.552,2.6483,2.5641,2.472,2.4431,2.4661,2.4676,2.4543,2.4543,2.4436,2.4182,2.3861,2.3661,2.3621,2.3086,2.2766,2.2766,2.2258,2.1991,2.1991,2.1951,2.1937,2.1937,2.1911,2.1884,2.1884,2.1884,2.1603,4.2709,4.1446,4.0588,4.0428,4.067,4.1053,4.2057,4.271,4.3463,4.4669,4.5773,4.6803,4.7707,4.9238,5.0569,0.0,5.2076,5.2653,5.2904,5.2929,5.2678,5.2051,5.2528,5.313,5.3658,5.3909,5.4436,5.5315,5.539,5.539,5.539,5.4938,5.4386,5.3708,5.3482,5.3231,5.2929,5.3231,5.3231,5.2929,5.3231,5.3231,5.2929,5.1747,5.0551,4.9391,4.865,4.8217,4.8194,4.7096,4.572,4.4263,4.3193,4.1668,3.9976,3.9352,3.8405,3.7266,3.709,3.6601,3.5996,3.582,3.5469,3.5078,3.4902,3.4648,3.4434,3.4434,3.4316,3.4199,3.4394,3.4434,3.4434,3.4434,3.3764,3.2929,3.2575,3.1685,3.0136,2.8,2.7613,2.7172,2.5418,2.5251,2.5499,2.5834,2.531,2.497,2.497,2.5077,2.5144,2.5144,2.5144,2.5024,2.4743,2.4449,2.4209,2.4035,2.3621,2.3394,2.3394,2.3153,2.2939,2.2766,2.2592,2.2498,2.2498,2.2151,2.2071,2.2231,2.2071,2.1857,4.1663,4.1127,4.1219,4.0926,4.2157,4.3438,4.3991,4.4794,4.5748,4.6979,4.7958,4.8837,4.9665,5.0946,5.1925,5.2076,5.2578,5.2929,5.2929,5.2678,5.2176,5.1373,5.1724,5.2327,5.3181,5.3532,5.411,5.5089,5.5164,5.5214,5.539,5.5239,5.4863,5.4185,5.3421,5.3073,5.3155,5.2478,5.2098,5.205,5.1975,5.1644,5.1163,4.9819,4.8361,4.7029,4.6441,4.6146,4.6146,4.5574,4.4273,4.2699,4.2679,4.1352,3.9336,3.8906,3.8281,3.7617,3.7383,3.6894,3.6328,3.6094,3.582,3.5547,3.543,3.5156,3.4883,3.4883,3.4805,3.4726,3.4863,3.498,3.4926,3.4375,3.3299,3.2378,3.1804,3.0623,2.9195,2.7788,2.7589,2.7179,2.5918,2.5638,2.5665,2.5745,2.5758,2.5692,2.5531,2.5518,2.5518,2.5518,2.5518,2.5424,2.5224,2.4997,2.4756,2.4462,2.4168,2.3968,2.3888,2.3808,2.3674,2.3447,2.3233,2.3113,2.3113,2.2686,2.2592,2.2792,2.2579,2.2432,4.1807,4.2242,4.3178,4.3651,4.5001,4.6326,4.6878,4.8259,4.9439,4.949,4.9941,5.0343,5.0393,5.0896,5.1473,5.2026,5.2578,5.2929,5.2929,5.2,5.1322,5.1272,5.0343,5.0343,0.0,5.308,5.3959,5.4536,5.4587,5.4813,5.5365,5.4888,5.4813,5.5315,5.2817,5.2139,5.3683,4.9829,4.8575,5.0127,4.8072,4.7198,4.7175,4.7175,4.7029,4.6882,4.4977,4.4247,4.4096,4.2196,4.1053,4.0527,4.0527,4.0254,3.9824,3.9355,3.8906,3.8418,3.7578,3.7285,3.7129,3.6289,3.6016,3.5918,3.5527,3.5391,3.5371,3.5371,3.5039,3.4805,3.5254,3.5664,3.5412,3.3568,3.357,3.3099,2.9328,2.8447,2.7861,2.5949,2.5657,2.5598,2.5892,2.5945,2.6039,2.6319,2.636,2.6159,2.5585,2.5518,2.5518,2.5518,2.5518,2.5504,2.5504,2.5491,2.5358,2.5077,2.477,2.4489,2.4209,2.3915,2.3768,2.3754,2.3754,2.3741,2.3741,2.3728,2.3714,2.3728,2.3714,2.3567,4.1941,4.3049,4.4356,4.5679,4.7222,4.8636,4.9188,4.9741,5.0142,5.0142,4.9138,4.8234,4.8234,4.841,4.8837,4.9741,5.0996,5.2101,5.2829,5.2603,5.1825,5.0343,5.082,0.0,0.0,0.0,0.0,5.4436,5.3345,5.3277,5.5365,5.2617,5.1828,5.3227,5.0577,4.9444,5.0049,4.8543,4.7998,4.8406,4.7479,4.6293,4.5127,4.5127,4.4398,4.3096,4.2503,4.2196,4.2196,4.1463,4.1094,4.0918,4.0644,4.0273,3.9844,3.9375,3.8945,3.8496,3.791,3.7539,3.7246,3.6953,3.6875,3.6797,3.6367,3.6445,3.6543,3.5976,3.5898,3.5685,3.4284,3.4112,3.3988,3.1976,3.0907,3.0001,2.8897,2.7755,2.6611,2.6208,2.6253,2.6413,2.652,2.6694,2.6854,2.6961,2.68,2.66,2.6413,2.6547,2.66,2.64,2.6386,2.6226,2.5838,2.5812,2.5678,2.5384,2.5277,2.517,2.5077,2.4796,2.4543,2.4342,2.4155,2.4062,2.4062,2.3861,2.3875,2.4048,2.3861,2.3714,4.2631,4.4342,4.615,4.7631,4.9264,5.0519,5.0695,5.072,5.0494,4.969,4.8234,4.6903,4.61,4.6276,4.6702,4.7205,4.8711,5.0318,5.1825,5.1699,5.1197,5.0569,5.0921,5.0655,0.0,0.0,0.0,5.2798,5.1898,5.168,5.2671,5.1208,5.0549,5.0965,4.8552,4.7617,4.8356,4.6681,4.562,4.5297,4.5127,4.4247,4.3075,4.3075,4.233,4.1172,4.1172,4.1172,4.1172,4.1172,4.1172,4.1133,4.0684,4.0351,4.0039,3.9434,3.9023,3.8711,3.8125,3.7754,3.75,3.7344,3.7305,3.7226,3.6797,3.6973,3.7148,3.6445,3.5989,3.552,3.3939,3.3304,3.2415,3.0518,2.9467,2.8591,2.8028,2.7112,2.6319,2.6507,2.6787,2.6987,2.6987,2.7134,2.7268,2.7268,2.7188,2.7054,2.6854,2.7081,2.7148,2.6854,2.6827,2.6667,2.6306,2.6172,2.5985,2.5692,2.5678,2.5625,2.5518,2.5331,2.5144,2.4957,2.4663,2.4516,2.4516,2.4222,2.4168,2.4356,2.4168,2.4022,4.3827,4.5974,4.8335,4.9439,5.0946,5.2,5.1423,5.1222,5.0519,4.8284,4.7305,4.6175,0.0,0.0,4.5146,4.4744,4.61,4.8008,5.0268,4.969,4.9791,0.0,0.0,0.0,0.0,0.0,0.0,4.9677,0.0,4.9753,4.7984,5.0387,5.0839,4.8726,4.6932,4.6642,4.8249,4.3976,4.1601,4.1211,4.1191,4.1172,4.1172,4.1172,4.1172,4.1172,4.1172,4.1172,4.1172,4.1152,4.1152,4.1133,4.0644,4.0469,4.0391,3.9492,3.916,3.9043,3.8242,3.7969,3.7891,3.75,3.7363,3.7285,3.6855,3.7031,3.7266,3.6816,3.5529,3.4216,3.4036,3.2861,3.1211,2.9108,2.8901,2.8686,2.6847,2.6613,2.6827,2.6827,2.7068,2.7295,2.7308,2.7308,2.7308,2.7308,2.7549,2.7522,2.6934,2.7134,2.7201,2.6894,2.6867,2.6867,2.6841,2.6587,2.6319,2.6039,2.6026,2.5892,2.5598,2.5558,2.5545,2.5531,2.5251,2.5104,2.5104,2.4823,2.4676,2.4663,2.4663,2.4502,4.5943,4.8309,5.0594,5.1297,5.2101,5.2477,5.1498,5.0318,4.8912,4.7079,4.4644,4.2509,0.0,0.0,0.0,4.4945,4.7004,0.0,5.2427,5.2628,0.0,5.0616,0.0,4.9534,4.7394,4.6124,0.0,0.0,4.6768,4.729,4.8328,4.6124,4.5607,4.7282,4.4243,4.3118,4.444,4.2625,4.1758,4.1641,4.1328,4.1172,4.1172,4.1172,4.1172,4.1172,4.1172,4.1172,4.1152,4.082,4.0879,4.1055,3.9961,3.9746,3.9941,3.9062,3.873,3.8711,3.8476,3.8418,3.8398,3.8281,3.8242,3.8164,3.7734,3.791,3.8086,3.7344,3.5961,3.4412,3.2638,3.0788,2.9108,2.7158,2.6942,2.7004,2.6544,2.6613,2.6827,2.6827,2.7241,2.7655,2.7883,2.7923,2.7923,2.7923,2.7976,2.7896,2.7522,2.7736,2.7802,2.7509,2.7482,2.7388,2.7175,2.7081,2.7014,2.6934,2.6934,2.68,2.6507,2.6279,2.6066,2.5852,2.5558,2.5398,2.5398,2.5331,2.5184,2.497,2.497,2.481,4.8184,5.0067,5.1774,5.2327,5.2327,5.185,5.0494,4.8887,4.7079,4.492,4.2811,4.1028,3.9973,4.045,4.1555,0.0,0.0,0.0,5.1423,5.2327,5.2139,0.0,5.0957,0.0,4.6681,4.5884,4.5283,0.0,4.5002,4.5502,4.5793,4.4591,4.4159,4.4579,4.2744,4.1894,4.2246,4.2129,4.1894,4.1523,4.1289,4.1172,4.1172,4.1172,4.1172,4.1172,4.1172,4.1172,4.1152,4.0918,4.0957,4.1055,3.9941,3.9668,3.9785,3.8906,3.8574,3.8574,3.8574,3.8574,3.8574,3.8574,3.8574,3.8496,3.8047,3.7624,3.7104,3.6632,3.4569,3.2159,3.107,2.9393,2.7678,2.6486,2.6466,2.6734,2.66,2.6907,2.7241,2.7375,2.7669,2.7949,2.811,2.8136,2.8136,2.8136,2.8136,2.8083,2.7909,2.8043,2.803,2.7736,2.7696,2.7629,2.7468,2.7335,2.7268,2.7268,2.7268,2.7188,2.7028,2.6734,2.6507,2.6333,2.5919,2.5705,2.5705,2.5571,2.5371,2.5077,2.5077,2.4917,5.0368,5.1473,5.2427,5.2829,5.2026,5.072,4.9038,4.728,4.5221,4.2585,4.1555,4.0676,3.9245,3.9823,4.0852,4.1831,0.0,4.61,4.964,5.0705,5.123,5.1166,5.1428,5.004,4.6204,4.6161,4.5576,4.3347,4.442,4.4494,4.2519,4.442,4.4396,4.1914,4.2246,4.207,4.1348,4.1953,4.1933,4.125,4.1211,4.1172,4.1172,4.1172,4.1172,4.1172,4.1172,4.1172,4.1172,4.1113,4.1113,4.1094,4.0234,3.9902,3.9805,3.8965,3.8613,3.8574,3.8633,3.8652,3.8652,3.8594,3.8574,3.8496,3.7817,3.6604,3.5348,3.505,3.232,2.9523,2.9852,2.8386,2.6774,2.656,2.6894,2.7201,2.6934,2.7308,2.7789,2.8083,2.8136,2.8136,2.8136,2.8136,2.8136,2.8136,2.8136,2.8136,2.8136,2.8136,2.8043,2.7789,2.7762,2.7762,2.7762,2.7522,2.7388,2.7388,2.7388,2.7362,2.7321,2.7041,2.6867,2.6827,2.6293,2.6012,2.6012,2.5758,2.5478,2.5197,2.5197,2.501,5.1624,5.2603,5.3356,5.3005,5.1749,5.0117,4.8435,4.6075,0.0,4.1856,4.0676,3.9898,3.9597,4.0074,4.1605,4.492,4.5773,4.7657,5.2327,5.1687,5.0501,0.0,4.9065,4.7328,4.4972,4.5035,0.0,0.0,4.4198,4.406,4.3008,4.3352,4.3155,4.2324,4.2383,4.2363,4.2207,4.166,4.1484,4.168,4.1348,4.1172,4.1172,4.1172,4.1172,4.1172,4.1172,0.0,4.1152,4.0781,4.084,4.1094,4.0234,3.9902,3.9824,3.9297,3.8867,3.8633,3.8965,3.9101,3.9043,3.8691,3.8574,3.8243,3.6497,3.5758,3.5199,3.3398,3.1268,2.9523,2.9852,2.8386,2.6867,2.7068,2.7188,2.7255,2.7201,2.7455,2.7789,2.8083,2.8136,2.8136,2.8136,2.8136,2.8136,2.8136,2.8136,2.8136,2.8136,2.8136,2.8123,2.807,2.807,2.807,2.807,2.8016,2.7989,2.7989,2.7989,2.7883,2.7629,2.7348,2.7068,2.6827,2.6493,2.6319,2.6319,2.6266,2.6092,2.5798,2.5798,2.5518,5.2854,5.3532,5.4009,5.3457,5.1423,4.9113,4.7456,0.0,0.0,4.0777,4.0074,3.9697,3.9697,4.0149,4.1304,4.3765,4.4618,4.6038,4.9145,4.9427,4.8974,4.7965,4.7602,4.6804,0.0,4.5039,4.4844,4.4414,4.4394,4.4101,4.3437,4.2969,4.2637,4.2441,4.2207,4.1992,4.1777,4.1582,4.1484,4.1465,4.1269,4.1172,4.1172,4.1172,4.1172,4.1172,4.1172,4.1172,4.1152,4.0957,4.0976,4.1113,4.0469,4.0215,4.0137,3.9453,3.9219,3.9258,3.9219,3.9199,3.9051,3.784,3.754,3.739,3.6449,3.4588,3.2618,3.1889,3.0091,2.8311,2.8621,2.807,2.7281,2.7268,2.7375,2.7535,2.7696,2.7829,2.7976,2.8123,2.8136,2.8136,2.8136,2.8136,2.8136,2.8136,2.8136,2.8136,2.8136,2.8136,2.8136,2.8136,2.8136,2.8136,2.8136,2.8136,2.8136,2.8136,2.8136,2.8083,2.7936,2.7642,2.7428,2.7281,2.6987,2.6279,2.4974,2.4974,2.4111,2.2583,2.2583,2.2385,5.3632,5.4034,5.426,5.3808,5.1046,4.8058,4.6627,4.3639,4.0877,3.9898,3.9697,3.9697,3.9697,4.0049,4.0777,4.2108,4.2961,4.406,4.5586,4.6529,4.6774,0.0,4.6384,0.0,4.5621,4.5234,0.0,4.4902,4.4492,4.4082,4.373,4.2988,4.2558,4.2558,4.207,4.1641,4.1308,4.1543,4.1504,4.1172,4.1172,4.1172,4.1172,4.1172,4.1172,4.1172,4.1172,4.1172,4.1172,4.1172,4.1172,4.1133,4.0801,4.0605,4.043,3.9746,3.9668,3.9844,3.9101,3.8855,3.8462,3.6677,3.6332,3.6308,3.5434,3.2949,3.0319,3.01,2.8725,2.7335,2.7629,2.7696,2.7655,2.7495,2.7629,2.7856,2.8096,2.8136,2.8136,2.8136,2.8136,2.8136,2.8136,2.8136,2.8136,2.8136,2.8136,2.8136,2.8136,2.8136,2.8136,2.8136,2.8136,2.8136,2.8136,2.8136,2.8136,2.8136,2.8136,2.8136,2.8136,2.7856,2.7696,2.7696,2.6908,2.5653,2.361,2.3062,2.1676,1.9694,1.9654,1.9354,5.3432,5.3733,5.3758,5.3708,5.0469,4.7104,4.6451,0.0,4.0425,3.9823,3.9697,3.9697,3.9697,3.9747,4.045,4.2559,4.2559,4.3218,4.562,4.4821,4.4332,4.5384,0.0,0.0,4.5,4.5058,0.0,4.4492,4.4023,4.375,4.3711,4.3262,4.3027,4.3027,4.2226,4.1777,4.1738,4.1406,4.1211,4.1172,4.1172,4.1172,4.1172,4.1172,4.1172,4.1172,4.1172,4.1172,0.0,4.1172,4.1172,4.1172,4.1133,4.0879,4.0508,4.043,4.0195,3.9639,3.805,3.7522,3.7108,3.54,3.5487,3.5493,3.1905,3.058,2.9954,2.8097,2.7445,2.7335,2.7629,2.7696,2.7762,2.8003,2.8083,2.811,2.8136,2.8136,2.8136,2.8136,2.8136,2.8136,2.8136,2.8136,2.8136,2.8136,2.8136,2.8136,2.8136,2.8136,2.8136,2.8136,2.8136,2.8136,2.8136,2.8136,2.8136,2.8136,2.8136,2.8136,2.8136,2.7856,2.7696,2.7696,2.5397,2.4081,2.3715,2.1488,2.0364,1.9995,1.9967,1.9755,5.2427,5.3457,5.4059,5.3406,5.0167,4.6903,4.6024,4.2811,3.9948,3.9747,3.9697,3.9697,3.9697,3.9025,3.864,3.9599,3.8766,3.8387,3.9632,3.9432,4.0014,4.218,4.2033,0.0,0.0,0.0,0.0,4.3633,4.3672,4.3476,4.2969,4.2773,4.2578,4.2324,4.1738,4.1426,4.1426,4.125,4.1172,4.1172,4.1172,4.1172,4.1172,4.1172,4.1172,4.1172,4.1172,4.1172,0.0,4.1172,4.1172,4.1172,4.1172,4.0257,3.8937,3.8695,3.7842,3.6623,3.5588,3.5237,3.497,3.3238,3.2775,3.265,3.1401,3.005,2.8924,2.8122,2.7789,2.7816,2.7936,2.7963,2.7989,2.811,2.8136,2.8136,2.8136,2.8136,2.8136,2.8136,2.8136,2.8136,2.8136,2.8136,2.8136,2.8136,2.8136,2.8136,2.8136,2.8136,2.8136,2.8136,2.8136,2.8136,2.8136,2.8136,2.8136,2.8136,2.8136,2.8136,2.8136,2.803,2.7278,2.5905,2.4939,2.2943,2.0089,1.8866,1.7706,1.61,1.6089,1.5967,5.0971,5.2452,5.3482,5.303,4.9766,4.6451,4.5673,4.2484,3.9697,3.9697,3.9697,3.9697,3.9697,3.8453,3.7477,3.7477,3.6271,3.5376,3.5386,3.579,3.691,0.0,0.0,0.0,0.0,0.0,0.0,0.0,4.3535,4.334,4.248,4.2422,4.2226,4.1816,4.1387,4.1172,4.1172,4.1172,4.1172,4.1172,4.1172,4.1172,4.1172,4.1172,4.1172,4.1172,4.1172,4.1172,4.1172,4.1172,4.1172,4.1172,4.0509,3.9216,3.786,3.694,3.5737,3.4618,3.3548,3.3307,3.2869,3.1002,3.0281,3.0137,3.0354,2.9453,2.8136,2.8136,2.8136,2.8136,2.8136,2.8136,2.8136,2.8136,2.8136,2.8136,2.8136,2.8136,2.8136,2.8136,2.8136,2.8136,2.8136,2.8136,2.8136,2.8136,2.8136,2.8136,2.8136,2.8136,2.8136,2.8136,2.8136,2.8136,2.8136,2.8136,2.8136,2.8136,2.8136,2.8136,2.8136,2.7448,2.6418,2.4691,2.3298,2.0978,1.7569,1.6706,1.5353,1.3688,1.3539,1.3444,4.9012,5.0444,5.1574,5.2653,4.9188,4.5497,4.5497,4.2484,3.9697,3.9697,3.9697,3.9697,3.9697,3.8453,3.7477,3.7477,3.6271,3.5244,3.5086,3.531,0.0,0.0,0.0,0.0,0.0,0.0,0.0,0.0,4.3711,0.0,4.248,4.2422,4.2226,4.1816,4.1387,4.1172,4.1172,4.1172,4.1172,4.1172,4.1172,4.1172,4.1172,4.1172,4.1172,4.1172,4.1172,4.1172,4.1172,4.1172,4.1172,4.1016,3.8724,3.7896,3.7578,3.546,3.4651,3.4327,3.2201,3.1392,3.1061,2.8964,2.8305,2.8305,2.8305,2.8136,2.8136,2.8136,2.8136,2.8136,2.8136,2.8136,2.8136,2.8136,2.8136,2.8136,2.8136,2.8136,2.8136,2.8136,2.8136,2.8136,2.8136,2.8136,2.8136,2.8136,2.8136,2.8136,2.8136,2.8136,2.8136,2.8136,2.8136,2.8136,2.8136,2.8136,2.8136,2.8136,2.8136,2.8136,2.8136,2.5896,2.4691,2.4691,2.0183,1.7929,1.7755,1.5344,1.3987,1.3838,1.3695,1.3546,4.5146,4.6451,4.7405,4.7757,4.5799,4.3664,4.3288,4.1379,3.9697,3.9697,3.9697,3.9697,3.9697,3.7713,3.6054,3.6054,3.3866,3.2255,3.2233,0.0,0.0,0.0,0.0,0.0,0.0,0.0,0.0,0.0,4.2949,4.2773,4.1621,4.1836,4.1816,4.1387,4.125,4.1172,4.1172,4.1172,4.1172,4.1172,4.1172,4.1172,4.1172,4.1172,4.1172,4.1172,4.1172,4.1172,4.1172,4.1172,4.0353,3.8882,3.8231,3.6104,3.3349,3.2694,3.1572,3.0107,2.9453,2.9286,2.9118,2.8473,2.8136,2.8136,2.8136,2.8136,2.8136,2.8136,2.8136,2.8136,2.8136,2.8136,2.8136,2.8136,2.8136,2.8136,2.8136,2.8136,2.8136,2.8136,2.8136,2.8136,2.8136,2.8136,2.8136,2.8136,2.8136,2.8136,2.8136,2.8136,2.8136,2.8136,2.8136,2.8136,2.8136,2.8136,2.8136,2.8136,2.8136,2.7448,2.5896,2.5032,2.3126,2.0009,1.8627,1.7071,1.5337,1.4493,1.3939,1.3695,1.3546,1.3444,4.2007,4.3539,4.4644,4.507,4.374,4.2333,4.2183,4.0877,3.9697,3.9697,3.9697,3.9569,3.9025,3.6942,3.5068,3.4515,3.2436,3.0898,3.0898,0.0,0.0,0.0,0.0,0.0,0.0,0.0,0.0,4.207,4.2539,4.2422,4.1465,4.166,4.1601,4.1191,4.1172,4.1172,4.1172,4.1172,4.1172,4.1172,4.1172,4.1172,4.1172,4.1172,4.1172,4.1172,4.1172,4.1172,0.0,4.0353,3.9198,3.7737,3.6104,3.3839,3.1241,3.0426,2.9286,2.8136,2.8136,2.8136,2.8136,2.8136,2.8136,2.8136,2.8136,2.8136,2.8136,2.8136,2.8136,2.8136,2.8136,2.8136,2.8136,2.8136,2.8136,2.8136,2.8136,2.8136,2.8136,2.8136,2.8136,2.8136,2.8136,2.8136,2.8136,2.8136,2.8136,2.8136,2.8136,2.8136,2.8136,2.8136,2.8136,2.8136,2.8136,2.8136,2.8136,2.8136,2.7448,2.6236,2.4691,2.2955,2.0702,1.7938,1.6896,1.5682,1.4299,1.415,1.3973,1.379,1.3641,1.3539,0.0,4.1404,4.2811,4.389,4.261,4.1254,4.1806,4.0727,0.0,3.9697,3.9697,3.9258,3.7796,3.6271,3.4847,3.3304,3.1883,3.0898,3.0898,3.2461,0.0,0.0,0.0,0.0,0.0,0.0,0.0,4.2344,4.2363,4.2207,4.1777,4.1758,4.1582,4.1191,4.1172,4.1172,4.1172,4.1172,4.1172,4.1172,4.1172,4.1172,4.1172,4.1172,4.1172,0.0,4.1172,4.1172,4.1016,3.8882,3.7737,3.7241,3.3022,3.1227,3.091,2.8964,2.8136,2.8136,2.8136,2.8136,2.8136,2.8136,2.8136,2.8136,2.8136,2.8136,2.8136,2.8136,2.8136,2.8136,2.8136,2.8136,2.8136,2.8136,2.8136,2.8136,2.8136,2.8136,2.8136,2.8136,2.8136,2.8136,2.8136,2.8136,2.8136,2.8136,2.8136,2.8136,2.8136,2.8136,2.8136,2.8136,2.8136,2.8136,2.8136,2.8136,2.8136,2.8136,2.6066,2.4691,2.4508,2.0183,1.7763,1.7588,1.5337,1.4299,1.4299,1.415,1.4075,1.4068,1.3905,1.3756,3.7688,0.0,3.8718,3.9396,3.917,3.8944,0.0,3.9346,0.0,0.0,0.0,0.0,3.7796,3.6271,3.4847,3.3304,3.1883,3.0898,3.0898,0.0,0.0,0.0,0.0,0.0,0.0,0.0,4.1816,4.1484,4.1758,4.1758,4.1348,4.1328,4.1269,4.1172,4.1172,4.1172,4.1172,4.1172,4.1172,4.1172,4.1172,4.1172,4.1172,4.1172,4.1172,4.1172,4.1172,4.1172,4.1016,3.8882,3.6922,3.5137,3.253,3.0426,2.8964,2.8473,2.8136,2.8136,2.8136,2.8136,2.8136,2.8136,2.8136,2.8136,2.8136,2.8136,2.8136,2.8136,2.8136,2.8136,2.8136,2.8136,2.8136,2.8136,2.8136,2.8136,2.8136,2.8136,2.8136,2.8136,2.8136,2.8136,2.8136,2.8136,2.8136,2.8136,2.8136,2.8136,2.8136,2.8136,2.8136,2.8136,2.8136,2.8136,2.8136,2.8136,2.8136,2.8136,2.6066,2.3824,2.2084,1.9315,1.6896,1.5168,1.4646,1.4299,1.4299,1.415,1.4075,1.4061,1.3804,1.3661,3.7036,3.7186,3.7387,3.8191,3.8391,3.8542,3.912,0.0,0.0,0.0,0.0,0.0,0.0,0.0,3.4847,3.3304,3.1883,3.123,0.0,0.0,0.0,0.0,0.0,0.0,0.0,0.0,4.1426,4.1191,4.1387,4.1406,4.1191,4.1172,4.1172,4.1172,4.1172,4.1172,4.1172,4.1172,4.1172,4.1172,4.1172,4.1172,4.1172,4.1172,4.1172,4.1172,4.1172,4.1172,4.0997,3.7737,3.5799,3.4327,3.1241,2.9286,2.8136,2.8136,2.8136,2.8136,2.8136,2.8136,2.8136,2.8136,2.8136,2.8136,2.8136,2.8136,2.8136,2.8136,2.8136,2.8136,2.8136,2.8136,2.8136,2.8136,2.8136,2.8136,2.8136,2.8136,2.8136,2.8136,2.8136,2.8136,2.8136,2.8136,2.8136,2.8136,2.8136,2.8136,2.8136,2.8136,2.8136,2.8136,2.8136,2.8136,2.8136,2.8136,2.8136,2.8136,2.502,2.2611,2.1221,1.7938,1.5513,1.4299,1.4299,1.4299,1.4299,1.4217,1.4143,1.4068,1.3905,1.3797,3.701,3.7236,3.7538,3.8492,3.8743,3.8894,3.9446,0.0,0.0,0.0,0.0,0.0,0.0,0.0,0.0,0.0,0.0,0.0,0.0,0.0,0.0,0.0,0.0,0.0,0.0,4.1094,4.1172,4.1172,4.1172,4.1172,4.1172,4.1172,4.1172,4.1172,4.1172,4.1172,4.1172,4.1172,4.1172,4.1172,4.1172,4.1172,4.1172,4.1172,4.1172,4.1172,4.1172,4.1172,4.0841,3.6442,3.4651,3.4327,2.9941,2.8136,2.8136,2.8136,2.8136,2.8136,2.8136,2.8136,2.8136,2.8136,2.8136,2.8136,2.8136,2.8136,2.8136,2.8136,2.8136,2.8136,2.8136,2.8136,2.8136,2.8136,2.8136,2.8136,2.8136,2.8136,2.8136,2.8136,2.8136,2.8136,2.8136,2.8136,2.8136,2.8136,2.8136,2.8136,2.8136,2.8136,2.8136,2.8136,2.8136,2.8136,2.8136,2.8136,2.8136,2.8136,2.3812,2.0875,2.0183,1.6386,1.4299,1.4299,1.4299,1.4299,1.4299,1.4299,1.4231,1.4102,1.4061,1.398,3.691,3.7513,3.7914,3.809,3.814,3.8291,3.8868,0.0,0.0,0.0,0.0,0.0,0.0,0.0,0.0,0.0,0.0,0.0,0.0,0.0,0.0,0.0,0.0,0.0,4.0137,4.0742,4.1172,4.1172,4.1172,4.1172,4.1172,4.1172,4.1172,4.1172,4.1172,4.1172,4.1172,4.1172,4.1172,4.1172,4.1172,4.1172,4.1172,4.1172,4.1172,4.1172,4.1172,4.1172,4.0841,3.6442,3.4651,3.4327,2.9941,2.8136,2.8136,2.8136,2.8136,2.8136,2.8136,2.8136,2.8136,2.8136,2.8136,2.8136,2.8136,2.8136,2.8136,2.8136,2.8136,2.8136,2.8136,2.8136,2.8136,2.8136,2.8136,2.8136,2.8136,2.8136,2.8136,2.8136,2.8136,2.8136,2.8136,2.8136,2.8136,2.8136,2.8136,2.8136,2.8136,2.8136,2.8136,2.8136,2.8136,2.8136,2.8136,2.8136,2.8136,2.8136,2.3812,1.9498,1.5513,1.4646,1.4299,1.4299,1.4299,1.4299,1.4299,1.4299,1.4285,1.4258,1.4,1.3933,3.6558,3.7362,3.809,3.8391,3.8693,3.8994,3.9245,0.0,0.0,0.0,0.0,0.0,0.0,0.0,0.0,0.0,0.0,0.0,0.0,0.0,0.0,0.0,0.0,4.0234,4.0566,4.0937,4.1172,4.1172,4.1172,4.1172,4.1172,4.1172,4.1172,4.1172,4.1172,4.1172,4.1172,4.1172,4.1172,4.1172,4.1172,4.1172,4.1172,4.1172,4.1172,4.1172,4.1172,4.1172,4.0841,3.6442,3.4651,3.4327,2.9941,2.8136,2.8136,2.8136,2.8136,2.8136,2.8136,2.8136,2.8136,2.8136,2.8136,2.8136,2.8136,2.8136,2.8136,2.8136,2.8136,2.8136,2.8136,2.8136,2.8136,2.8136,2.8136,2.8136,2.8136,2.8136,2.8136,2.8136,2.8136,2.8136,2.8136,2.8136,2.8136,2.8136,2.8136,2.8136,2.8136,2.8136,2.8136,2.8136,2.8136,2.8136,2.8136,2.8136,2.7617,2.6418,2.3126,1.9662,1.6378,1.4992,1.4299,1.4299,1.4299,1.4299,1.4299,1.4299,1.4258,1.417,1.3946,1.3878,3.6056,3.6985,3.7914,3.8366,0.0,3.9722,3.9848,0.0,0.0,0.0,0.0,0.0,0.0,0.0,0.0,0.0,0.0,0.0,0.0,0.0,0.0,3.9434,3.957,3.9941,4.1055,4.1172,4.1172,4.1172,4.1172,4.1172,4.1172,4.1172,4.1133,4.1035,4.1113,4.1133,4.1016,4.1016,4.1074,4.1172,4.1172,4.1172,4.1172,4.1074,4.1074,4.1172,4.1074,4.1074,4.0841,3.6442,3.4651,3.4327,2.9941,2.8136,2.8136,2.8136,2.8136,2.8136,2.8136,2.8136,2.8136,2.8136,2.8136,2.8136,2.8136,2.8136,2.8136,2.8136,2.8136,2.8136,2.8136,2.8136,2.8136,2.8136,2.8136,2.8136,2.8136,2.8136,2.8136,2.8136,2.8136,2.8136,2.8136,2.8136,2.8136,2.8136,2.8136,2.8136,2.8136,2.8136,2.8136,2.8136,2.8136,2.8136,2.8136,2.8136,2.7448,2.5556,2.2783,2.0183,1.7938,1.5513,1.4299,1.4299,1.4299,1.4299,1.4299,1.4299,1.4238,1.4122,1.3966,1.3892,3.5454,3.6408,3.7262,3.7287,3.8517,0.0,4.035,4.045,0.0,0.0,0.0,0.0,0.0,0.0,0.0,0.0,0.0,0.0,0.0,0.0,3.9492,4.0859,4.0664,4.0625,4.1133,4.1172,4.1172,4.1172,4.1172,4.1172,4.1172,4.1172,4.0996,4.0586,4.0957,4.0976,4.0566,4.0566,4.0781,4.1172,4.1172,4.1172,4.1172,4.0762,4.0781,4.1152,4.0742,4.0801,4.0841,3.6442,3.4651,3.4327,2.9941,2.8136,2.8136,2.8136,2.8136,2.8136,2.8136,2.8136,2.8136,2.8136,2.8136,2.8136,2.8136,2.8136,2.8136,2.8136,2.8136,2.8136,2.8136,2.8136,2.8136,2.8136,2.8136,2.8136,2.8136,2.8136,2.8136,2.8136,2.8136,2.8136,2.8136,2.8136,2.8136,2.8136,2.8136,2.8136,2.8136,2.8136,2.8136,2.8136,2.8136,2.8136,2.8136,2.8136,2.8136,2.7968,2.3641,2.0183,1.7938,1.5513,1.4299,1.4299,1.4299,1.4299,1.4299,1.4299,1.4292,1.4278,1.4129,1.4055,3.4977,3.6081,3.7186,3.7186,0.0,0.0,0.0,0.0,0.0,0.0,0.0,0.0,0.0,0.0,0.0,0.0,0.0,0.0,0.0,3.9394,3.959,4.0644,4.0391,4.0293,4.0723,4.0762,4.0879,4.1152,4.1172,4.1055,4.0781,4.0762,4.0566,4.0156,4.0547,4.0566,4.0137,4.0391,4.0469,4.0391,4.0644,4.0762,4.0762,4.0605,4.0469,4.0391,4.0488,4.0625,4.0627,3.7806,3.596,3.4327,2.9941,2.8136,2.8136,2.8136,2.8136,2.8136,2.8136,2.8136,2.8136,2.8136,2.8136,2.8136,2.8136,2.8136,2.8136,2.8136,2.8136,2.8136,2.8136,2.8136,2.8136,2.8136,2.8136,2.8136,2.8136,2.8136,2.8136,2.8136,2.8136,2.8136,2.8136,2.8136,2.8136,2.8136,2.8136,2.8136,2.8136,2.8136,2.8136,2.8136,2.8136,2.8136,2.8136,2.8136,2.8136,2.8136,2.5203,2.2256,2.0009,1.7763,1.5858,1.4299,1.4299,1.4299,1.4299,1.4299,1.4299,1.4299,1.4143,1.4075,3.4726,3.5805,3.6935,0.0,0.0,0.0,0.0,0.0,0.0,0.0,0.0,0.0,0.0,0.0,0.0,0.0,0.0,0.0,4.0452,3.9722,3.9336,4.0215,3.9941,3.9844,4.0273,4.0332,4.0449,4.0742,4.0781,4.0644,4.0332,4.0332,4.0117,3.9687,4.0098,4.0117,3.9687,3.9961,4.0039,3.9902,4.0039,4.0176,4.0312,4.0176,4.0039,3.9902,4.0039,4.0273,4.0374,3.8411,3.616,3.3349,2.9621,2.8136,2.8136,2.8136,2.8136,2.8136,2.8136,2.8136,2.8136,2.8136,2.8136,2.8136,2.8136,2.8136,2.8136,2.8136,2.8136,2.8136,2.8136,2.8136,2.8136,2.8136,2.8136,2.8136,2.8136,2.8136,2.8136,2.8136,2.8136,2.8136,2.8136,2.8136,2.8136,2.8136,2.8136,2.8136,2.8136,2.8136,2.8136,2.8136,2.8136,2.8136,2.8136,2.8136,2.8136,2.8136,2.6758,2.4679,2.2428,1.9315,1.7071,1.5513,1.4646,1.4299,1.4299,1.4299,1.4299,1.4299,1.419,1.4116,3.4726,3.5529,3.6358,0.0,0.0,0.0,0.0,0.0,0.0,0.0,0.0,0.0,0.0,0.0,0.0,4.2418,4.1131,4.0444,4.183,4.0101,3.8906,3.9785,3.9473,3.9375,3.9844,3.9883,3.9883,3.9902,3.9902,3.9902,3.9883,3.9883,3.9668,3.9199,3.9648,3.9668,3.9199,3.9199,3.9434,3.9883,3.9414,3.9434,3.9883,3.9414,3.9453,3.9863,3.9394,3.9707,4.0355,3.8117,3.4962,3.1227,2.9118,2.8136,2.8136,2.8136,2.8136,2.8136,2.8136,2.8136,2.8136,2.8136,2.8136,2.8136,2.8136,2.8136,2.8136,2.8136,2.8136,2.8136,2.8136,2.8136,2.8136,2.8136,2.8136,2.8136,2.8136,2.8136,2.8136,2.8136,2.8136,2.8136,2.8136,2.8136,2.8136,2.8136,2.8136,2.8136,2.8136,2.8136,2.8136,2.8136,2.8136,2.8136,2.8136,2.8136,2.8136,2.8136,2.8136,2.7109,2.4861,2.0356,1.7938,1.7763,1.5513,1.4299,1.4299,1.4299,1.4299,1.4299,1.4299,1.4217,3.4726,3.5253,0.0,0.0,0.0,0.0,0.0,0.0,0.0,0.0,0.0,0.0,4.3991,0.0,0.0,4.335,4.2846,4.2346,4.2031,4.08,3.982,3.9445,3.9023,3.8926,3.9375,3.9414,3.9551,3.9883,3.9902,3.9746,3.9434,3.9414,3.9199,3.8769,3.918,3.9199,3.8769,3.9062,3.9121,3.8965,3.8828,3.8984,3.9394,3.9258,3.9121,3.8984,3.9141,3.9531,3.9794,3.655,3.4183,3.2618,2.8959,2.7655,2.7829,2.7829,2.7963,2.8136,2.8136,2.8136,2.8136,2.8136,2.8136,2.8136,2.8136,2.8136,2.8136,2.8136,2.8136,2.8136,2.8136,2.8136,2.8136,2.8136,2.8136,2.8136,2.8136,2.8136,2.8136,2.8136,2.8136,2.8136,2.8136,2.8136,2.8136,2.8136,2.8136,2.8136,2.8136,2.8136,2.8136,2.8136,2.8136,2.8136,2.8136,2.8136,2.8136,2.8136,2.8136,2.7109,2.4861,2.3298,2.1048,1.7929,1.7071,1.6034,1.4299,1.4299,1.4299,1.4299,1.4299,1.4278,3.4726,3.5278,0.0,0.0,0.0,0.0,0.0,0.0,0.0,0.0,0.0,4.5372,4.502,4.507,0.0,4.4622,4.4147,4.3461,4.2362,4.1283,3.9959,3.8688,3.8516,3.8535,3.8457,3.875,3.9004,3.9101,3.9121,3.9062,3.8965,3.8789,3.8652,3.8574,3.8828,3.8828,3.8574,3.8652,3.8652,3.8574,3.8398,3.8535,3.8945,3.8945,3.8809,3.8594,3.9023,3.9355,3.9329,3.5487,3.3776,3.3106,2.9015,2.7375,2.7522,2.7522,2.7642,2.7789,2.7789,2.7869,2.7963,2.7963,2.8043,2.8136,2.8136,2.8136,2.8136,2.8136,2.8136,2.8136,2.8136,2.8136,2.8136,2.8136,2.8136,2.8136,2.8136,2.8136,2.8136,2.8136,2.8136,2.8136,2.8136,2.8136,2.8136,2.8136,2.8136,2.8136,2.8136,2.8136,2.8136,2.8136,2.8136,2.8136,2.8136,2.8136,2.8136,2.8136,2.8136,2.7617,2.6066,2.5203,2.347,2.0529,1.9662,1.8453,1.708,1.708,1.708,1.708,1.6034,1.569,3.4776,0.0,0.0,3.7111,3.8191,0.0,4.1756,0.0,4.5547,4.605,0.0,4.5673,4.5573,4.5171,4.5196,4.6225,4.5329,4.4125,4.2944,4.1488,3.9847,3.7746,3.8132,3.8164,3.7422,3.8027,3.8301,3.7949,3.7891,3.8047,3.8437,3.8086,3.8047,3.8457,3.8457,3.8457,3.8457,3.8066,3.8066,3.8457,3.8066,3.8066,3.8457,3.8496,3.8516,3.8535,3.9004,3.918,3.8864,3.5243,3.3669,3.3166,2.9077,2.7364,2.7228,2.7228,2.7241,2.7268,2.7268,2.7442,2.7669,2.7696,2.7883,2.811,2.8136,2.8136,2.8136,2.8136,2.8136,2.8136,2.8136,2.8136,2.8136,2.8136,2.8136,2.8136,2.8136,2.8136,2.8136,2.8136,2.8136,2.8136,2.8136,2.8136,2.8136,2.8136,2.8136,2.8136,2.8136,2.8136,2.8136,2.8136,2.8136,2.8136,2.8136,2.8136,2.8136,2.8136,2.8136,2.8136,2.8136,2.6066,2.4861,2.4691,2.2611,2.1394,2.1221,2.1221,2.1221,2.1221,1.9141,1.7929,3.5253,3.5855,0.0,0.0,3.932,4.1153,4.2509,4.384,4.4844,4.497,4.6276,4.7129,4.6276,4.6401,4.6677,4.6928,4.6312,4.565,4.4771,4.2786,4.0995,3.955,3.8267,3.7637,3.7773,3.7656,3.7676,3.791,3.7617,3.748,3.7559,3.748,3.748,3.7578,3.7578,3.7578,3.7578,3.748,3.748,3.7578,3.748,3.748,3.7578,3.791,3.8066,3.8105,3.8867,3.9004,3.8584,3.6563,3.4536,3.243,2.997,2.8114,2.6921,2.6921,2.7068,2.7268,2.7268,2.7308,2.7402,2.7629,2.7749,2.7843,2.807,2.8136,2.8136,2.8136,2.8136,2.8136,2.8136,2.8136,2.8136,2.8136,2.8136,2.8136,2.8136,2.8136,2.8136,2.8136,2.8136,2.8136,2.8136,2.8136,2.8136,2.8136,2.8136,2.8136,2.8136,2.8136,2.8136,2.8136,2.8136,2.8136,2.8136,2.8136,2.8136,2.8136,2.8136,2.8136,2.8136,2.7799,2.6588,2.4691,2.4166,2.2955,2.1221,2.1221,2.1221,2.1221,2.0702,1.9488,3.5077,0.0,0.0,3.8467,0.0,0.0,4.2735,4.3639,4.4292,4.4568,4.5974,4.6878,4.6075,4.6376,4.6753,4.6753,4.6502,4.587,4.4594,4.3601,4.2441,4.0759,3.9301,3.8425,3.8223,3.7728,3.7305,3.7324,3.7129,3.709,3.7285,3.7109,3.709,3.7285,3.7305,3.7305,3.7305,3.709,3.709,3.7305,3.709,3.6992,3.7012,3.7441,3.7617,3.7656,3.8301,3.8457,3.8156,3.659,3.5096,3.37,3.0669,2.8773,2.8002,2.6919,2.6707,2.6841,2.6841,2.6934,2.7081,2.7228,2.7375,2.7522,2.7669,2.7816,2.7936,2.7936,2.803,2.8136,2.8136,2.8136,2.8136,2.8136,2.8136,2.8136,2.8136,2.8136,2.8136,2.8136,2.8136,2.8136,2.8136,2.8136,2.8136,2.8136,2.8136,2.8136,2.8136,2.8136,2.8136,2.8136,2.8136,2.8136,2.8136,2.8136,2.8136,2.8136,2.8136,2.8136,2.8136,2.8136,2.7617,2.6406,2.6418,2.5714,2.4496,2.4496,2.4496,2.4496,2.347,2.2267,3.4726,0.0,3.7563,3.9145,4.0375,0.0,4.2333,4.3137,4.3765,4.4116,4.5171,4.5874,4.5422,4.5723,4.605,4.615,4.6075,4.5569,4.435,4.4141,4.3482,4.1865,4.045,3.9479,3.8786,3.7702,3.6894,3.668,3.6523,3.6641,3.7051,3.6738,3.668,3.6953,3.7031,3.7051,3.6973,3.6699,3.6738,3.707,3.6719,3.6562,3.6562,3.6914,3.7109,3.7207,3.7637,3.7851,3.7806,3.6402,3.5685,3.5199,3.1646,2.9992,2.9138,2.7462,2.6689,2.6386,2.6386,2.6547,2.676,2.68,2.6987,2.7201,2.7255,2.7468,2.7682,2.7642,2.7869,2.8136,2.8083,2.811,2.8136,2.8136,2.8136,2.8136,2.8136,2.8136,2.8136,2.8136,2.8136,2.8136,2.8136,2.8136,2.8136,2.8136,2.8136,2.8136,2.8136,2.8136,2.8136,2.8136,2.8136,2.8136,2.8136,2.8136,2.8136,2.8136,2.8136,2.8136,2.8136,2.8136,2.8136,2.8136,2.8136,2.8136,2.8136,2.8136,2.8136,2.8136,2.6236,2.5008,0.0,0.0,3.7462,0.0,3.9798,4.0676,0.0,0.0,4.2961,0.0,4.374,4.4819,4.4744,4.4794,4.502,4.5522,4.5171,4.5078,4.591,4.4305,4.318,4.3286,4.0647,3.8891,3.9164,3.7038,3.5937,3.6621,3.5976,3.5742,3.6172,3.6133,3.5957,3.5664,3.5996,3.6016,3.5644,3.5957,3.6133,3.6191,3.6133,3.6113,3.6113,3.6172,3.6406,3.6777,3.7207,3.7598,3.791,3.7294,3.6393,3.5461,3.4528,3.2208,2.9449,2.9138,2.7919,2.6386,2.6386,2.6413,2.6493,2.6734,2.6854,2.6934,2.7188,2.7468,2.7642,2.7402,2.7722,2.8083,2.7829,2.7949,2.8136,2.8136,2.8136,2.8136,2.8136,2.8136,2.8136,2.8136,2.8136,2.8136,2.8136,2.8136,2.8136,2.8136,2.8136,2.8136,2.8136,2.8136,2.8136,2.8136,2.8136,2.8136,2.8136,2.8136,2.8136,2.8136,2.8136,2.8136,2.8136,2.8136,2.8136,2.8136,2.8136,2.8136,2.8136,2.8136,2.8136,2.8136,2.7799,2.6462,3.5403,3.6383,3.7462,0.0,3.9471,4.0149,4.045,0.0,4.2082,4.2133,4.2735,4.3438,4.4041,4.4418,4.4719,4.497,4.4794,4.4794,4.5296,4.4531,4.3958,4.4203,4.2093,4.0405,3.9866,3.7666,3.6294,3.6034,3.5371,3.5078,3.5273,3.5273,3.5195,3.5019,3.5176,3.5195,3.5,3.5195,3.541,3.5664,3.5664,3.5801,3.6016,3.6016,3.6133,3.6328,3.6758,3.7051,3.7226,3.7266,3.6932,3.6337,3.5102,3.3656,3.2326,3.1134,2.9592,2.8076,2.8076,2.7305,2.6413,2.6533,2.6587,2.66,2.6734,2.6974,2.7215,2.7255,2.7562,2.7896,2.7936,2.8043,2.8136,2.8136,2.8136,2.8136,2.8136,2.8136,2.8136,2.8136,2.8136,2.8136,2.8136,2.8136,2.8136,2.8136,2.8136,2.8136,2.8136,2.8136,2.8136,2.8136,2.8136,2.8136,2.8136,2.8136,2.8136,2.8136,2.8136,2.8136,2.8136,2.8136,2.8136,2.8136,2.8136,2.8136,2.8136,2.8136,2.8136,2.8136,2.8136,2.7472,0.0,0.0,3.7211,3.8191,3.8969,3.9597,0.0,0.0,4.1078,0.0,4.1856,4.2233,4.3212,4.384,4.4242,4.4392,4.4292,4.4292,4.4593,4.4493,4.4468,4.4593,4.3138,4.17,4.0819,3.8438,3.6614,3.595,3.5048,3.459,3.4687,3.4707,3.4648,3.4551,3.4648,3.4648,3.4531,3.4648,3.4883,3.5215,3.5332,3.5566,3.5859,3.5976,3.6016,3.6035,3.6367,3.6562,3.668,3.6894,3.7109,3.7144,3.5556,3.4883,3.4484,3.2998,3.1442,2.9931,2.9468,2.8302,2.7162,2.6544,2.6386,2.6386,2.6386,2.6587,2.6854,2.7001,2.7308,2.7629,2.7762,2.7869,2.7936,2.8016,2.803,2.8056,2.8123,2.8136,2.8136,2.8136,2.8136,2.8136,2.8136,2.8136,2.8136,2.8136,2.8136,2.8136,2.8136,2.8136,2.8136,2.8136,2.8136,2.8136,2.8136,2.8136,2.8136,2.8136,2.8136,2.8136,2.8136,2.8136,2.811,2.803,2.803,2.803,2.803,2.803,2.803,2.803,2.7949,2.7802,0.0,3.5981,0.0,3.7136,3.809,0.0,0.0,0.0,0.0,4.0501,4.1003,4.1555,4.2133,4.2685,4.3237,4.3765,4.3413,4.3438,4.4468,4.4166,4.4041,4.4568,4.3138,4.2065,4.1969,3.8684,3.6645,3.6978,3.522,3.4277,3.4668,3.4707,3.4512,3.4121,3.4492,3.4512,3.4101,3.4492,3.4707,3.4746,3.5176,3.541,3.543,3.584,3.6016,3.6016,3.6035,3.6289,3.6641,3.625,3.6562,3.7266,3.6716,3.5633,3.4216,3.4072,3.299,3.1377,2.9443,2.9041,2.8983,2.7004,2.6386,2.6386,2.6386,2.6587,2.6774,2.6507,2.6841,2.7228,2.6961,2.7094,2.7375,2.7655,2.7722,2.7802,2.8083,2.8136,2.8136,2.8136,2.8136,2.8136,2.8136,2.8136,2.8136,2.8136,2.8136,2.8136,2.8136,2.8136,2.8136,2.8136,2.8136,2.8136,2.8136,2.8136,2.8136,2.8136,2.8136,2.8136,2.8136,2.8136,2.8003,2.7722,2.7722,2.7722,2.7722,2.7722,2.7722,2.7709,2.7442,2.7308,0.0,0.0,0.0,3.7036,3.7487,3.7965,3.8693,3.9019,3.932,3.9873,4.0425,4.0978,4.153,4.2082,4.2635,4.3187,4.3112,4.3112,4.3514,4.3388,4.3338,4.3539,4.2786,4.1988,4.1567,3.98,3.8118,3.6855,3.5727,3.481,3.3867,3.3633,3.3535,3.3652,3.3281,3.3125,3.3262,3.3672,3.4023,3.4297,3.4473,3.4687,3.4961,3.5098,3.5176,3.5195,3.5488,3.5859,3.623,3.6094,3.6191,3.6465,3.6309,3.607,3.5857,3.5857,3.4807,3.3231,3.2481,3.0798,2.8828,2.8226,2.7309,2.6386,2.6386,2.6466,2.656,2.664,2.6814,2.7001,2.7081,2.7188,2.7295,2.7402,2.7562,2.7722,2.7829,2.8003,2.8136,2.8136,2.8136,2.8136,2.8136,2.8136,2.8136,2.8136,2.8136,2.8136,2.8136,2.8136,2.8136,2.8136,2.8136,2.8136,2.8136,2.8136,2.8136,2.8136,2.8136,2.8136,2.8136,2.8136,2.8003,2.7709,2.7696,2.7602,2.7415,2.7415,2.7415,2.7415,2.7308,2.7161,3.4223,0.0,0.0,0.0,0.0,3.7387,3.814,0.0,3.8467,3.9019,3.9572,4.0199,4.0927,4.1354,4.1781,4.2333,4.2434,4.2434,4.2434,4.2434,4.2434,4.2434,4.2108,4.1693,4.1233,4.0344,3.9105,3.7462,3.6417,3.519,3.3837,3.3099,3.2851,3.2988,3.2461,3.2305,3.2578,3.3008,3.3359,3.3652,3.3926,3.4219,3.4492,3.4629,3.4707,3.4726,3.5019,3.541,3.582,3.5957,3.6016,3.6016,3.6016,3.6191,3.6445,3.6445,3.5845,3.5037,3.4287,3.2492,3.0435,2.9094,2.7899,2.7028,2.637,2.6239,2.6306,2.66,2.668,2.672,2.6921,2.7041,2.7121,2.7121,2.7335,2.7549,2.7549,2.7869,2.8136,2.8136,2.8136,2.8136,2.8136,2.8136,2.8136,2.8136,2.8136,2.8136,2.8136,2.8136,2.8136,2.8136,2.8136,2.8136,2.8136,2.8136,2.8136,2.8136,2.8136,2.8136,2.8136,2.8136,2.8003,2.7709,2.7602,2.7415,2.7121,2.7121,2.7121,2.7108,2.7014,2.6867,0.0,0.0,0.0,0.0,0.0,0.0,3.7186,0.0,3.7337,3.7889,3.8467,3.917,4.0249,4.045,4.0651,4.1178,4.1304,4.1329,4.1329,4.1329,4.1329,4.1329,4.1329,4.1329,4.1329,4.0415,3.9546,3.8935,3.7008,3.5486,3.4505,3.3477,3.2701,3.2148,3.2148,3.2168,3.2148,3.2559,3.2773,3.2793,3.3613,3.4023,3.4043,3.4453,3.4648,3.4668,3.4668,3.4941,3.5391,3.582,3.5996,3.5996,3.6016,3.6016,3.6016,3.6016,3.6289,3.6363,3.4312,3.4,3.3603,2.979,2.8477,2.8251,2.6611,2.6101,2.6168,2.6293,2.6386,2.6386,2.6386,2.66,2.6814,2.6814,2.7041,2.7255,2.7255,2.7709,2.8123,2.8123,2.8123,2.8123,2.8123,2.8123,2.8123,2.8123,2.8136,2.8136,2.8136,2.8136,2.8136,2.8136,2.8136,2.8136,2.8136,2.8136,2.8136,2.8136,2.8136,2.8136,2.8136,2.8136,2.8003,2.7696,2.7415,2.7108,2.6814,2.6814,2.6814,2.68,2.652,2.6386,3.4675,0.0,0.0,0.0,0.0,0.0,0.0,0.0,3.7337,3.7889,3.814,3.8341,3.8642,3.9044,3.9371,3.9521,4.0551,4.1329,4.1329,4.1329,4.1329,4.1329,4.0978,4.0902,4.1304,4.0674,3.9927,0.0,3.8338,3.7473,3.6077,3.4686,3.3133,3.1269,3.1836,3.2012,3.1699,3.2129,3.2344,3.2344,3.2578,3.2851,3.3144,3.3262,3.3476,3.3789,3.4101,3.4316,3.4492,3.5254,3.5566,3.5605,3.5898,3.6016,3.6016,3.6016,3.6094,3.6054,3.5486,3.4603,3.3625,3.2463,3.133,3.0103,2.8295,2.7879,2.7788,2.6507,2.6226,2.6386,2.6386,2.6453,2.6507,2.6507,2.6734,2.6947,2.6947,2.7241,2.7509,2.7509,2.7509,2.7509,2.7509,2.7682,2.7816,2.7816,2.8003,2.8136,2.8136,2.8136,2.8136,2.8136,2.8136,2.8136,2.8136,2.8136,2.8136,2.8136,2.8136,2.8136,2.8136,2.8136,2.7909,2.7402,2.7308,2.7014,2.6507,2.6507,2.6507,2.6507,2.6426,2.6386,3.5127,3.5479,3.5931,3.6157,0.0,0.0,3.6408,3.6508,3.6533,0.0,3.681,3.7061,3.7287,3.7789,3.8165,3.8165,3.9371,4.04,4.0626,4.0651,4.0651,4.0651,4.0375,4.03,4.0626,4.0576,4.0103,3.9272,3.8981,3.8125,3.6453,3.4769,3.3182,3.1903,3.1702,3.1523,3.1269,3.168,3.1894,3.1894,3.209,3.2305,3.2539,3.2539,3.2754,3.3184,3.3437,3.3633,3.3848,3.4551,3.4941,3.5137,3.5371,3.5469,3.5488,3.5684,3.5762,3.5781,3.5957,3.533,3.4511,3.3653,3.279,3.1693,2.9981,2.8984,2.8295,2.7239,2.6594,2.6239,2.636,2.6386,2.6386,2.6386,2.652,2.664,2.664,2.6774,2.6974,2.7215,2.7268,2.7268,2.7268,2.7402,2.7522,2.7522,2.7669,2.7776,2.7776,2.7776,2.7776,2.7776,2.7776,2.7776,2.7776,2.7776,2.7776,2.7776,2.7776,2.7776,2.7776,2.7776,2.7615,2.7268,2.7148,2.6854,2.6386,2.6386,2.6386,2.6386,2.6386,2.6386,3.5906,3.6031,3.6408,3.696,3.6684,0.0,3.573,3.5629,3.5504,0.0,3.5378,3.5881,3.6358,3.696,3.7362,3.7362,3.8216,3.9044,3.9546,3.9647,3.9697,3.9697,3.9697,3.9697,3.9697,4.0149,4.0224,3.9722,3.9223,3.8067,3.596,3.4285,3.3191,3.2851,3.1536,3.0898,3.0898,3.1269,3.1445,3.1445,3.1836,3.2051,3.209,3.209,3.2324,3.2734,3.2734,3.293,3.332,3.375,3.4199,3.4629,3.4687,3.4707,3.4746,3.5156,3.5351,3.5449,3.582,3.5976,3.5743,3.402,3.3448,3.3224,3.1565,2.9824,2.8486,2.8387,2.7197,2.5972,2.6266,2.6346,2.6346,2.6386,2.6386,2.6386,2.6386,2.6386,2.6547,2.7068,2.7161,2.7161,2.7161,2.7201,2.7215,2.7215,2.7241,2.7268,2.7268,2.7268,2.7268,2.7268,2.7268,2.7268,2.7268,2.7268,2.7268,2.7268,2.7268,2.7268,2.7268,2.7268,2.7255,2.7215,2.6921,2.664,2.6386,2.6386,2.6386,2.6386,2.6386,2.6386,3.7186,3.6634,3.583,3.6383,3.6107,0.0,3.6132,3.6207,3.6307,0.0,3.6784,3.6885,3.701,3.7864,3.8542,3.8542,3.8718,3.8919,3.9019,3.9421,3.9697,3.9697,3.9697,3.9697,3.9697,3.9798,3.9798,3.9697,3.9561,3.8297,3.5556,3.5113,3.3754,3.1441,3.0995,3.0898,3.0898,3.0976,3.1016,3.1016,3.1094,3.1309,3.1641,3.1641,3.1875,3.2285,3.2285,3.2344,3.2441,3.2871,3.3496,3.4219,3.457,3.4707,3.4707,3.4805,3.5078,3.541,3.5488,3.5742,3.5879,3.5587,3.5451,3.5177,3.326,3.265,3.1963,2.9118,2.7041,2.5665,2.5959,2.6039,2.6106,2.6333,2.6386,2.6386,2.6386,2.6386,2.6426,2.6533,2.656,2.656,2.656,2.676,2.6907,2.6907,2.7108,2.7268,2.7268,2.7268,2.7268,2.7268,2.7268,2.7268,2.7268,2.7268,2.7268,2.7268,2.7268,2.7268,2.7268,2.7268,2.7148,2.6907,2.6627,2.6453,2.6386,2.6386,2.6386,2.6386,2.6386,2.6386,3.7362,3.6784,3.6006,3.6282,3.6157,0.0,0.0,3.5956,3.6031,3.6307,3.6157,3.6031,3.6307,3.6835,3.7287,3.7563,3.7613,3.7914,3.8743,3.8868,3.8843,3.8843,3.8843,3.8843,3.8843,3.912,3.927,3.927,3.9546,3.8926,3.7226,3.5916,3.4626,3.3098,3.1672,3.0898,3.0898,3.0898,3.0898,3.0898,3.0898,3.0996,3.1211,3.1211,3.1445,3.1836,3.1836,3.1973,3.2187,3.2402,3.2734,3.3184,3.3809,3.4062,3.4082,3.4316,3.4531,3.4766,3.498,3.5176,3.5391,3.5625,3.5703,3.5607,3.4808,3.4029,3.2826,3.0308,2.9072,2.8236,2.752,2.7579,2.7423,2.6662,2.6386,2.6386,2.6386,2.6386,2.6386,2.6386,2.6386,2.6386,2.6386,2.6507,2.66,2.66,2.6734,2.6827,2.6827,2.6827,2.6827,2.6827,2.6827,2.6827,2.6827,2.6827,2.6827,2.6827,2.6827,2.6827,2.6827,2.6827,2.676,2.6613,2.6466,2.6386,2.6386,2.6386,2.6386,2.6386,2.6386,2.6386,3.7588,3.7111,3.6533,3.6659,3.6508,3.6232,0.0,0.0,0.0,3.5705,0.0,0.0,3.578,0.0,0.0,3.6609,0.0,0.0,0.0,3.8291,0.0,3.8442,3.8015,3.7864,3.8291,3.8743,3.8944,3.8718,3.932,3.9343,3.8564,3.6673,3.5418,3.4847,3.255,3.1228,3.0898,3.0898,3.0898,3.0898,3.0898,3.0898,3.0898,3.0898,3.1074,3.1406,3.1406,3.1601,3.1934,3.2012,3.2051,3.2129,3.2969,3.3301,3.3359,3.3789,3.4043,3.4238,3.459,3.4766,3.4902,3.5371,3.5508,3.5586,3.5918,3.4727,3.2945,3.1674,3.1243,3.0828,2.9575,2.9412,2.9333,2.7721,2.6983,2.6854,2.6908,2.6608,2.6319,2.6373,2.6386,2.6386,2.6386,2.6386,2.6386,2.6386,2.6386,2.6386,2.6386,2.6386,2.6386,2.6386,2.6386,2.6386,2.6386,2.6386,2.6386,2.6386,2.6386,2.6386,2.6386,2.6386,2.6386,2.6386,2.6386,2.6386,2.6386,2.6386,2.6386,2.6386,2.6386,2.6386,3.8994,3.8266,3.7211,3.7688,3.7086,3.6332,3.6282,0.0,3.6282,3.6282,0.0,3.691,3.6985,0.0,0.0,0.0,0.0,0.0,3.809,3.804,3.8567,4.0049,3.8065,3.7337,3.932,3.9572,3.9195,3.8191,3.9094,3.8906,3.7052,3.6635,3.5573,3.3395,3.2964,3.2207,3.0898,3.0898,3.0898,3.0898,3.0898,3.0898,3.0898,3.0898,3.0918,3.0957,3.0957,3.0996,3.1074,3.1445,3.1582,3.168,3.2539,3.2871,3.291,3.334,3.3984,3.4629,3.4687,3.4961,3.5391,3.5801,3.5957,3.5957,3.5996,3.4727,3.317,3.2945,3.1683,3.0508,3.0598,3.0583,3.0681,3.0695,2.9317,2.8232,2.8512,2.7214,2.6079,2.6333,2.6386,2.6386,2.6386,2.6386,2.6386,2.6386,2.6386,2.6386,2.6386,2.6386,2.6386,2.6386,2.6386,2.6386,2.6386,2.6386,2.6386,2.6386,2.6386,2.6386,2.6386,2.6386,2.6386,2.6386,2.6386,2.6386,2.6386,2.6386,2.6386,2.6386,2.6386,2.6386,3.9121,3.8685,3.8049,3.7657,3.7483,3.7243,3.6546,3.6358,3.6458,3.6784,0.0,0.0,0.0,0.0,0.0,0.0,3.6985,3.691,0.0,0.0,3.6835,3.8818,3.804,3.7688,3.8617,3.8718,3.8391,3.7588,3.8567,3.8616,3.7071,3.6795,3.5816,3.3967,3.3359,3.2416,3.0898,3.0898,3.0898,3.0898,3.0898,3.0898,3.0898,3.0898,3.0898,3.0898,3.0898,3.0898,3.0898,3.1074,3.1152,3.1211,3.1816,3.2363,3.2851,3.3262,3.3652,3.3965,3.3965,3.4082,3.4316,3.4746,3.5234,3.5664,3.5664,3.5085,3.458,3.4808,3.4482,3.383,3.2701,3.2607,3.2526,3.1496,3.0663,2.9837,2.8792,2.7944,2.7143,2.6391,2.6132,2.6186,2.636,2.6386,2.6386,2.6386,2.6386,2.6386,2.6386,2.6386,2.6386,2.6386,2.6386,2.6386,2.6386,2.6386,2.6386,2.6386,2.6386,2.6386,2.6386,2.6386,2.6386,2.6386,2.6386,2.6386,2.6386,2.6386,2.6386,2.6386,2.6386,2.6386,3.9043,3.8974,3.8867,3.7678,3.7629,3.7609,3.6666,3.6483,3.6659,3.691,3.6759,0.0,0.0,0.0,3.6483,3.6885,0.0,3.6408,3.7613,3.6533,3.6332,3.8241,3.8467,3.8291,3.7839,3.8191,3.8115,3.7236,3.8241,3.8366,3.7236,3.7142,3.6422,3.5062,3.4582,3.3417,3.1556,3.1556,3.1325,3.0898,3.0898,3.0898,3.0898,3.0898,3.0898,3.0898,3.0898,3.0898,3.0898,3.0898,3.0898,3.0937,3.1348,3.1894,3.2519,3.3047,3.3398,3.3594,3.3594,3.3672,3.3809,3.4004,3.459,3.5195,3.5195,3.5293,3.5449,3.5762,3.6152,3.6208,3.4603,3.4526,3.4303,3.2837,3.2117,3.1426,3.0076,2.9369,2.8731,2.7559,2.7478,2.7255,2.7028,2.6594,2.6386,2.6386,2.6386,2.6386,2.6386,2.6386,2.6386,2.6386,2.6386,2.6386,2.6386,2.6386,2.6386,2.6386,2.6386,2.6386,2.6386,2.6386,2.6386,2.6386,2.6386,2.6386,2.6386,2.6386,2.6386,2.6386,2.6386,2.6386,3.8941,3.9282,3.9468,3.826,3.7563,3.7107,3.6483,3.6784,3.701,3.6483,3.6784,3.701,3.6483,3.6358,3.6358,3.6383,3.681,0.0,0.0,3.7613,3.8341,3.9496,3.9647,3.8994,3.7362,3.8693,3.8969,3.7312,3.8241,3.8366,3.7236,3.7713,3.754,3.6668,3.7086,3.5922,3.3077,3.3077,3.2301,3.0898,3.0898,3.0898,3.0898,3.0898,3.0898,3.0898,3.0898,3.0898,3.0898,3.0898,3.0898,3.0937,3.1348,3.1543,3.166,3.25,3.334,3.4043,3.4043,3.4316,3.459,3.4199,3.4375,3.4726,3.4726,3.5039,3.5391,3.541,3.5723,3.6035,3.5899,3.5918,3.5918,3.5918,3.449,3.3175,3.3393,3.2039,3.0841,3.104,3.0974,3.0383,2.8657,2.7228,2.6386,2.6386,2.6386,2.6386,2.6386,2.6386,2.6386,2.6386,2.6386,2.6386,2.6386,2.6386,2.6386,2.6386,2.6386,2.6386,2.6386,2.6386,2.6386,2.6386,2.6386,2.6386,2.6386,2.6386,2.6386,2.6386,2.6386,2.6386,3.8561,3.8717,3.9186,3.9294,3.848,3.7831,3.8106,3.7398,3.6584,3.6408,3.6508,3.6584,3.6383,3.6358,3.6358,3.6358,3.6508,3.6634,0.0,3.7111,3.7613,3.799,3.8366,3.8492,3.8316,3.814,3.7638,3.6709,3.6985,3.6885,3.6132,3.696,3.6924,3.567,3.6502,3.5978,3.4011,3.3359,3.2851,3.2301,3.1325,3.0898,3.0898,3.0898,3.0898,3.0898,3.0898,3.0898,3.0898,3.0898,3.0898,3.0898,3.1055,3.1269,3.1621,3.248,3.2988,3.3262,3.3535,3.3926,3.4219,3.3789,3.3926,3.4336,3.4609,3.4805,3.5059,3.5644,3.5918,3.6016,3.6016,3.6016,3.6016,3.6016,3.5451,3.4765,3.3611,3.279,3.2049,3.1115,3.0891,3.0827,3.0335,2.9828,2.8791,2.6262,2.5972,2.6106,2.6106,2.6266,2.6386,2.6386,2.6386,2.6386,2.6386,2.6386,2.6386,2.6386,2.6386,2.6386,2.6386,2.6386,2.6386,2.6386,2.6386,2.6386,2.6386,2.6386,2.6386,2.6386,2.6386,2.6386,3.8028,3.8255,3.8871,3.8886,3.835,3.7883,3.8366,3.768,3.6835,3.6458,3.6684,3.6709,3.5931,3.6107,3.6307,3.6107,3.6232,3.6307,0.0,3.6533,3.6885,3.691,3.7739,3.8291,3.8266,3.7965,3.7312,3.6157,3.6257,3.6132,3.5579,3.6408,3.6574,3.5842,3.6885,3.6796,3.5276,3.4801,3.4181,3.3077,3.2092,3.1441,3.0898,3.0898,3.0898,3.0898,3.0898,3.0898,3.0898,3.0898,3.0898,3.0898,3.0898,3.1055,3.1387,3.209,3.2539,3.2851,3.3281,3.3613,3.3789,3.3516,3.3613,3.3887,3.416,3.4453,3.4844,3.5586,3.5898,3.6055,3.6211,3.6133,3.6016,3.6016,3.6016,3.5724,3.4452,3.4176,3.3955,3.2914,3.2685,3.2471,3.1981,3.1888,3.0665,2.7107,2.6808,2.6708,2.6114,2.6213,2.6386,2.6386,2.6386,2.6346,2.6239,2.6333,2.6346,2.6239,2.6333,2.6386,2.6386,2.6386,2.6533,2.6854,2.6547,2.6547,2.6854,2.6547,2.6386,2.6386,2.6386,2.6386]},{"header":{"parameterUnit":"m.s-1","parameterCategory":1,"la1":30.6,"la2":29.2853,"lo1":-89.7004,"lo2":-87.6739,"dy":0.0162,"dx":0.0183,"nx":112,"ny":82,"refTime":"2023-10-11T12:00:00:Z","depth":0,"parameterNumber":3,"parameterNumberName":"V-component_of_WINDS"},"data":[0.0,0.0,0.0,0.0,0.0,0.0,0.0,0.0,0.0,0.0,0.0,0.0,0.0,0.0,0.0,0.0,0.0,0.0,0.0,0.0,0.0,0.0,0.0,0.0,0.0,0.0,0.0,0.0,0.0,0.0,0.0,0.0,0.0,0.0,0.0,0.0,0.0,0.0,0.0,0.0,0.0,0.0,0.0,0.0,0.0,0.0,0.0,0.0,0.0,0.0,0.0,0.0,0.0,0.0,0.0,0.0,0.0,0.0,0.0,0.0,0.0,0.0,0.0,0.0,0.0,0.0,0.0,0.0,0.0,0.0,0.0,0.0,0.0,0.0,0.0,0.0,0.0,0.0,0.0,0.0,0.0,0.0,0.0,0.0,0.0,0.0,0.0,0.0,0.0,0.0,-4.2509,-4.5793,-5.0974,-5.4794,-5.6285,-5.5831,-5.3566,-4.9125,0.0,0.0,0.0,0.0,0.0,0.0,0.0,0.0,0.0,0.0,0.0,0.0,0.0,0.0,0.0,0.0,0.0,0.0,0.0,0.0,0.0,0.0,0.0,0.0,0.0,0.0,0.0,0.0,0.0,0.0,0.0,0.0,0.0,0.0,0.0,0.0,0.0,0.0,0.0,0.0,0.0,0.0,0.0,0.0,0.0,0.0,0.0,0.0,0.0,0.0,0.0,0.0,0.0,0.0,0.0,0.0,0.0,0.0,0.0,0.0,0.0,0.0,0.0,0.0,0.0,0.0,0.0,0.0,0.0,0.0,0.0,0.0,0.0,0.0,0.0,0.0,0.0,0.0,0.0,0.0,0.0,0.0,0.0,0.0,0.0,0.0,0.0,0.0,0.0,0.0,0.0,0.0,0.0,0.0,0.0,0.0,0.0,0.0,0.0,0.0,0.0,0.0,0.0,0.0,-4.2968,-4.9365,-5.3184,-5.5589,-5.609,-5.3869,-5.1111,-4.8281,0.0,0.0,0.0,0.0,0.0,0.0,0.0,0.0,0.0,0.0,0.0,0.0,0.0,0.0,0.0,0.0,0.0,0.0,0.0,0.0,0.0,0.0,0.0,0.0,0.0,0.0,0.0,0.0,0.0,0.0,0.0,0.0,0.0,0.0,0.0,0.0,0.0,0.0,0.0,0.0,0.0,0.0,0.0,0.0,0.0,0.0,0.0,0.0,0.0,0.0,0.0,0.0,0.0,0.0,0.0,0.0,0.0,0.0,0.0,0.0,0.0,0.0,0.0,0.0,0.0,0.0,0.0,0.0,0.0,0.0,0.0,0.0,0.0,0.0,0.0,0.0,0.0,0.0,0.0,0.0,0.0,0.0,0.0,0.0,0.0,0.0,0.0,0.0,0.0,0.0,0.0,0.0,0.0,0.0,0.0,0.0,0.0,0.0,0.0,0.0,0.0,0.0,0.0,-4.2904,-4.5959,-5.119,-5.3905,-5.5422,-5.5489,-5.3374,-5.0995,-4.8619,-4.6989,0.0,0.0,0.0,0.0,0.0,0.0,0.0,0.0,0.0,0.0,0.0,0.0,0.0,0.0,0.0,0.0,0.0,0.0,0.0,0.0,0.0,0.0,0.0,0.0,0.0,0.0,0.0,0.0,0.0,0.0,0.0,0.0,0.0,0.0,0.0,0.0,0.0,0.0,0.0,0.0,0.0,0.0,0.0,0.0,0.0,0.0,0.0,0.0,0.0,0.0,0.0,0.0,0.0,0.0,0.0,0.0,0.0,0.0,0.0,0.0,0.0,0.0,0.0,0.0,0.0,0.0,0.0,0.0,0.0,0.0,0.0,0.0,0.0,0.0,0.0,0.0,0.0,0.0,0.0,0.0,0.0,0.0,0.0,0.0,0.0,0.0,0.0,0.0,0.0,0.0,0.0,0.0,0.0,0.0,0.0,0.0,0.0,0.0,0.0,0.0,0.0,0.0,-4.5845,-4.8783,-5.2248,-5.423,-5.5156,-5.499,-5.3209,-5.1116,-4.8883,-4.594,0.0,0.0,0.0,0.0,0.0,0.0,0.0,0.0,0.0,0.0,0.0,0.0,0.0,0.0,0.0,0.0,0.0,0.0,0.0,0.0,0.0,0.0,0.0,0.0,0.0,0.0,0.0,0.0,0.0,0.0,0.0,0.0,0.0,0.0,0.0,0.0,0.0,0.0,0.0,0.0,0.0,0.0,0.0,0.0,0.0,0.0,0.0,0.0,0.0,0.0,0.0,0.0,0.0,0.0,0.0,0.0,0.0,0.0,0.0,0.0,0.0,0.0,0.0,0.0,0.0,0.0,0.0,0.0,0.0,0.0,0.0,0.0,0.0,0.0,0.0,0.0,0.0,0.0,0.0,0.0,0.0,0.0,0.0,0.0,0.0,0.0,0.0,0.0,0.0,0.0,0.0,0.0,0.0,0.0,0.0,0.0,0.0,0.0,0.0,0.0,0.0,0.0,-4.633,-4.9776,-5.2671,-5.4606,-5.5339,-5.4734,-5.2538,-5.0338,-4.8139,-4.5162,0.0,0.0,0.0,0.0,0.0,0.0,0.0,0.0,0.0,0.0,0.0,0.0,0.0,0.0,0.0,0.0,0.0,0.0,0.0,0.0,0.0,0.0,0.0,0.0,0.0,0.0,0.0,0.0,0.0,0.0,0.0,0.0,0.0,0.0,0.0,0.0,0.0,0.0,0.0,0.0,0.0,0.0,0.0,0.0,0.0,0.0,0.0,0.0,0.0,0.0,0.0,0.0,0.0,0.0,0.0,0.0,0.0,0.0,0.0,0.0,0.0,0.0,0.0,0.0,0.0,0.0,0.0,0.0,0.0,0.0,0.0,0.0,0.0,0.0,0.0,0.0,0.0,0.0,0.0,0.0,0.0,0.0,0.0,0.0,0.0,0.0,0.0,0.0,0.0,0.0,0.0,0.0,0.0,0.0,0.0,0.0,0.0,0.0,0.0,0.0,0.0,0.0,-4.6776,-5.0123,-5.364,-5.4595,-5.4735,-5.3991,-5.1826,-4.956,-4.7361,0.0,0.0,0.0,0.0,0.0,0.0,0.0,0.0,0.0,0.0,0.0,0.0,0.0,0.0,0.0,0.0,0.0,0.0,0.0,0.0,0.0,0.0,0.0,0.0,0.0,0.0,0.0,0.0,0.0,0.0,0.0,0.0,0.0,0.0,0.0,0.0,0.0,0.0,0.0,0.0,0.0,0.0,0.0,0.0,0.0,0.0,0.0,0.0,0.0,0.0,0.0,0.0,0.0,0.0,0.0,0.0,0.0,0.0,0.0,0.0,0.0,0.0,0.0,0.0,0.0,0.0,0.0,0.0,0.0,0.0,0.0,0.0,0.0,0.0,0.0,0.0,0.0,0.0,0.0,0.0,0.0,0.0,0.0,0.0,0.0,0.0,0.0,0.0,0.0,0.0,0.0,0.0,0.0,0.0,0.0,0.0,0.0,0.0,0.0,0.0,0.0,0.0,-4.4073,-4.7046,-5.0259,-5.3855,-5.4262,-5.3923,-5.3179,-5.1048,-4.9018,-4.7259,0.0,0.0,0.0,0.0,0.0,0.0,0.0,0.0,0.0,0.0,0.0,0.0,0.0,0.0,0.0,0.0,0.0,0.0,0.0,0.0,0.0,0.0,0.0,0.0,0.0,0.0,0.0,0.0,0.0,0.0,0.0,0.0,0.0,0.0,0.0,0.0,0.0,0.0,0.0,0.0,0.0,0.0,0.0,0.0,0.0,0.0,0.0,0.0,0.0,0.0,0.0,0.0,0.0,0.0,0.0,0.0,0.0,0.0,0.0,0.0,0.0,0.0,0.0,0.0,0.0,0.0,0.0,0.0,0.0,0.0,0.0,0.0,0.0,0.0,0.0,0.0,0.0,0.0,0.0,0.0,0.0,0.0,0.0,0.0,0.0,0.0,0.0,0.0,0.0,0.0,0.0,0.0,0.0,0.0,0.0,0.0,0.0,0.0,0.0,0.0,0.0,0.0,-4.4138,-4.7101,-5.0168,-5.3179,-5.3518,-5.3179,-5.2367,-5.027,-4.868,0.0,0.0,0.0,0.0,0.0,0.0,0.0,0.0,0.0,0.0,0.0,0.0,0.0,0.0,0.0,0.0,0.0,0.0,0.0,0.0,0.0,0.0,0.0,0.0,0.0,0.0,0.0,0.0,0.0,0.0,0.0,0.0,0.0,0.0,0.0,0.0,0.0,0.0,0.0,0.0,0.0,0.0,0.0,0.0,0.0,0.0,0.0,0.0,0.0,0.0,0.0,0.0,0.0,0.0,0.0,0.0,0.0,0.0,0.0,0.0,0.0,0.0,0.0,0.0,0.0,0.0,0.0,0.0,0.0,0.0,0.0,0.0,0.0,0.0,0.0,0.0,0.0,0.0,0.0,0.0,0.0,0.0,0.0,0.0,0.0,0.0,0.0,0.0,0.0,0.0,0.0,0.0,0.0,0.0,0.0,0.0,0.0,0.0,0.0,0.0,0.0,0.0,0.0,-4.4784,-4.745,-5.0168,-5.3179,-5.3518,-5.2976,-5.1657,-4.9965,-4.824,-4.6481,0.0,0.0,0.0,0.0,0.0,0.0,0.0,0.0,0.0,0.0,0.0,0.0,0.0,0.0,0.0,0.0,0.0,0.0,0.0,0.0,0.0,0.0,0.0,0.0,0.0,0.0,0.0,0.0,0.0,0.0,0.0,0.0,0.0,0.0,0.0,0.0,0.0,0.0,0.0,0.0,0.0,0.0,0.0,0.0,0.0,0.0,0.0,0.0,0.0,0.0,0.0,0.0,0.0,0.0,0.0,0.0,0.0,0.0,0.0,0.0,0.0,0.0,0.0,0.0,0.0,0.0,0.0,0.0,0.0,0.0,0.0,0.0,0.0,0.0,0.0,0.0,0.0,0.0,0.0,0.0,0.0,0.0,0.0,0.0,0.0,0.0,0.0,0.0,0.0,0.0,0.0,0.0,0.0,0.0,0.0,0.0,0.0,0.0,0.0,0.0,0.0,0.0,-4.5193,-4.7608,-5.0033,-5.2739,-5.3315,-5.301,-5.1758,-5.0304,-4.8612,-4.6718,0.0,0.0,0.0,0.0,0.0,0.0,0.0,0.0,0.0,0.0,0.0,0.0,0.0,0.0,0.0,0.0,0.0,0.0,0.0,0.0,0.0,0.0,0.0,0.0,0.0,0.0,0.0,0.0,0.0,0.0,0.0,0.0,0.0,0.0,0.0,0.0,0.0,0.0,0.0,0.0,0.0,0.0,0.0,0.0,0.0,0.0,0.0,0.0,0.0,0.0,0.0,0.0,0.0,0.0,0.0,0.0,0.0,0.0,0.0,0.0,0.0,0.0,0.0,0.0,0.0,0.0,0.0,0.0,0.0,0.0,0.0,0.0,0.0,0.0,0.0,0.0,0.0,0.0,0.0,0.0,0.0,0.0,0.0,0.0,0.0,0.0,0.0,0.0,0.0,0.0,0.0,0.0,0.0,0.0,0.0,0.0,0.0,0.0,0.0,0.0,0.0,0.0,-4.5317,-4.767,-4.9864,-5.2063,-5.301,-5.3179,-5.2367,-5.0947,-4.9492,-4.8105,0.0,0.0,0.0,0.0,0.0,0.0,0.0,0.0,0.0,0.0,0.0,0.0,0.0,0.0,0.0,0.0,0.0,0.0,0.0,0.0,0.0,0.0,0.0,0.0,0.0,0.0,0.0,0.0,0.0,0.0,0.0,0.0,0.0,0.0,0.0,0.0,0.0,0.0,0.0,0.0,0.0,0.0,0.0,0.0,0.0,0.0,0.0,0.0,0.0,0.0,0.0,0.0,0.0,0.0,0.0,0.0,0.0,0.0,0.0,0.0,-4.0576,0.0,0.0,0.0,0.0,0.0,0.0,0.0,0.0,0.0,0.0,0.0,0.0,0.0,0.0,0.0,0.0,0.0,0.0,0.0,0.0,0.0,0.0,0.0,0.0,0.0,0.0,0.0,0.0,0.0,0.0,0.0,0.0,0.0,0.0,0.0,0.0,0.0,0.0,0.0,0.0,0.0,-4.6051,-4.801,-4.9864,-5.2063,-5.301,-5.3179,-5.2367,-5.0947,-4.9729,-4.8815,-4.6684,0.0,0.0,0.0,0.0,0.0,0.0,0.0,0.0,0.0,0.0,0.0,0.0,0.0,0.0,0.0,0.0,0.0,0.0,0.0,0.0,0.0,0.0,0.0,0.0,0.0,0.0,0.0,0.0,0.0,0.0,0.0,0.0,0.0,0.0,0.0,0.0,0.0,0.0,0.0,0.0,0.0,0.0,0.0,0.0,0.0,0.0,0.0,0.0,0.0,0.0,0.0,0.0,0.0,0.0,0.0,0.0,0.0,0.0,0.0,0.0,-4.1833,0.0,0.0,0.0,0.0,0.0,0.0,0.0,0.0,0.0,0.0,0.0,0.0,0.0,0.0,0.0,0.0,0.0,0.0,0.0,0.0,0.0,0.0,0.0,0.0,0.0,0.0,0.0,0.0,0.0,0.0,0.0,0.0,0.0,0.0,0.0,0.0,0.0,0.0,0.0,0.0,-4.6389,-4.8071,-4.9729,-5.1589,-5.2807,-5.3348,-5.2909,-5.1488,-5.0304,-4.9593,-4.78,0.0,0.0,0.0,0.0,0.0,0.0,0.0,0.0,0.0,0.0,0.0,0.0,0.0,0.0,0.0,0.0,0.0,0.0,0.0,0.0,0.0,0.0,0.0,0.0,0.0,0.0,0.0,0.0,0.0,0.0,0.0,0.0,0.0,0.0,0.0,0.0,0.0,0.0,0.0,0.0,0.0,0.0,0.0,0.0,0.0,0.0,0.0,0.0,0.0,0.0,0.0,0.0,0.0,-5.0421,-5.1079,-5.1887,-5.1468,-5.1498,-5.1678,-4.7339,-4.4676,-4.3329,-4.2551,0.0,0.0,0.0,0.0,0.0,0.0,0.0,0.0,0.0,0.0,0.0,0.0,0.0,0.0,0.0,0.0,0.0,0.0,0.0,0.0,0.0,0.0,-4.5131,-4.5049,-4.5601,-4.5755,-4.4431,0.0,0.0,0.0,0.0,0.0,0.0,0.0,0.0,0.0,0.0,0.0,-4.6718,-4.8274,-4.9763,-5.1251,-5.2672,-5.3518,-5.3518,-5.2198,-5.1082,-5.0338,-4.8917,-4.7767,0.0,0.0,0.0,0.0,0.0,0.0,0.0,0.0,0.0,0.0,0.0,0.0,0.0,0.0,0.0,0.0,0.0,0.0,0.0,0.0,0.0,0.0,0.0,0.0,0.0,0.0,0.0,0.0,0.0,0.0,0.0,0.0,-4.3,-4.318,0.0,0.0,0.0,0.0,0.0,0.0,0.0,0.0,0.0,0.0,0.0,0.0,0.0,-4.9194,-5.0421,-5.2247,-5.2995,-5.2695,-5.497,-5.5568,-5.467,-5.5179,-5.5119,-5.461,-5.3922,0.0,-4.7399,-4.6172,0.0,0.0,0.0,0.0,0.0,0.0,0.0,0.0,0.0,0.0,0.0,0.0,0.0,0.0,0.0,0.0,0.0,0.0,0.0,0.0,0.0,0.0,-4.8394,-4.8399,-4.8433,-4.8461,-4.8298,-4.6005,-4.3892,-4.3239,-4.2697,-4.2237,0.0,0.0,0.0,0.0,0.0,0.0,-4.7564,-4.9052,-5.0507,-5.1995,-5.2976,-5.3518,-5.3518,-5.2672,-5.186,-5.1116,-4.9695,-4.8545,-4.78,-4.7695,0.0,0.0,0.0,0.0,0.0,0.0,0.0,0.0,0.0,0.0,0.0,0.0,0.0,0.0,0.0,0.0,0.0,0.0,0.0,0.0,0.0,0.0,0.0,0.0,0.0,0.0,0.0,0.0,0.0,-4.3778,-4.5005,-4.3509,-4.4077,-4.3988,0.0,0.0,0.0,0.0,0.0,0.0,0.0,0.0,0.0,-5.0421,-5.1498,-5.2486,-5.3443,-5.47,-5.5718,-5.6526,-5.7663,-5.8321,-5.853,-5.883,-5.88,-5.853,-5.853,-5.6526,-5.2995,-4.9823,-4.7369,-4.5394,0.0,0.0,0.0,0.0,-4.3269,-4.3629,-4.4018,-4.4167,-4.4077,-4.3629,0.0,0.0,0.0,0.0,0.0,0.0,0.0,-4.5408,-4.6946,-4.8487,-4.9729,-5.0135,-5.0236,-5.0135,-4.9695,-4.8568,-4.7144,-4.5604,-4.5035,-4.4817,-4.4801,-4.4495,0.0,0.0,0.0,-4.638,-4.8274,-4.9424,-5.0676,-5.2131,-5.301,-5.3518,-5.3518,-5.2773,-5.2164,-5.186,-5.0439,-4.9458,-4.9154,-4.8737,-4.8528,0.0,0.0,0.0,0.0,0.0,0.0,0.0,0.0,0.0,0.0,0.0,0.0,0.0,0.0,0.0,0.0,0.0,0.0,0.0,0.0,0.0,0.0,0.0,0.0,0.0,0.0,0.0,0.0,-4.4796,-4.6322,-4.3658,-4.5693,-4.6142,0.0,0.0,0.0,0.0,0.0,0.0,-4.9434,-5.078,-5.2187,-5.3653,-5.485,-5.5867,-5.6705,-5.7363,-5.8441,-5.9877,-6.0027,-6.0655,-6.1613,-6.1613,-6.1613,-6.1613,-6.1613,-6.0296,-5.7782,-5.3503,-5.0391,-4.8147,-4.6471,-4.5334,-4.4706,-4.5155,-4.5544,-4.5873,-4.6381,-4.6561,-4.6411,-4.5394,-4.4526,-4.3629,-4.2848,0.0,0.0,0.0,0.0,-4.7473,-4.9028,-5.0022,-5.0811,-5.1352,-5.1488,-5.1352,-5.0777,-5.0507,-4.9729,-4.7496,-4.7225,-4.7225,-4.6853,-4.665,0.0,-4.7022,-4.6955,-4.7496,-4.9323,-5.0202,-5.115,-5.2469,-5.3145,-5.3518,-5.3518,-5.2942,-5.2536,-5.23,-5.1251,-5.06,-5.0379,-5.0017,-4.9987,-5.0314,0.0,0.0,0.0,0.0,0.0,0.0,0.0,0.0,0.0,0.0,0.0,0.0,0.0,0.0,0.0,0.0,0.0,0.0,0.0,0.0,0.0,0.0,0.0,0.0,0.0,0.0,0.0,0.0,0.0,-4.3658,-4.7309,0.0,0.0,0.0,0.0,-4.8027,-4.9823,-5.1498,-5.2845,-5.4221,-5.5837,-5.7752,-5.8501,-5.9488,-6.0805,-6.1463,-6.1852,-6.1942,-6.257,-6.2899,-6.2989,-6.2989,-6.2989,-6.2989,-6.2989,-6.2181,-6.0655,-5.7274,-5.3952,-5.096,-5.0212,-4.9164,-4.8057,-4.8087,-4.7728,-4.7219,-4.7249,-4.7249,-4.7249,-4.7189,-4.6262,-4.5311,-4.5557,-4.5259,0.0,0.0,-4.8628,-4.9094,-5.0654,-5.1592,-5.2198,-5.2232,-5.2232,-5.2232,-5.2198,-5.1657,-5.0507,-4.8274,-4.8409,-4.8443,-4.7022,0.0,-4.8612,-4.797,-4.9018,-5.0168,-5.098,-5.1725,-5.2503,-5.3348,-5.3484,-5.3518,-5.3518,-5.345,-5.3112,-5.2367,-5.2232,-5.1843,-5.1163,-5.171,-5.1759,-5.1069,-5.1643,0.0,0.0,0.0,0.0,0.0,0.0,0.0,0.0,0.0,0.0,0.0,0.0,0.0,0.0,0.0,0.0,0.0,0.0,0.0,0.0,0.0,0.0,0.0,0.0,0.0,0.0,0.0,0.0,-4.7369,-5.1229,0.0,-4.9703,-5.0631,-5.1439,-5.1439,-5.2875,-5.4521,-5.6256,-5.7603,-5.9069,-6.0625,-6.1313,-6.1882,-6.2361,-6.26,-6.272,-6.272,-6.2959,-6.3079,-6.3079,-6.3079,-6.3079,-6.3079,-6.3079,-6.257,-6.1613,-6.0027,-5.7154,-5.3653,-5.2576,-5.1319,-5.0182,-5.0182,-5.0032,-4.9883,-5.0301,-4.9912,-4.9134,-4.9072,-4.8407,-4.7843,-4.8839,-4.8965,-4.9121,-5.0626,-5.1061,-5.1329,-5.2403,-5.2875,-5.3078,-5.3078,-5.3078,-5.2942,-5.2401,-5.2503,-5.2164,-5.0371,-5.027,-5.027,-4.9729,-4.9661,-4.9796,-4.9999,-5.0067,-5.0541,-5.1758,-5.2131,-5.2604,-5.3416,-5.3518,-5.3518,-5.3518,-5.3518,-5.3345,-5.3009,-5.2557,-5.2166,-5.1836,-5.1635,-5.1576,-5.1741,-5.197,-5.2589,0.0,0.0,0.0,0.0,0.0,0.0,0.0,0.0,0.0,0.0,0.0,0.0,0.0,0.0,0.0,0.0,0.0,0.0,0.0,0.0,0.0,0.0,0.0,0.0,0.0,0.0,-5.1139,-5.0062,-5.4221,-5.6017,-5.3144,-5.4072,-5.485,-5.485,-5.6286,-5.7842,-5.9368,-6.0505,-6.1493,-6.2391,-6.2839,-6.3079,-6.3079,-6.3079,-6.3079,-6.3079,-6.3079,-6.3079,-6.3079,-6.3079,-6.3079,-6.3079,-6.3079,-6.257,-6.1732,-6.1283,-5.9159,-5.6077,-5.494,-5.3713,-5.2516,-5.2306,-5.2067,-5.2012,-5.254,-5.2092,-5.112,-5.1141,-5.0712,-5.0485,-5.1582,-5.1795,-5.1877,-5.3078,-5.3281,-5.3213,-5.3721,-5.4059,-5.4194,-5.3923,-5.3856,-5.3721,-5.3179,-5.3315,-5.3213,-5.2198,-5.1995,-5.1826,-5.1319,-5.1014,-5.1014,-5.1522,-5.115,-5.1285,-5.2536,-5.2909,-5.3179,-5.3484,-5.3957,-5.4059,-5.3551,-5.3957,-5.409,-5.3791,-5.3333,-5.3009,-5.2979,-5.2497,-5.2566,-5.3271,-5.3271,-5.3636,-5.4399,0.0,0.0,0.0,0.0,0.0,0.0,0.0,0.0,0.0,0.0,0.0,0.0,0.0,0.0,0.0,0.0,0.0,0.0,0.0,0.0,0.0,0.0,0.0,-4.5663,-4.9434,-5.2127,-5.1528,-5.6047,-5.7932,-5.476,-5.6765,-5.8261,-5.8261,-6.0057,-6.1463,-6.2091,-6.272,-6.3079,-6.3079,-6.3079,-6.3079,-6.3079,-6.3079,-6.3079,-6.3079,-6.3079,-6.3079,-6.3079,-6.3079,-6.3079,-6.3079,-6.3079,-6.2331,-6.1134,-6.1134,-5.9967,-5.8112,-5.7393,-5.6316,-5.5149,-5.4491,-5.3803,-5.3308,-5.3745,-5.3489,-5.2984,-5.3573,-5.3279,-5.286,-5.3869,-5.3676,-5.35,-5.5164,-5.5175,-5.46,-5.4566,-5.5141,-5.5513,-5.4735,-5.4566,-5.4566,-5.4566,-5.4025,-5.3551,-5.3551,-5.3551,-5.3078,-5.1555,-5.186,-5.2367,-5.2367,-5.2367,0.0,-5.3484,-5.4194,-5.4363,-5.3653,-5.4871,-5.5108,-5.3653,-5.4837,-5.5383,-5.4641,-5.4537,-5.4501,-5.4553,-5.453,-5.4821,-5.5537,-5.5574,-5.5207,-5.4436,0.0,0.0,0.0,0.0,0.0,0.0,0.0,0.0,0.0,0.0,0.0,0.0,0.0,0.0,0.0,0.0,0.0,0.0,0.0,0.0,0.0,0.0,-4.9464,-4.9583,-5.2755,-5.5538,-5.6795,-5.9488,-6.0924,-6.0027,-6.1014,-6.1523,-6.1044,-6.1942,-6.26,-6.281,-6.2989,-6.3079,-6.3079,-6.3079,-6.3079,-6.3079,-6.3079,-6.3079,-6.3079,-6.3079,-6.3079,-6.3079,-6.3079,-6.3079,-6.3079,-6.3079,-6.26,-6.1792,-6.1313,-6.0505,-5.9368,-5.7723,-5.6615,-5.5837,-5.5149,-5.4491,-5.3999,-5.4576,-5.4233,-5.3939,-5.5716,-5.5843,-5.528,-5.591,-5.5934,-5.5598,-5.5072,-5.5141,-5.5141,-5.4093,-5.4769,-5.5412,-5.4093,-5.4194,-5.4431,-5.3923,-5.4059,-5.4296,-5.4296,-5.4735,-5.4634,-5.3145,-5.3044,-5.3348,-5.389,-5.3957,-5.4228,-5.5006,-5.5277,-5.5344,-5.5141,-5.548,-5.5553,-5.5128,-5.5468,-5.5653,-5.5401,-5.5348,-5.5338,-5.5304,-5.472,-5.4517,-5.473,-5.528,-5.5464,0.0,0.0,0.0,0.0,0.0,0.0,0.0,0.0,0.0,0.0,0.0,0.0,0.0,0.0,0.0,0.0,0.0,0.0,0.0,0.0,0.0,0.0,-5.0661,-5.2815,-5.4311,-5.6196,-5.8022,-5.9757,-6.1463,-6.251,-6.251,-6.2839,-6.2929,-6.254,-6.2869,-6.3079,-6.3079,-6.3079,-6.3079,-6.3079,-6.3079,-6.3079,-6.3079,-6.3079,-6.3079,-6.3079,-6.3079,-6.3079,-6.3079,-6.3079,-6.3079,-6.3079,-6.3079,-6.272,-6.2061,-6.1672,-6.0954,0.0,0.0,0.0,0.0,0.0,-5.5743,-5.5511,-5.6482,-5.6599,-5.6413,-5.7714,-5.772,-5.7372,-5.7296,-5.7036,-5.6697,-5.6122,-5.6055,-5.5953,-5.5108,-5.575,-5.6325,-5.5175,-5.5209,-5.5412,-5.4972,-5.4972,-5.5074,-5.5074,-5.5412,0.0,-5.4566,-5.4431,-5.4566,-5.5006,-5.5074,-5.5348,-5.6099,-5.644,-5.6712,-5.6767,-5.7285,-5.7413,-5.6807,-5.6982,0.0,0.0,0.0,-5.6115,-5.608,-5.5978,0.0,0.0,0.0,-5.6418,-5.6088,-5.6565,0.0,0.0,-5.5904,-5.5574,0.0,0.0,0.0,0.0,0.0,0.0,0.0,0.0,0.0,0.0,0.0,0.0,0.0,0.0,0.0,0.0,-5.3414,-5.6436,-5.9069,-5.9488,-5.9997,-6.1194,-6.2361,-6.3079,-6.3079,-6.3139,-6.3169,-6.3169,-6.3258,-6.3258,-6.3199,0.0,0.0,0.0,0.0,-6.3079,-6.3079,-6.3079,-6.3079,-6.3079,-6.3079,-6.3079,-6.3079,-6.3079,-6.3079,-6.3079,-6.3079,-6.272,-6.2091,-6.2091,-6.1253,-5.9787,-5.7842,-5.7139,-5.7239,-5.71,-5.7024,-5.734,-5.9003,0.0,0.0,-5.9127,-5.9032,-5.8761,-5.8084,-5.7442,-5.7036,-5.7611,-5.734,-5.69,-5.6731,-5.7273,-5.7679,-5.6867,-5.6731,-5.6799,-5.6697,-5.6258,-5.5818,-5.5958,-5.6094,-5.6265,-5.6335,-5.6062,-5.5856,-5.5958,-5.6165,-5.6508,-5.7369,-5.8094,-5.8561,-5.8697,-5.9927,0.0,-5.8662,-5.9159,-5.9166,-5.8425,-5.7542,-5.6998,-5.6923,-5.7519,-5.7519,-5.6822,-5.7483,-5.7556,-5.6932,-5.6932,-5.7299,-5.796,-5.6528,-5.5868,0.0,0.0,0.0,0.0,0.0,0.0,0.0,0.0,0.0,0.0,0.0,0.0,0.0,0.0,0.0,-5.2845,-5.5748,-5.8471,-6.1134,-6.1972,-6.2391,-6.266,-6.2929,-6.3079,-6.3079,-6.3528,-6.3827,-6.3827,-6.4336,-6.4425,-6.3857,-6.3827,-6.3588,-6.3079,-6.3079,-6.3079,-6.3079,-6.3079,-6.3079,-6.3079,0.0,0.0,-6.3079,-6.3079,-6.3079,-6.3079,-6.3079,-6.272,-6.2091,-6.2091,-6.0984,-5.9159,-5.7663,-5.7353,-5.7746,-5.7205,-5.7245,-5.7892,-5.9768,-5.9235,-5.8091,-5.9439,-5.9066,-5.8084,-5.7915,-5.778,0.0,-5.7137,-5.734,-5.7408,-5.6224,-5.69,-5.7543,-5.6258,-5.6393,-5.663,-5.6055,-5.6292,-5.6775,-5.743,-5.8597,-5.9698,-6.0323,-5.8333,-5.6905,-5.746,-5.8706,-5.9812,-6.0599,-6.1341,-6.1891,-6.1876,-6.2186,-6.1946,-6.1055,-6.1055,-6.0811,-5.9993,-5.92,-5.8443,-5.7813,-5.7299,-5.6969,-5.6822,-5.6969,-5.7262,-5.7776,-5.7776,-5.785,-5.7997,-5.7666,-5.7519,0.0,0.0,0.0,0.0,0.0,0.0,0.0,0.0,0.0,0.0,0.0,-4.6591,0.0,0.0,-5.2606,-5.5239,-5.7872,-6.0206,-6.1852,-6.266,-6.3079,-6.3079,-6.3079,-6.3079,-6.3079,-6.3647,-6.4006,-6.4006,-6.4635,-6.4725,-6.4036,-6.4006,-6.3707,-6.3109,-6.3079,-6.3079,-6.3079,-6.3079,-6.3079,-6.3079,-6.3079,-6.3079,-6.3079,-6.3079,-6.3079,-6.3079,-6.3079,-6.2899,-6.257,-6.2241,-6.17,-6.0928,-5.9557,-5.8837,-5.8674,-5.9596,-5.9838,-5.9989,-6.1551,-6.1079,-6.0035,-6.0536,-5.9945,-5.893,-5.8558,-5.8186,-5.7814,-5.7442,-5.7611,-5.7712,-5.7002,-5.734,-5.7712,-5.6968,-5.707,-5.734,-5.7374,-5.7645,-5.8273,-5.9529,-6.0427,-6.1185,-6.2068,-6.1202,-6.0441,-6.0388,-6.1094,-6.1955,-6.2713,-6.3167,-6.3597,-6.3986,-6.408,-6.3868,-6.3493,-6.2692,-6.1865,-6.108,-6.0272,-5.9612,-5.9208,-5.8841,-5.8621,-5.8621,-5.8217,-5.8217,-5.8621,-5.8217,-5.7997,-5.7997,-5.7997,-5.7997,0.0,0.0,0.0,0.0,0.0,0.0,0.0,0.0,-4.5813,-4.704,-4.8327,-4.9613,-5.078,-5.3503,-5.6017,-5.7453,-5.9727,-6.1523,-6.2181,-6.275,-6.3079,-6.3079,-6.3079,-6.3139,-6.3258,-6.3827,-6.4246,-6.4366,-6.4904,-6.4964,-6.4425,-6.4126,-6.3767,-6.3258,-6.3139,-6.3079,-6.3079,-6.3079,-6.3079,-6.3079,-6.3079,-6.3079,-6.3079,-6.3079,-6.3079,-6.3079,-6.3394,-6.3478,-6.3448,-6.3092,-6.3101,-6.336,-6.2386,-6.1231,-6.0422,-6.2207,-6.257,-6.2381,-6.3208,-6.3024,-6.2279,-6.1535,-6.0757,-5.9945,-5.9235,-5.8592,-5.8118,-5.8118,-5.8017,-5.7915,-5.8084,-5.8118,-5.8118,-5.8118,-5.822,-5.8564,-5.9287,-5.9497,-5.9997,-6.1638,-6.2153,-6.2525,-6.3565,-6.441,-6.4491,-6.3208,-6.3341,-6.3753,-6.4375,-6.4634,-6.5003,-6.5689,-6.5778,-6.5705,-6.5558,-6.4163,-6.3025,-6.2365,-6.141,-6.086,-6.086,-6.0566,-6.0419,-6.0419,-5.9758,-5.9428,-5.9428,-5.8767,-5.8474,-5.8474,-5.8474,-5.829,-3.7111,-3.878,-4.068,-4.1412,-4.3834,-4.6476,0.0,0.0,-4.9793,-5.0511,-5.1708,-5.2875,-5.3623,-5.5478,-5.7513,-5.9428,-6.1014,-6.2211,-6.2869,-6.3019,-6.3079,-6.3079,-6.3079,-6.3288,-6.3827,-6.4515,-6.5173,-6.5742,-6.5862,-6.5862,-6.5772,-6.4665,-6.3977,-6.3887,-6.3378,-6.3079,-6.3079,-6.3079,-6.3079,-6.3079,-6.3079,-6.3079,-6.3079,-6.3079,-6.3079,-6.3194,-6.4401,-6.4923,-6.4971,-6.5502,-6.5421,-6.4921,-6.5281,-6.4964,-6.4112,-6.3133,-6.3448,-6.418,-6.3653,-6.3024,-6.2279,-6.1535,-6.0757,-5.9945,-5.9235,-5.8964,-5.8896,-5.8896,-5.8423,-5.8051,-5.8727,-5.8896,-5.8896,-5.8896,-5.937,-6.0068,-6.1047,-6.1188,-6.1741,-6.3381,-6.4315,-6.5308,-6.6884,-6.7817,-6.7359,-6.4332,-6.5093,-6.6116,-6.6223,-6.6846,-6.734,-6.743,-6.743,-6.7136,-6.6439,-6.5558,-6.5007,-6.4897,-6.3429,-6.2548,-6.2548,-6.1153,-6.0419,-6.0419,-6.0309,-6.0272,-6.0272,-6.0199,-6.0126,-6.0126,-6.0126,-5.9355,-3.8964,-4.1086,-4.3336,-4.4704,-4.6786,-4.8925,-5.0122,-5.09,-5.1798,-5.3234,-5.4551,-5.5777,-5.6855,-5.868,-6.0266,0.0,-6.2061,-6.275,-6.3049,-6.3079,-6.278,-6.2032,-6.26,-6.3318,-6.3947,-6.4246,-6.4874,-6.5922,-6.6011,-6.6011,-6.6011,-6.5473,-6.4814,-6.4006,-6.3737,-6.3438,-6.3079,-6.3438,-6.3438,-6.3079,-6.3438,-6.3438,-6.3079,-6.3902,-6.4703,-6.5544,-6.6048,-6.6365,-6.6333,-6.6639,-6.6835,-6.6874,-6.7152,-6.7007,-6.6531,-6.5493,-6.4875,-6.4546,-6.4241,-6.3396,-6.2347,-6.2042,-6.1434,-6.0757,-6.0452,-6.0013,-5.9641,-5.9641,-5.9438,-5.9235,-5.9573,-5.9641,-5.9641,-5.9641,-6.0291,-6.1284,-6.2576,-6.3206,-6.4261,-6.6366,-6.7078,-6.7679,-6.8898,-6.9376,-6.9118,-6.7741,-6.8147,-6.8605,-6.8605,-6.8898,-6.9082,-6.9082,-6.9082,-6.8752,-6.7981,-6.7173,-6.6512,-6.6035,-6.4897,-6.4273,-6.4273,-6.3613,-6.3025,-6.2548,-6.2071,-6.1814,-6.1814,-6.086,-6.0639,-6.108,-6.0639,-6.0052,-4.0586,-4.3149,-4.5779,-4.7288,-4.9578,-5.1768,-5.2426,-5.3384,-5.4521,-5.5987,-5.7154,-5.8201,-5.9189,-6.0715,-6.1882,-6.2061,-6.266,-6.3079,-6.3079,-6.278,-6.2181,-6.1224,-6.1642,-6.2361,-6.3378,-6.3797,-6.4485,-6.5652,-6.5742,-6.5802,-6.6011,-6.5832,-6.5383,-6.4575,-6.4804,-6.4382,-6.3348,-6.4516,-6.4623,-6.3706,-6.4471,-6.4636,-6.432,-6.5219,-6.6259,-6.7164,-6.7572,-6.7774,-6.7774,-6.8206,-6.8501,-6.8666,-6.8633,-6.8483,-6.8132,-6.7387,-6.6305,-6.5155,-6.4749,-6.3903,-6.2922,-6.2516,-6.2042,-6.1569,-6.1366,-6.0892,-6.0419,-6.0419,-6.0283,-6.0148,-6.0385,-6.0588,-6.0799,-6.1068,-6.1972,-6.3205,-6.4847,-6.5672,-6.6746,-6.8778,-6.9153,-6.9441,-7.0254,-7.044,-7.0513,-7.0734,-7.077,-7.0587,-7.0146,-7.011,-7.011,-7.011,-7.011,-6.9853,-6.9302,-6.8678,-6.8017,-6.721,-6.6402,-6.5852,-6.5632,-6.5411,-6.5044,-6.442,-6.3833,-6.3503,-6.3503,-6.2328,-6.2071,-6.2622,-6.2034,-6.163,-4.1443,-4.4514,-4.7536,-4.8267,-5.1768,-5.5209,-5.5867,-5.7513,-5.8919,-5.8979,-5.9518,-5.9997,-6.0057,-6.0655,-6.1343,-6.2002,-6.266,-6.3079,-6.3079,-6.1972,-6.1164,-6.1104,-5.9997,-5.9997,0.0,-6.3258,-6.4306,-6.4994,-6.5054,-6.5323,-6.5981,-6.5413,-6.5323,-6.5922,-6.6698,-6.6138,-6.3977,-6.6729,-6.7166,-6.5032,-6.647,-6.7093,-6.7061,-6.7061,-6.7164,-6.7266,-6.8601,-6.9121,-6.9217,-7.0574,-7.0749,-7.0195,-7.0195,-6.9722,-6.8977,-6.8166,-6.7387,-6.6542,-6.5087,-6.458,-6.4309,-6.2854,-6.2381,-6.2212,-6.1535,-6.1298,-6.1264,-6.1264,-6.0689,-6.0283,-6.1061,-6.1772,-6.2591,-6.3466,-6.4832,-6.6386,-6.8263,-6.8677,-6.8959,-6.9868,-7.0017,-7.033,-7.1138,-7.1284,-7.1541,-7.2312,-7.2422,-7.1872,-7.0293,-7.011,-7.011,-7.011,-7.011,-7.0073,-7.0073,-7.0036,-6.9669,-6.8898,-6.8054,-6.7283,-6.6512,-6.5705,-6.5301,-6.5264,-6.5264,-6.5228,-6.5228,-6.5191,-6.5154,-6.5191,-6.5154,-6.4751,-4.4584,-4.8021,-5.1706,-5.3248,-5.5781,-5.7962,-5.862,-5.9279,-5.9757,-5.9757,-5.856,-5.7483,-5.7483,-5.7693,-5.8201,-5.9279,-6.0775,-6.2091,-6.2959,-6.269,-6.1762,-5.9997,-6.0565,0.0,0.0,0.0,0.0,-6.4874,-6.5875,-6.6381,-6.5981,-6.765,-6.8158,-6.7519,-6.7731,-6.7742,-6.7637,-6.8055,-6.7915,-6.724,-6.7181,-6.7673,-6.8503,-6.8503,-6.9024,-6.9982,-7.0389,-7.0574,-7.0574,-7.1098,-7.1176,-7.0872,-7.0398,-6.9755,-6.9011,-6.8199,-6.7455,-6.6677,-6.5662,-6.5019,-6.4512,-6.4005,-6.3869,-6.3734,-6.299,-6.3125,-6.3294,-6.2313,-6.2178,-6.2436,-6.2816,-6.3486,-6.426,-6.5198,-6.666,-6.8183,-6.9336,-7.0012,-7.0705,-7.1521,-7.2129,-7.2569,-7.2863,-7.334,-7.378,-7.4074,-7.3634,-7.3083,-7.2569,-7.2936,-7.3083,-7.2532,-7.2496,-7.2055,-7.0991,-7.0917,-7.055,-6.9743,-6.9449,-6.9155,-6.8898,-6.8128,-6.743,-6.688,-6.6366,-6.6109,-6.6109,-6.5558,-6.5595,-6.6072,-6.5558,-6.5154,-4.7975,-5.1461,-5.4999,-5.6765,-5.871,-6.0206,-6.0416,-6.0446,-6.0176,-5.9219,-5.7483,-5.5897,-5.494,-5.5149,-5.5658,-5.6256,-5.8052,-5.9967,-6.1762,-6.1613,-6.1014,-6.0266,-6.0685,-6.0907,0.0,0.0,0.0,-6.491,-6.6129,-6.6745,-6.6813,-6.8576,-6.9257,-6.8562,-6.934,-6.9607,-6.9381,-6.9534,-6.9581,-6.9419,-6.883,-6.9121,-6.9949,-6.9949,-7.0448,-7.1312,-7.1312,-7.1312,-7.1312,-7.1312,-7.1312,-7.1244,-7.0466,-6.9891,-6.935,-6.8301,-6.759,-6.7049,-6.6034,-6.5392,-6.4952,-6.4681,-6.4613,-6.4478,-6.3734,-6.4038,-6.4343,-6.3125,-6.3611,-6.441,-6.4507,-6.5364,-6.6461,-6.7354,-6.8586,-6.9885,-7.0701,-7.156,-7.2312,-7.2826,-7.3597,-7.4147,-7.4147,-7.4551,-7.4918,-7.4918,-7.4698,-7.4331,-7.378,-7.4404,-7.4588,-7.378,-7.3707,-7.3266,-7.2275,-7.1908,-7.1394,-7.0587,-7.055,-7.0403,-7.011,-6.9596,-6.9082,-6.8568,-6.776,-6.7357,-6.7357,-6.6549,-6.6402,-6.6916,-6.6402,-6.5999,-5.1542,-5.479,-5.7603,-5.8919,-6.0715,-6.1972,-6.1283,-6.1044,-6.0206,-5.7543,-5.6376,-5.5029,0.0,0.0,-5.3803,-5.3324,-5.494,-5.7214,-5.9907,-5.9219,-5.9338,0.0,0.0,0.0,0.0,0.0,0.0,-6.5328,0.0,-6.6932,-6.8211,-6.8406,-6.8704,-6.9266,-7.1243,-7.148,-6.9551,-7.1413,-7.2056,-7.1379,-7.1345,-7.1312,-7.1312,-7.1312,-7.1312,-7.1312,-7.1312,-7.1312,-7.1312,-7.1278,-7.1278,-7.1244,-7.0398,-7.0094,-6.9958,-6.8402,-6.7827,-6.7624,-6.6237,-6.5764,-6.5628,-6.4952,-6.4715,-6.458,-6.3835,-6.414,-6.4546,-6.3768,-6.4761,-6.6081,-6.6086,-6.7374,-6.8884,-6.9841,-7.0645,-7.1448,-7.2285,-7.312,-7.3707,-7.3707,-7.4368,-7.4992,-7.5028,-7.5028,-7.5028,-7.5028,-7.5689,-7.5616,-7.4001,-7.4551,-7.4735,-7.3891,-7.3817,-7.3817,-7.3744,-7.3046,-7.2312,-7.1541,-7.1505,-7.1138,-7.033,-7.022,-7.0183,-7.0146,-6.9376,-6.8972,-6.8972,-6.8201,-6.7797,-6.776,-6.776,-6.732,-5.451,-5.7573,-6.0296,-6.1134,-6.2091,-6.254,-6.1373,-5.9967,-5.8291,-5.6107,-5.3204,-5.0661,0.0,0.0,0.0,-5.3563,-5.6017,0.0,-6.248,-6.272,0.0,-6.4206,0.0,-6.4847,-6.6139,-6.7741,0.0,0.0,-6.9993,-6.9782,-6.902,-7.1025,-7.2283,-7.2462,-7.1845,-7.2116,-7.3235,-7.2726,-7.2326,-7.2124,-7.1582,-7.1312,-7.1312,-7.1312,-7.1312,-7.1312,-7.1312,-7.1312,-7.1278,-7.0703,-7.0804,-7.1109,-6.9214,-6.8842,-6.918,-6.7658,-6.7083,-6.7049,-6.6643,-6.6542,-6.6508,-6.6305,-6.6237,-6.6102,-6.5358,-6.5662,-6.5967,-6.4681,-6.5549,-6.6815,-6.6918,-6.8346,-6.9841,-7.0748,-7.1582,-7.2226,-7.2438,-7.312,-7.3707,-7.3707,-7.4845,-7.5983,-7.6607,-7.6717,-7.6717,-7.6717,-7.6864,-7.6644,-7.5616,-7.6203,-7.6387,-7.5579,-7.5506,-7.5249,-7.4661,-7.4404,-7.4221,-7.4001,-7.4001,-7.3634,-7.2826,-7.2202,-7.1615,-7.1027,-7.022,-6.9779,-6.9779,-6.9596,-6.9192,-6.8605,-6.8605,-6.8164,-5.7423,-5.9668,-6.1702,-6.2361,-6.2361,-6.1792,-6.0176,-5.8261,-5.6107,-5.3533,-5.102,-4.8895,-4.7638,-4.8207,-4.9523,0.0,0.0,0.0,-6.1283,-6.2361,-6.3532,0.0,-6.6709,0.0,-6.9534,-7.0994,-7.2118,0.0,-7.2018,-7.1425,-7.1192,-7.241,-7.3131,-7.3105,-7.2565,-7.2563,-7.3172,-7.2969,-7.2563,-7.1921,-7.1515,-7.1312,-7.1312,-7.1312,-7.1312,-7.1312,-7.1312,-7.1312,-7.1278,-7.0872,-7.0939,-7.1109,-6.918,-6.8707,-6.891,-6.7387,-6.6812,-6.6812,-6.6812,-6.6812,-6.6812,-6.6812,-6.6812,-6.6677,-6.5899,-6.65,-6.7283,-6.6428,-6.7481,-6.8964,-6.9376,-7.0526,-7.1636,-7.1793,-7.2716,-7.345,-7.3083,-7.3927,-7.4845,-7.5212,-7.6019,-7.679,-7.7231,-7.7304,-7.7304,-7.7304,-7.7304,-7.7157,-7.668,-7.7047,-7.7011,-7.6203,-7.6093,-7.5909,-7.5469,-7.5102,-7.4918,-7.4918,-7.4918,-7.4698,-7.4258,-7.345,-7.2826,-7.2349,-7.1211,-7.0624,-7.0624,-7.0257,-6.9706,-6.8898,-6.8898,-6.8458,-6.0027,-6.1343,-6.248,-6.2959,-6.2002,-6.0446,-5.8441,-5.6346,-5.3892,-5.075,-4.9523,-4.8476,-4.677,-4.7459,-4.8686,-4.9853,0.0,-5.494,-5.9159,-6.0967,-6.3264,-6.7287,-6.8558,-7.0154,-7.2876,-7.3873,-7.4373,-7.4702,-7.3202,-7.2607,-7.3646,-7.3202,-7.2804,-7.2597,-7.3172,-7.2868,-7.1616,-7.2665,-7.2631,-7.1447,-7.1379,-7.1312,-7.1312,-7.1312,-7.1312,-7.1312,-7.1312,-7.1312,-7.1312,-7.121,-7.121,-7.1176,-6.9688,-6.9113,-6.8944,-6.7489,-6.688,-6.6812,-6.6914,-6.6948,-6.6948,-6.6846,-6.6812,-6.6677,-6.6166,-6.7067,-6.8266,-6.842,-6.9708,-7.1276,-7.207,-7.2995,-7.356,-7.2973,-7.3891,-7.4735,-7.4001,-7.5028,-7.635,-7.7157,-7.7304,-7.7304,-7.7304,-7.7304,-7.7304,-7.7304,-7.7304,-7.7304,-7.7304,-7.7304,-7.7047,-7.635,-7.6276,-7.6276,-7.6276,-7.5616,-7.5249,-7.5249,-7.5249,-7.5175,-7.5065,-7.4294,-7.3817,-7.3707,-7.2239,-7.1468,-7.1468,-7.077,-7.0,-6.9229,-6.9229,-6.8715,-6.1523,-6.269,-6.3588,-6.3169,-6.1672,-5.9727,-5.7723,-5.491,0.0,-4.9883,-4.8476,-4.7549,-4.7189,-4.7758,-4.9583,-5.3533,-5.4551,-5.6795,-6.2361,-6.4401,-6.6713,0.0,-7.2401,-7.4291,-7.5968,-7.6837,0.0,0.0,-7.5788,-7.5552,-7.4492,-7.4337,-7.3999,-7.3308,-7.3409,-7.3375,-7.3105,-7.2157,-7.1853,-7.2191,-7.1616,-7.1312,-7.1312,-7.1312,-7.1312,-7.1312,-7.1312,0.0,-7.1278,-7.0635,-7.0737,-7.1176,-6.9688,-6.9113,-6.8977,-6.8064,-6.732,-6.6914,-6.7489,-6.7726,-6.7624,-6.7015,-6.6812,-6.6912,-6.757,-6.7964,-6.8343,-6.9241,-7.0229,-7.1276,-7.207,-7.2995,-7.3817,-7.4368,-7.4698,-7.4882,-7.4735,-7.5432,-7.635,-7.7157,-7.7304,-7.7304,-7.7304,-7.7304,-7.7304,-7.7304,-7.7304,-7.7304,-7.7304,-7.7304,-7.7268,-7.7121,-7.7121,-7.7121,-7.7121,-7.6974,-7.69,-7.69,-7.69,-7.6607,-7.5909,-7.5139,-7.4368,-7.3707,-7.2789,-7.2312,-7.2312,-7.2165,-7.1688,-7.0881,-7.0881,-7.011,-6.2989,-6.3797,-6.4366,-6.3707,-6.1283,-5.853,-5.6555,0.0,0.0,-4.8596,-4.7758,-4.7309,-4.7309,-4.7848,-4.9224,-5.2157,-5.3174,-5.5601,-6.1233,-6.3549,-6.6488,-7.1447,-7.3651,-7.5635,0.0,-7.801,-7.7671,-7.6927,-7.6893,-7.6386,-7.5236,-7.4424,-7.3849,-7.351,-7.3105,-7.2732,-7.236,-7.2022,-7.1853,-7.1819,-7.1481,-7.1312,-7.1312,-7.1312,-7.1312,-7.1312,-7.1312,-7.1312,-7.1278,-7.0939,-7.0973,-7.121,-7.0094,-6.9654,-6.9519,-6.8335,-6.7929,-6.7996,-6.7929,-6.7895,-6.798,-6.8617,-6.8782,-6.8863,-6.9278,-7.0138,-7.1162,-7.2047,-7.2647,-7.3275,-7.4077,-7.458,-7.4955,-7.4918,-7.5212,-7.5652,-7.6093,-7.646,-7.6864,-7.7268,-7.7304,-7.7304,-7.7304,-7.7304,-7.7304,-7.7304,-7.7304,-7.7304,-7.7304,-7.7304,-7.7304,-7.7304,-7.7304,-7.7304,-7.7304,-7.7304,-7.7304,-7.7304,-7.7304,-7.7157,-7.6754,-7.5946,-7.5359,-7.4955,-7.4147,-7.3697,-7.3572,-7.3572,-7.3119,-7.2174,-7.2174,-7.154,-6.3917,-6.4395,-6.4665,-6.4126,-6.0835,-5.7274,-5.5568,-5.2007,-4.8716,-4.7549,-4.7309,-4.7309,-4.7309,-4.7728,-4.8596,-5.0182,-5.1199,-5.3688,-5.9408,-6.2027,-6.5574,0.0,-7.3871,0.0,-7.8621,-7.8348,0.0,-7.7773,-7.7063,-7.6352,-7.5743,-7.4458,-7.3713,-7.3713,-7.2868,-7.2124,-7.1548,-7.1954,-7.1887,-7.1312,-7.1312,-7.1312,-7.1312,-7.1312,-7.1312,-7.1312,-7.1312,-7.1312,-7.1312,-7.1312,-7.1312,-7.1244,-7.0669,-7.0331,-7.0026,-6.8842,-6.8707,-6.9011,-6.8761,-6.8676,-6.9032,-7.0833,-7.0923,-7.0496,-7.107,-7.2299,-7.3652,-7.45,-7.4832,-7.5102,-7.5909,-7.6093,-7.5983,-7.5542,-7.5909,-7.6533,-7.7194,-7.7304,-7.7304,-7.7304,-7.7304,-7.7304,-7.7304,-7.7304,-7.7304,-7.7304,-7.7304,-7.7304,-7.7304,-7.7304,-7.7304,-7.7304,-7.7304,-7.7304,-7.7304,-7.7304,-7.7304,-7.7304,-7.7304,-7.7304,-7.7304,-7.6533,-7.6093,-7.6093,-7.5463,-7.5033,-7.4882,-7.4848,-7.4366,-7.3501,-7.335,-7.2864,-6.3677,-6.4036,-6.4066,-6.4006,-6.0146,-5.6137,-5.5359,0.0,-4.8177,-4.7459,-4.7309,-4.7309,-4.7309,-4.7369,-4.8207,-5.072,-5.072,-5.2661,-5.9185,-6.1975,-6.5417,-7.0897,0.0,0.0,-7.7942,-7.8044,0.0,-7.7063,-7.6251,-7.5777,-7.5709,-7.4931,-7.4525,-7.4525,-7.3138,-7.236,-7.2293,-7.1718,-7.1379,-7.1312,-7.1312,-7.1312,-7.1312,-7.1312,-7.1312,-7.1312,-7.1312,-7.1312,0.0,-7.1312,-7.1312,-7.1312,-7.1244,-7.0804,-7.0161,-7.0026,-6.962,-6.9354,-7.0815,-7.1317,-7.1666,-7.3393,-7.196,-7.0035,-7.251,-7.3374,-7.3675,-7.4653,-7.4895,-7.5102,-7.5909,-7.6093,-7.6276,-7.6937,-7.7157,-7.7231,-7.7304,-7.7304,-7.7304,-7.7304,-7.7304,-7.7304,-7.7304,-7.7304,-7.7304,-7.7304,-7.7304,-7.7304,-7.7304,-7.7304,-7.7304,-7.7304,-7.7304,-7.7304,-7.7304,-7.7304,-7.7304,-7.7304,-7.7304,-7.7304,-7.7304,-7.6533,-7.6093,-7.6093,-7.5903,-7.5798,-7.579,-7.5558,-7.5343,-7.528,-7.4519,-7.3727,-6.248,-6.3707,-6.4425,-6.3647,-5.9787,-5.5897,-5.485,-5.102,-4.7608,-4.7369,-4.7309,-4.7309,-4.7309,-4.7764,-4.8577,-4.956,-5.0067,-5.2115,-5.713,-5.9015,-6.2508,-6.9854,-7.1715,0.0,0.0,0.0,0.0,-7.5574,-7.5642,-7.5303,-7.4424,-7.4086,-7.3747,-7.3308,-7.2293,-7.1751,-7.1751,-7.1447,-7.1312,-7.1312,-7.1312,-7.1312,-7.1312,-7.1312,-7.1312,-7.1312,-7.1312,-7.1312,0.0,-7.1312,-7.1312,-7.1312,-7.1312,-7.1518,-7.1713,-7.1266,-7.1546,-7.2265,-7.2563,-7.2647,-7.2906,-7.4654,-7.4047,-7.2905,-7.4428,-7.532,-7.5844,-7.6228,-7.635,-7.6423,-7.6754,-7.6827,-7.69,-7.7231,-7.7304,-7.7304,-7.7304,-7.7304,-7.7304,-7.7304,-7.7304,-7.7304,-7.7304,-7.7304,-7.7304,-7.7304,-7.7304,-7.7304,-7.7304,-7.7304,-7.7304,-7.7304,-7.7304,-7.7304,-7.7304,-7.7304,-7.7304,-7.7304,-7.7304,-7.7304,-7.7304,-7.7011,-7.7031,-7.7422,-7.7328,-7.7454,-7.7679,-7.71,-7.6693,-7.6568,-7.5692,-7.5119,-6.0745,-6.251,-6.3737,-6.3199,-5.9308,-5.5359,-5.4431,-5.0631,-4.7309,-4.7309,-4.7309,-4.7309,-4.7309,-4.8126,-4.8841,-4.8841,-4.9694,-5.1714,-5.5545,-5.6723,-5.9937,0.0,0.0,0.0,0.0,0.0,0.0,0.0,-7.5405,-7.5067,-7.3578,-7.3477,-7.3138,-7.2428,-7.1684,-7.1312,-7.1312,-7.1312,-7.1312,-7.1312,-7.1312,-7.1312,-7.1312,-7.1312,-7.1312,-7.1312,-7.1312,-7.1312,-7.1312,-7.1312,-7.1312,-7.1312,-7.16,-7.2228,-7.2728,-7.2499,-7.3273,-7.4239,-7.4043,-7.3938,-7.4262,-7.5778,-7.5901,-7.5538,-7.6082,-7.6728,-7.7304,-7.7304,-7.7304,-7.7304,-7.7304,-7.7304,-7.7304,-7.7304,-7.7304,-7.7304,-7.7304,-7.7304,-7.7304,-7.7304,-7.7304,-7.7304,-7.7304,-7.7304,-7.7304,-7.7304,-7.7304,-7.7304,-7.7304,-7.7304,-7.7304,-7.7304,-7.7304,-7.7304,-7.7304,-7.7304,-7.7304,-7.7304,-7.7304,-7.7304,-7.7304,-7.751,-7.7826,-7.8309,-7.8653,-7.898,-7.9248,-7.8596,-7.8075,-7.763,-7.6784,-7.6245,-5.8411,-6.0116,-6.1463,-6.275,-5.862,-5.4221,-5.4221,-5.0631,-4.7309,-4.7309,-4.7309,-4.7309,-4.7309,-4.8126,-4.8841,-4.8841,-4.9694,-5.152,-5.481,-5.5963,0.0,0.0,0.0,0.0,0.0,0.0,0.0,0.0,-7.5709,0.0,-7.3578,-7.3477,-7.3138,-7.2428,-7.1684,-7.1312,-7.1312,-7.1312,-7.1312,-7.1312,-7.1312,-7.1312,-7.1312,-7.1312,-7.1312,-7.1312,-7.1312,-7.1312,-7.1312,-7.1312,-7.1312,-7.1401,-7.2448,-7.2797,-7.2962,-7.3928,-7.431,-7.446,-7.5404,-7.5787,-7.5923,-7.6956,-7.7243,-7.7243,-7.7243,-7.7304,-7.7304,-7.7304,-7.7304,-7.7304,-7.7304,-7.7304,-7.7304,-7.7304,-7.7304,-7.7304,-7.7304,-7.7304,-7.7304,-7.7304,-7.7304,-7.7304,-7.7304,-7.7304,-7.7304,-7.7304,-7.7304,-7.7304,-7.7304,-7.7304,-7.7304,-7.7304,-7.7304,-7.7304,-7.7304,-7.7304,-7.7304,-7.7304,-7.7304,-7.7304,-7.7304,-7.796,-7.8309,-7.8309,-7.9469,-8.0048,-8.0087,-7.9867,-7.9323,-7.8477,-7.7669,-7.6823,-5.3803,-5.5359,-5.6496,-5.6915,-5.4581,-5.2037,-5.1588,-4.9314,-4.7309,-4.7309,-4.7309,-4.7309,-4.7309,-4.8708,-4.9852,-4.9852,-5.141,-5.2894,-5.3911,0.0,0.0,0.0,0.0,0.0,0.0,0.0,0.0,0.0,-7.439,-7.4086,-7.209,-7.2462,-7.2428,-7.1684,-7.1447,-7.1312,-7.1312,-7.1312,-7.1312,-7.1312,-7.1312,-7.1312,-7.1312,-7.1312,-7.1312,-7.1312,-7.1312,-7.1312,-7.1312,-7.1312,-7.1688,-7.2364,-7.2666,-7.3615,-7.4903,-7.5192,-7.5754,-7.6432,-7.6728,-7.6793,-7.6856,-7.7181,-7.7304,-7.7304,-7.7304,-7.7304,-7.7304,-7.7304,-7.7304,-7.7304,-7.7304,-7.7304,-7.7304,-7.7304,-7.7304,-7.7304,-7.7304,-7.7304,-7.7304,-7.7304,-7.7304,-7.7304,-7.7304,-7.7304,-7.7304,-7.7304,-7.7304,-7.7304,-7.7304,-7.7304,-7.7304,-7.7304,-7.7304,-7.7304,-7.7304,-7.7304,-7.7304,-7.7304,-7.7304,-7.751,-7.796,-7.82,-7.8704,-7.9513,-7.9888,-8.0315,-8.0783,-8.0145,-7.9054,-7.7669,-7.6823,-7.6245,-5.0062,-5.1887,-5.3204,-5.3713,-5.2127,-5.0451,-5.0272,-4.8716,-4.7309,-4.7309,-4.7309,-4.7366,-4.7764,-4.9247,-5.055,-5.093,-5.2416,-5.3518,-5.3518,0.0,0.0,0.0,0.0,0.0,0.0,0.0,0.0,-7.2868,-7.368,-7.3477,-7.1819,-7.2157,-7.2056,-7.1345,-7.1312,-7.1312,-7.1312,-7.1312,-7.1312,-7.1312,-7.1312,-7.1312,-7.1312,-7.1312,-7.1312,-7.1312,-7.1312,-7.1312,0.0,-7.1688,-7.2193,-7.288,-7.3615,-7.4684,-7.5891,-7.6264,-7.6793,-7.7304,-7.7304,-7.7304,-7.7304,-7.7304,-7.7304,-7.7304,-7.7304,-7.7304,-7.7304,-7.7304,-7.7304,-7.7304,-7.7304,-7.7304,-7.7304,-7.7304,-7.7304,-7.7304,-7.7304,-7.7304,-7.7304,-7.7304,-7.7304,-7.7304,-7.7304,-7.7304,-7.7304,-7.7304,-7.7304,-7.7304,-7.7304,-7.7304,-7.7304,-7.7304,-7.7304,-7.7304,-7.7304,-7.7304,-7.7304,-7.7304,-7.751,-7.7846,-7.8309,-7.8754,-7.9335,-8.0086,-8.0352,-8.0677,-8.1093,-8.0246,-7.9246,-7.8207,-7.7361,-7.6784,0.0,-4.9344,-5.102,-5.2306,-5.078,-4.9164,-4.9823,-4.8536,0.0,-4.7309,-4.7309,-4.7624,-4.8594,-4.9694,-5.0703,-5.1776,-5.28,-5.3518,-5.3518,-5.6224,0.0,0.0,0.0,0.0,0.0,0.0,0.0,-7.3341,-7.3375,-7.3105,-7.236,-7.2326,-7.2022,-7.1345,-7.1312,-7.1312,-7.1312,-7.1312,-7.1312,-7.1312,-7.1312,-7.1312,-7.1312,-7.1312,-7.1312,0.0,-7.1312,-7.1312,-7.1401,-7.2364,-7.288,-7.309,-7.5048,-7.5855,-7.6027,-7.6956,-7.7304,-7.7304,-7.7304,-7.7304,-7.7304,-7.7304,-7.7304,-7.7304,-7.7304,-7.7304,-7.7304,-7.7304,-7.7304,-7.7304,-7.7304,-7.7304,-7.7304,-7.7304,-7.7304,-7.7304,-7.7304,-7.7304,-7.7304,-7.7304,-7.7304,-7.7304,-7.7304,-7.7304,-7.7304,-7.7304,-7.7304,-7.7304,-7.7304,-7.7304,-7.7304,-7.7304,-7.7304,-7.7304,-7.7304,-7.7304,-7.7304,-7.7304,-7.7903,-7.8309,-7.8325,-7.9469,-8.0125,-8.0163,-8.0783,-8.1093,-8.1093,-8.0246,-7.9823,-7.9785,-7.8861,-7.8015,-4.4915,0.0,-4.6142,-4.695,-4.6681,-4.6411,0.0,-4.689,0.0,0.0,0.0,0.0,-4.8594,-4.9694,-5.0703,-5.1776,-5.28,-5.3518,-5.3518,0.0,0.0,0.0,0.0,0.0,0.0,0.0,-7.2428,-7.1853,-7.2326,-7.2326,-7.1616,-7.1582,-7.1481,-7.1312,-7.1312,-7.1312,-7.1312,-7.1312,-7.1312,-7.1312,-7.1312,-7.1312,-7.1312,-7.1312,-7.1312,-7.1312,-7.1312,-7.1312,-7.1401,-7.2364,-7.3252,-7.4082,-7.5263,-7.6264,-7.6956,-7.7181,-7.7304,-7.7304,-7.7304,-7.7304,-7.7304,-7.7304,-7.7304,-7.7304,-7.7304,-7.7304,-7.7304,-7.7304,-7.7304,-7.7304,-7.7304,-7.7304,-7.7304,-7.7304,-7.7304,-7.7304,-7.7304,-7.7304,-7.7304,-7.7304,-7.7304,-7.7304,-7.7304,-7.7304,-7.7304,-7.7304,-7.7304,-7.7304,-7.7304,-7.7304,-7.7304,-7.7304,-7.7304,-7.7304,-7.7304,-7.7304,-7.7304,-7.7304,-7.7903,-7.8536,-7.8962,-7.9685,-8.0352,-8.0855,-8.0991,-8.1093,-8.1093,-8.0246,-7.9823,-7.9746,-7.8284,-7.7476,-4.4137,-4.4317,-4.4556,-4.5514,-4.5753,-4.5933,-4.6621,0.0,0.0,0.0,0.0,0.0,0.0,0.0,-5.0703,-5.1776,-5.28,-5.4093,0.0,0.0,0.0,0.0,0.0,0.0,0.0,0.0,-7.1751,-7.1345,-7.1684,-7.1718,-7.1345,-7.1312,-7.1312,-7.1312,-7.1312,-7.1312,-7.1312,-7.1312,-7.1312,-7.1312,-7.1312,-7.1312,-7.1312,-7.1312,-7.1312,-7.1312,-7.1312,-7.1312,-7.1367,-7.288,-7.3807,-7.446,-7.5891,-7.6793,-7.7304,-7.7304,-7.7304,-7.7304,-7.7304,-7.7304,-7.7304,-7.7304,-7.7304,-7.7304,-7.7304,-7.7304,-7.7304,-7.7304,-7.7304,-7.7304,-7.7304,-7.7304,-7.7304,-7.7304,-7.7304,-7.7304,-7.7304,-7.7304,-7.7304,-7.7304,-7.7304,-7.7304,-7.7304,-7.7304,-7.7304,-7.7304,-7.7304,-7.7304,-7.7304,-7.7304,-7.7304,-7.7304,-7.7304,-7.7304,-7.7304,-7.7304,-7.7304,-7.7304,-7.8163,-7.8853,-7.9198,-8.0086,-8.075,-8.1093,-8.1093,-8.1093,-8.1093,-8.0631,-8.0208,-7.9785,-7.8861,-7.8246,-4.4107,-4.4377,-4.4736,-4.5873,-4.6172,-4.6352,-4.701,0.0,0.0,0.0,0.0,0.0,0.0,0.0,0.0,0.0,0.0,0.0,0.0,0.0,0.0,0.0,0.0,0.0,0.0,-7.1176,-7.1312,-7.1312,-7.1312,-7.1312,-7.1312,-7.1312,-7.1312,-7.1312,-7.1312,-7.1312,-7.1312,-7.1312,-7.1312,-7.1312,-7.1312,-7.1312,-7.1312,-7.1312,-7.1312,-7.1312,-7.1312,-7.1312,-7.1457,-7.3492,-7.431,-7.446,-7.6498,-7.7304,-7.7304,-7.7304,-7.7304,-7.7304,-7.7304,-7.7304,-7.7304,-7.7304,-7.7304,-7.7304,-7.7304,-7.7304,-7.7304,-7.7304,-7.7304,-7.7304,-7.7304,-7.7304,-7.7304,-7.7304,-7.7304,-7.7304,-7.7304,-7.7304,-7.7304,-7.7304,-7.7304,-7.7304,-7.7304,-7.7304,-7.7304,-7.7304,-7.7304,-7.7304,-7.7304,-7.7304,-7.7304,-7.7304,-7.7304,-7.7304,-7.7304,-7.7304,-7.7304,-7.7304,-7.8499,-7.929,-7.9469,-8.0537,-8.1093,-8.1093,-8.1093,-8.1093,-8.1093,-8.1093,-8.0708,-7.9977,-7.9746,-7.9285,-4.3988,-4.4706,-4.5185,-4.5394,-4.5454,-4.5633,-4.6322,0.0,0.0,0.0,0.0,0.0,0.0,0.0,0.0,0.0,0.0,0.0,0.0,0.0,0.0,0.0,0.0,0.0,-6.9519,-7.0567,-7.1312,-7.1312,-7.1312,-7.1312,-7.1312,-7.1312,-7.1312,-7.1312,-7.1312,-7.1312,-7.1312,-7.1312,-7.1312,-7.1312,-7.1312,-7.1312,-7.1312,-7.1312,-7.1312,-7.1312,-7.1312,-7.1312,-7.1457,-7.3492,-7.431,-7.446,-7.6498,-7.7304,-7.7304,-7.7304,-7.7304,-7.7304,-7.7304,-7.7304,-7.7304,-7.7304,-7.7304,-7.7304,-7.7304,-7.7304,-7.7304,-7.7304,-7.7304,-7.7304,-7.7304,-7.7304,-7.7304,-7.7304,-7.7304,-7.7304,-7.7304,-7.7304,-7.7304,-7.7304,-7.7304,-7.7304,-7.7304,-7.7304,-7.7304,-7.7304,-7.7304,-7.7304,-7.7304,-7.7304,-7.7304,-7.7304,-7.7304,-7.7304,-7.7304,-7.7304,-7.7304,-7.7304,-7.8499,-7.968,-8.075,-8.0991,-8.1093,-8.1093,-8.1093,-8.1093,-8.1093,-8.1093,-8.1016,-8.0862,-7.94,-7.9015,-4.3569,-4.4526,-4.5394,-4.5753,-4.6112,-4.6471,-4.677,0.0,0.0,0.0,0.0,0.0,0.0,0.0,0.0,0.0,0.0,0.0,0.0,0.0,0.0,0.0,0.0,-6.9688,-7.0263,-7.0906,-7.1312,-7.1312,-7.1312,-7.1312,-7.1312,-7.1312,-7.1312,-7.1312,-7.1312,-7.1312,-7.1312,-7.1312,-7.1312,-7.1312,-7.1312,-7.1312,-7.1312,-7.1312,-7.1312,-7.1312,-7.1312,-7.1312,-7.1457,-7.3492,-7.431,-7.446,-7.6498,-7.7304,-7.7304,-7.7304,-7.7304,-7.7304,-7.7304,-7.7304,-7.7304,-7.7304,-7.7304,-7.7304,-7.7304,-7.7304,-7.7304,-7.7304,-7.7304,-7.7304,-7.7304,-7.7304,-7.7304,-7.7304,-7.7304,-7.7304,-7.7304,-7.7304,-7.7304,-7.7304,-7.7304,-7.7304,-7.7304,-7.7304,-7.7304,-7.7304,-7.7304,-7.7304,-7.7304,-7.7304,-7.7304,-7.7304,-7.7304,-7.7304,-7.7304,-7.7304,-7.745,-7.7826,-7.8704,-7.96,-8.0499,-8.0888,-8.1093,-8.1093,-8.1093,-8.1093,-8.1093,-8.1093,-8.0862,-8.0362,-7.9092,-7.8707,-4.297,-4.4077,-4.5185,-4.5723,0.0,-4.7339,-4.7489,0.0,0.0,0.0,0.0,0.0,0.0,0.0,0.0,0.0,0.0,0.0,0.0,0.0,0.0,-6.8301,-6.8538,-6.918,-7.1109,-7.1312,-7.1312,-7.1312,-7.1312,-7.1312,-7.1312,-7.1312,-7.1244,-7.1075,-7.121,-7.1244,-7.1041,-7.1041,-7.1142,-7.1312,-7.1312,-7.1312,-7.1312,-7.1142,-7.1142,-7.1312,-7.1142,-7.1142,-7.1457,-7.3492,-7.431,-7.446,-7.6498,-7.7304,-7.7304,-7.7304,-7.7304,-7.7304,-7.7304,-7.7304,-7.7304,-7.7304,-7.7304,-7.7304,-7.7304,-7.7304,-7.7304,-7.7304,-7.7304,-7.7304,-7.7304,-7.7304,-7.7304,-7.7304,-7.7304,-7.7304,-7.7304,-7.7304,-7.7304,-7.7304,-7.7304,-7.7304,-7.7304,-7.7304,-7.7304,-7.7304,-7.7304,-7.7304,-7.7304,-7.7304,-7.7304,-7.7304,-7.7304,-7.7304,-7.7304,-7.7304,-7.751,-7.8072,-7.8804,-7.9469,-8.0086,-8.075,-8.1093,-8.1093,-8.1093,-8.1093,-8.1093,-8.1093,-8.0746,-8.0092,-7.9208,-7.8784,-4.2252,-4.3389,-4.4407,-4.4436,-4.5903,0.0,-4.8087,-4.8207,0.0,0.0,0.0,0.0,0.0,0.0,0.0,0.0,0.0,0.0,0.0,0.0,-6.8402,-7.077,-7.0432,-7.0364,-7.1244,-7.1312,-7.1312,-7.1312,-7.1312,-7.1312,-7.1312,-7.1312,-7.1007,-7.0297,-7.0939,-7.0973,-7.0263,-7.0263,-7.0635,-7.1312,-7.1312,-7.1312,-7.1312,-7.0601,-7.0635,-7.1278,-7.0567,-7.0669,-7.1457,-7.3492,-7.431,-7.446,-7.6498,-7.7304,-7.7304,-7.7304,-7.7304,-7.7304,-7.7304,-7.7304,-7.7304,-7.7304,-7.7304,-7.7304,-7.7304,-7.7304,-7.7304,-7.7304,-7.7304,-7.7304,-7.7304,-7.7304,-7.7304,-7.7304,-7.7304,-7.7304,-7.7304,-7.7304,-7.7304,-7.7304,-7.7304,-7.7304,-7.7304,-7.7304,-7.7304,-7.7304,-7.7304,-7.7304,-7.7304,-7.7304,-7.7304,-7.7304,-7.7304,-7.7304,-7.7304,-7.7304,-7.7304,-7.7365,-7.8551,-7.9469,-8.0086,-8.075,-8.1093,-8.1093,-8.1093,-8.1093,-8.1093,-8.1093,-8.1054,-8.0977,-8.0131,-7.9708,-4.1683,-4.3,-4.4317,-4.4317,0.0,0.0,0.0,0.0,0.0,0.0,0.0,0.0,0.0,0.0,0.0,0.0,0.0,0.0,0.0,-6.8233,-6.8571,-7.0398,-6.9958,-6.9789,-7.0534,-7.0601,-7.0804,-7.1278,-7.1312,-7.1109,-7.0635,-7.0601,-7.0263,-6.9553,-7.0229,-7.0263,-6.9519,-6.9958,-7.0094,-6.9958,-7.0398,-7.0601,-7.0601,-7.0331,-7.0094,-6.9958,-7.0128,-7.0364,-7.0724,-7.2624,-7.3729,-7.446,-7.6498,-7.7304,-7.7304,-7.7304,-7.7304,-7.7304,-7.7304,-7.7304,-7.7304,-7.7304,-7.7304,-7.7304,-7.7304,-7.7304,-7.7304,-7.7304,-7.7304,-7.7304,-7.7304,-7.7304,-7.7304,-7.7304,-7.7304,-7.7304,-7.7304,-7.7304,-7.7304,-7.7304,-7.7304,-7.7304,-7.7304,-7.7304,-7.7304,-7.7304,-7.7304,-7.7304,-7.7304,-7.7304,-7.7304,-7.7304,-7.7304,-7.7304,-7.7304,-7.7304,-7.7304,-7.7304,-7.8146,-7.8914,-7.9513,-8.0125,-8.0643,-8.1093,-8.1093,-8.1093,-8.1093,-8.1093,-8.1093,-8.1093,-8.0208,-7.9823,-4.1384,-4.2671,-4.4018,0.0,0.0,0.0,0.0,0.0,0.0,0.0,0.0,0.0,0.0,0.0,0.0,0.0,0.0,0.0,-6.7657,-6.7772,-6.8132,-6.9654,-6.918,-6.9011,-6.9755,-6.9857,-7.006,-7.0567,-7.0635,-7.0398,-6.9857,-6.9857,-6.9485,-6.8741,-6.9451,-6.9485,-6.8741,-6.9214,-6.935,-6.9113,-6.935,-6.9586,-6.9823,-6.9586,-6.935,-6.9113,-6.935,-6.9755,-7.0284,-7.1863,-7.3326,-7.4903,-7.6664,-7.7304,-7.7304,-7.7304,-7.7304,-7.7304,-7.7304,-7.7304,-7.7304,-7.7304,-7.7304,-7.7304,-7.7304,-7.7304,-7.7304,-7.7304,-7.7304,-7.7304,-7.7304,-7.7304,-7.7304,-7.7304,-7.7304,-7.7304,-7.7304,-7.7304,-7.7304,-7.7304,-7.7304,-7.7304,-7.7304,-7.7304,-7.7304,-7.7304,-7.7304,-7.7304,-7.7304,-7.7304,-7.7304,-7.7304,-7.7304,-7.7304,-7.7304,-7.7304,-7.7304,-7.7304,-7.771,-7.8272,-7.8865,-7.9685,-8.0315,-8.075,-8.0991,-8.1093,-8.1093,-8.1093,-8.1093,-8.1093,-8.0477,-8.0054,-4.1384,-4.2342,-4.3329,0.0,0.0,0.0,0.0,0.0,0.0,0.0,0.0,0.0,0.0,0.0,0.0,-5.5782,-5.9846,-6.3485,-6.5659,-6.641,-6.7387,-6.891,-6.8368,-6.8199,-6.9011,-6.9079,-6.9079,-6.9113,-6.9113,-6.9113,-6.9079,-6.9079,-6.8707,-6.7895,-6.8673,-6.8707,-6.7895,-6.7895,-6.8301,-6.9079,-6.8267,-6.8301,-6.9079,-6.8267,-6.8335,-6.9045,-6.8233,-6.8774,-7.025,-7.1311,-7.33,-7.5855,-7.6856,-7.7304,-7.7304,-7.7304,-7.7304,-7.7304,-7.7304,-7.7304,-7.7304,-7.7304,-7.7304,-7.7304,-7.7304,-7.7304,-7.7304,-7.7304,-7.7304,-7.7304,-7.7304,-7.7304,-7.7304,-7.7304,-7.7304,-7.7304,-7.7304,-7.7304,-7.7304,-7.7304,-7.7304,-7.7304,-7.7304,-7.7304,-7.7304,-7.7304,-7.7304,-7.7304,-7.7304,-7.7304,-7.7304,-7.7304,-7.7304,-7.7304,-7.7304,-7.7304,-7.7304,-7.7304,-7.7304,-7.7629,-7.8255,-7.9425,-8.0086,-8.0125,-8.075,-8.1093,-8.1093,-8.1093,-8.1093,-8.1093,-8.1093,-8.0631,-4.1384,-4.2013,0.0,0.0,0.0,0.0,0.0,0.0,0.0,0.0,0.0,0.0,-5.2426,0.0,0.0,-5.6495,-5.7903,-6.0476,-6.5345,-6.5293,-6.5621,-6.7978,-6.759,-6.7421,-6.8199,-6.8267,-6.8504,-6.9079,-6.9113,-6.8842,-6.8301,-6.8267,-6.7895,-6.7151,-6.7861,-6.7895,-6.7151,-6.7658,-6.776,-6.7489,-6.7252,-6.7523,-6.8233,-6.7996,-6.776,-6.7523,-6.7793,-6.847,-6.9625,-7.1733,-7.289,-7.3262,-7.4951,-7.5983,-7.646,-7.646,-7.6827,-7.7304,-7.7304,-7.7304,-7.7304,-7.7304,-7.7304,-7.7304,-7.7304,-7.7304,-7.7304,-7.7304,-7.7304,-7.7304,-7.7304,-7.7304,-7.7304,-7.7304,-7.7304,-7.7304,-7.7304,-7.7304,-7.7304,-7.7304,-7.7304,-7.7304,-7.7304,-7.7304,-7.7304,-7.7304,-7.7304,-7.7304,-7.7304,-7.7304,-7.7304,-7.7304,-7.7304,-7.7304,-7.7304,-7.7304,-7.7304,-7.7304,-7.7304,-7.7629,-7.8255,-7.8653,-7.9244,-8.0048,-8.0315,-8.0608,-8.1093,-8.1093,-8.1093,-8.1093,-8.1093,-8.0977,-4.1384,-4.2043,0.0,0.0,0.0,0.0,0.0,0.0,0.0,0.0,0.0,-5.4072,-5.3653,-5.3713,0.0,-5.6097,-5.7016,-5.9002,-6.3399,-6.3875,-6.4573,-6.634,-6.6711,-6.6745,-6.6609,-6.7117,-6.7557,-6.7726,-6.776,-6.7658,-6.7489,-6.7184,-6.6948,-6.6812,-6.7252,-6.7252,-6.6812,-6.6948,-6.6948,-6.6812,-6.6508,-6.6745,-6.7455,-6.7455,-6.7218,-6.6846,-6.759,-6.8166,-6.8811,-7.1567,-7.2434,-7.2227,-7.4133,-7.5212,-7.5616,-7.5616,-7.5946,-7.635,-7.635,-7.657,-7.6827,-7.6827,-7.7047,-7.7304,-7.7304,-7.7304,-7.7304,-7.7304,-7.7304,-7.7304,-7.7304,-7.7304,-7.7304,-7.7304,-7.7304,-7.7304,-7.7304,-7.7304,-7.7304,-7.7304,-7.7304,-7.7304,-7.7304,-7.7304,-7.7304,-7.7304,-7.7304,-7.7304,-7.7304,-7.7304,-7.7304,-7.7304,-7.7304,-7.7304,-7.7304,-7.7304,-7.7304,-7.7304,-7.7304,-7.745,-7.7903,-7.8146,-7.8602,-7.938,-7.96,-7.9929,-8.0353,-8.0353,-8.0353,-8.0353,-8.0608,-8.0716,-4.1444,0.0,0.0,-4.4227,-4.5514,0.0,-4.9763,0.0,-5.4281,-5.488,0.0,-5.4431,-5.4311,-5.3832,-5.3862,-5.5089,-5.6732,-5.8556,-6.0485,-6.2386,-6.3769,-6.4402,-6.5714,-6.6102,-6.4816,-6.5865,-6.6339,-6.573,-6.5628,-6.5899,-6.6576,-6.5967,-6.5899,-6.6609,-6.6609,-6.6609,-6.6609,-6.5933,-6.5933,-6.6609,-6.5933,-6.5933,-6.6609,-6.6677,-6.6711,-6.6745,-6.7557,-6.7861,-6.7997,-7.0686,-7.1794,-7.1942,-7.3815,-7.4675,-7.4808,-7.4808,-7.4845,-7.4918,-7.4918,-7.5395,-7.6019,-7.6093,-7.6607,-7.7231,-7.7304,-7.7304,-7.7304,-7.7304,-7.7304,-7.7304,-7.7304,-7.7304,-7.7304,-7.7304,-7.7304,-7.7304,-7.7304,-7.7304,-7.7304,-7.7304,-7.7304,-7.7304,-7.7304,-7.7304,-7.7304,-7.7304,-7.7304,-7.7304,-7.7304,-7.7304,-7.7304,-7.7304,-7.7304,-7.7304,-7.7304,-7.7304,-7.7304,-7.7304,-7.7304,-7.7304,-7.7304,-7.7903,-7.8255,-7.8309,-7.8853,-7.9152,-7.9198,-7.9198,-7.9198,-7.9198,-7.9727,-8.0048,-4.2013,-4.2731,0.0,0.0,-4.686,-4.9045,-5.0661,-5.2247,-5.3443,-5.3593,-5.5149,-5.6166,-5.5149,-5.5299,-5.5628,-5.5927,-5.5932,-5.6625,-5.9145,-6.0262,-6.1353,-6.2987,-6.4321,-6.5189,-6.5425,-6.5222,-6.5256,-6.5662,-6.5155,-6.4918,-6.5053,-6.4918,-6.4918,-6.5087,-6.5087,-6.5087,-6.5087,-6.4918,-6.4918,-6.5087,-6.4918,-6.4918,-6.5087,-6.5662,-6.5933,-6.6,-6.732,-6.7557,-6.7167,-6.9129,-7.0033,-7.0345,-7.147,-7.2765,-7.3964,-7.3964,-7.4368,-7.4918,-7.4918,-7.5028,-7.5285,-7.5909,-7.624,-7.6497,-7.7121,-7.7304,-7.7304,-7.7304,-7.7304,-7.7304,-7.7304,-7.7304,-7.7304,-7.7304,-7.7304,-7.7304,-7.7304,-7.7304,-7.7304,-7.7304,-7.7304,-7.7304,-7.7304,-7.7304,-7.7304,-7.7304,-7.7304,-7.7304,-7.7304,-7.7304,-7.7304,-7.7304,-7.7304,-7.7304,-7.7304,-7.7304,-7.7304,-7.7304,-7.7304,-7.7304,-7.7304,-7.7426,-7.7768,-7.8309,-7.8432,-7.8754,-7.9198,-7.9198,-7.9198,-7.9198,-7.9335,-7.9642,-4.1803,0.0,0.0,-4.5843,0.0,0.0,-5.093,-5.2007,-5.2785,-5.3114,-5.479,-5.5867,-5.491,-5.5269,-5.5718,-5.5718,-5.5418,-5.5892,-5.7855,-5.8656,-5.95,-6.0712,-6.259,-6.3635,-6.33,-6.405,-6.4613,-6.4647,-6.4309,-6.4241,-6.458,-6.4275,-6.4241,-6.458,-6.4613,-6.4613,-6.4613,-6.4241,-6.4241,-6.4613,-6.4241,-6.4072,-6.4106,-6.485,-6.5155,-6.5222,-6.6339,-6.6609,-6.6422,-6.8097,-6.8879,-6.9095,-7.0535,-7.1666,-7.2474,-7.2966,-7.3377,-7.3744,-7.3744,-7.4001,-7.4404,-7.4808,-7.5212,-7.5616,-7.6019,-7.6423,-7.6754,-7.6754,-7.7011,-7.7304,-7.7304,-7.7304,-7.7304,-7.7304,-7.7304,-7.7304,-7.7304,-7.7304,-7.7304,-7.7304,-7.7304,-7.7304,-7.7304,-7.7304,-7.7304,-7.7304,-7.7304,-7.7304,-7.7304,-7.7304,-7.7304,-7.7304,-7.7304,-7.7304,-7.7304,-7.7304,-7.7304,-7.7304,-7.7304,-7.7304,-7.7304,-7.7304,-7.745,-7.7789,-7.7826,-7.7979,-7.8288,-7.8288,-7.8288,-7.8288,-7.8602,-7.8951,-4.1384,0.0,-4.4766,-4.6651,-4.8117,0.0,-5.0451,-5.1409,-5.2157,-5.2576,-5.3832,-5.467,-5.4132,-5.4491,-5.488,-5.4999,-5.491,-5.528,-5.6511,-5.7267,-5.7965,-5.8423,-6.0825,-6.1969,-6.0882,-6.2747,-6.3903,-6.3531,-6.326,-6.3463,-6.4174,-6.3632,-6.3531,-6.4005,-6.414,-6.4174,-6.4038,-6.3565,-6.3632,-6.4208,-6.3599,-6.3328,-6.3328,-6.3937,-6.4275,-6.4444,-6.5189,-6.5561,-6.5812,-6.7044,-6.7826,-6.8343,-6.9845,-7.0656,-7.1223,-7.2011,-7.2343,-7.2496,-7.2496,-7.2936,-7.3523,-7.3634,-7.4147,-7.4735,-7.4882,-7.5469,-7.6056,-7.5946,-7.657,-7.7304,-7.7157,-7.7231,-7.7304,-7.7304,-7.7304,-7.7304,-7.7304,-7.7304,-7.7304,-7.7304,-7.7304,-7.7304,-7.7304,-7.7304,-7.7304,-7.7304,-7.7304,-7.7304,-7.7304,-7.7304,-7.7304,-7.7304,-7.7304,-7.7304,-7.7304,-7.7304,-7.7304,-7.7304,-7.7304,-7.7304,-7.7304,-7.7304,-7.7304,-7.7304,-7.7304,-7.7304,-7.7304,-7.7304,-7.7304,-7.7304,-7.7846,-7.8126,0.0,0.0,-4.4646,0.0,-4.7429,-4.8476,0.0,0.0,-5.1199,0.0,-5.2127,-5.3414,-5.3324,-5.3384,-5.3653,-5.4251,-5.3832,-5.3961,-5.52,-5.5949,-5.6528,-5.7183,-5.9419,-6.1047,-6.1475,-6.1642,-6.2245,-6.3429,-6.2313,-6.1907,-6.2651,-6.2584,-6.2279,-6.1772,-6.2347,-6.2381,-6.1738,-6.2279,-6.2584,-6.2685,-6.2584,-6.255,-6.255,-6.2651,-6.3057,-6.37,-6.4444,-6.5121,-6.5662,-6.525,-6.6337,-6.8119,-6.7765,-6.907,-7.1095,-7.1223,-7.1794,-7.2496,-7.2496,-7.2569,-7.2789,-7.345,-7.378,-7.4001,-7.4698,-7.5469,-7.5946,-7.5285,-7.6166,-7.7157,-7.646,-7.679,-7.7304,-7.7304,-7.7304,-7.7304,-7.7304,-7.7304,-7.7304,-7.7304,-7.7304,-7.7304,-7.7304,-7.7304,-7.7304,-7.7304,-7.7304,-7.7304,-7.7304,-7.7304,-7.7304,-7.7304,-7.7304,-7.7304,-7.7304,-7.7304,-7.7304,-7.7304,-7.7304,-7.7304,-7.7304,-7.7304,-7.7304,-7.7304,-7.7304,-7.7304,-7.7304,-7.7304,-7.7304,-7.7304,-7.7426,-7.7398,-4.2192,-4.3359,-4.4646,0.0,-4.704,-4.7848,-4.8207,0.0,-5.0152,-5.0212,-5.093,-5.1768,-5.2486,-5.2935,-5.3294,-5.3593,-5.3384,-5.3384,-5.3982,-5.4262,-5.4526,-5.4831,-5.6369,-5.7973,-5.9383,-5.9696,-6.0403,-6.2099,-6.1264,-6.0757,-6.1095,-6.1095,-6.096,-6.0655,-6.0926,-6.096,-6.0622,-6.096,-6.1332,-6.1772,-6.1772,-6.2009,-6.2381,-6.2381,-6.2584,-6.2922,-6.3666,-6.4174,-6.4478,-6.4546,-6.5277,-6.6234,-6.6367,-6.7504,-6.8929,-6.9519,-7.057,-7.1732,-7.1732,-7.2071,-7.2569,-7.2899,-7.3046,-7.3083,-7.345,-7.4111,-7.4771,-7.4882,-7.5726,-7.6644,-7.6754,-7.7047,-7.7304,-7.7304,-7.7304,-7.7304,-7.7304,-7.7304,-7.7304,-7.7304,-7.7304,-7.7304,-7.7304,-7.7304,-7.7304,-7.7304,-7.7304,-7.7304,-7.7304,-7.7304,-7.7304,-7.7304,-7.7304,-7.7304,-7.7304,-7.7304,-7.7304,-7.7304,-7.7304,-7.7304,-7.7304,-7.7304,-7.7304,-7.7304,-7.7304,-7.7304,-7.7304,-7.7304,-7.7304,-7.7304,-7.7304,-7.7045,0.0,0.0,-4.4347,-4.5514,-4.6441,-4.7189,0.0,0.0,-4.8955,0.0,-4.9883,-5.0331,-5.1498,-5.2247,-5.2725,-5.2905,-5.2785,-5.2785,-5.3144,-5.3025,-5.2995,-5.3144,-5.4232,-5.559,-5.6963,-5.78,-5.888,-6.0427,-6.0097,-5.9911,-6.008,-6.0114,-6.0013,-5.9844,-6.0013,-6.0013,-5.981,-6.0013,-6.0419,-6.0994,-6.1197,-6.1603,-6.211,-6.2313,-6.2381,-6.2415,-6.299,-6.3328,-6.3531,-6.3903,-6.4275,-6.4661,-6.5147,-6.5952,-6.6954,-6.7655,-6.8993,-7.0512,-7.0706,-7.1391,-7.2167,-7.2438,-7.2496,-7.2496,-7.2496,-7.3046,-7.378,-7.4184,-7.5028,-7.5909,-7.6276,-7.657,-7.6754,-7.6974,-7.7011,-7.7084,-7.7268,-7.7304,-7.7304,-7.7304,-7.7304,-7.7304,-7.7304,-7.7304,-7.7304,-7.7304,-7.7304,-7.7304,-7.7304,-7.7304,-7.7304,-7.7304,-7.7304,-7.7304,-7.7304,-7.7304,-7.7304,-7.7304,-7.7304,-7.7304,-7.7304,-7.7304,-7.7231,-7.7011,-7.7011,-7.7011,-7.7011,-7.7011,-7.7011,-7.7011,-7.679,-7.6387,0.0,-4.288,0.0,-4.4257,-4.5394,0.0,0.0,0.0,0.0,-4.8267,-4.8865,-4.9523,-5.0212,-5.087,-5.1528,-5.2157,-5.1738,-5.1768,-5.2995,-5.2636,-5.2486,-5.3114,-5.4232,-5.5069,-5.5191,-5.655,-5.78,-5.8606,-5.8907,-5.937,-6.0047,-6.0114,-5.9776,-5.9099,-5.9742,-5.9776,-5.9066,-5.9742,-6.0114,-6.0182,-6.0926,-6.1332,-6.1366,-6.2076,-6.2381,-6.2381,-6.2415,-6.2854,-6.3463,-6.2787,-6.3328,-6.4546,-6.3916,-6.4615,-6.6081,-6.6155,-6.7267,-6.8851,-6.9785,-7.0545,-7.1286,-7.2226,-7.2496,-7.2496,-7.2496,-7.3046,-7.356,-7.2826,-7.3744,-7.4808,-7.4074,-7.4441,-7.5212,-7.5983,-7.6166,-7.6387,-7.7157,-7.7304,-7.7304,-7.7304,-7.7304,-7.7304,-7.7304,-7.7304,-7.7304,-7.7304,-7.7304,-7.7304,-7.7304,-7.7304,-7.7304,-7.7304,-7.7304,-7.7304,-7.7304,-7.7304,-7.7304,-7.7304,-7.7304,-7.7304,-7.7304,-7.7304,-7.6937,-7.6166,-7.6166,-7.6166,-7.6166,-7.6166,-7.6166,-7.613,-7.5395,-7.5028,0.0,0.0,0.0,-4.4137,-4.4676,-4.5244,-4.6112,-4.6501,-4.686,-4.7519,-4.8177,-4.8835,-4.9494,-5.0152,-5.081,-5.1468,-5.1379,-5.1379,-5.1858,-5.1708,-5.1648,-5.1887,-5.1904,-5.2551,-5.4171,-5.4033,-5.4948,-5.7573,-5.7454,-5.7649,-5.866,-5.8254,-5.8084,-5.8287,-5.7645,-5.7374,-5.7611,-5.8321,-5.893,-5.9404,-5.9708,-6.008,-6.0554,-6.0791,-6.0926,-6.096,-6.1467,-6.211,-6.2753,-6.2516,-6.2685,-6.3159,-6.2888,-6.343,-6.4357,-6.4357,-6.5462,-6.7018,-6.7341,-6.877,-7.0464,-7.0749,-7.161,-7.2496,-7.2496,-7.2716,-7.2973,-7.3193,-7.367,-7.4184,-7.4404,-7.4698,-7.4992,-7.5285,-7.5726,-7.6166,-7.646,-7.6937,-7.7304,-7.7304,-7.7304,-7.7304,-7.7304,-7.7304,-7.7304,-7.7304,-7.7304,-7.7304,-7.7304,-7.7304,-7.7304,-7.7304,-7.7304,-7.7304,-7.7304,-7.7304,-7.7304,-7.7304,-7.7304,-7.7304,-7.7304,-7.7304,-7.6937,-7.613,-7.6093,-7.5836,-7.5322,-7.5322,-7.5322,-7.5322,-7.5028,-7.4625,-4.0786,0.0,0.0,0.0,0.0,-4.4556,-4.5454,0.0,-4.5843,-4.6501,-4.716,-4.7908,-4.8775,-4.9284,-4.9793,-5.0451,-5.0571,-5.0571,-5.0571,-5.0571,-5.0571,-5.0571,-5.0182,-5.0577,-5.2303,-5.2105,-5.2847,-5.502,-5.581,-5.6316,-5.6593,-5.6757,-5.69,-5.7137,-5.6224,-5.5953,-5.6427,-5.7171,-5.778,-5.8287,-5.8761,-5.9268,-5.9742,-5.9979,-6.0114,-6.0148,-6.0655,-6.1332,-6.2042,-6.2279,-6.2381,-6.2381,-6.2381,-6.2685,-6.3125,-6.3125,-6.4006,-6.5206,-6.5515,-6.6989,-6.8761,-6.9381,-7.0375,-7.134,-7.1961,-7.2092,-7.2275,-7.3083,-7.3303,-7.3413,-7.3964,-7.4294,-7.4515,-7.4515,-7.5102,-7.5689,-7.5689,-7.657,-7.7304,-7.7304,-7.7304,-7.7304,-7.7304,-7.7304,-7.7304,-7.7304,-7.7304,-7.7304,-7.7304,-7.7304,-7.7304,-7.7304,-7.7304,-7.7304,-7.7304,-7.7304,-7.7304,-7.7304,-7.7304,-7.7304,-7.7304,-7.7304,-7.6937,-7.613,-7.5836,-7.5322,-7.4515,-7.4515,-7.4515,-7.4478,-7.4221,-7.3817,0.0,0.0,0.0,0.0,0.0,0.0,-4.4317,0.0,-4.4496,-4.5155,-4.5843,-4.6681,-4.7967,-4.8207,-4.8446,-4.9075,-4.9224,-4.9254,-4.9254,-4.9254,-4.9254,-4.9254,-4.9254,-4.9254,-4.9254,-5.0808,-5.1537,-5.0971,-5.41,-5.5435,-5.4161,-5.5716,-5.6356,-5.5683,-5.5683,-5.5716,-5.5683,-5.6393,-5.6765,-5.6799,-5.822,-5.893,-5.8964,-5.9674,-6.0013,-6.0047,-6.0047,-6.052,-6.1298,-6.2042,-6.2347,-6.2347,-6.2381,-6.2381,-6.2381,-6.2381,-6.2854,-6.3623,-6.4531,-6.5313,-6.6307,-6.8106,-6.8749,-6.9054,-7.0705,-7.1228,-7.1411,-7.2239,-7.2496,-7.2496,-7.2496,-7.3083,-7.367,-7.367,-7.4294,-7.4882,-7.4882,-7.613,-7.7268,-7.7268,-7.7268,-7.7268,-7.7268,-7.7268,-7.7268,-7.7268,-7.7304,-7.7304,-7.7304,-7.7304,-7.7304,-7.7304,-7.7304,-7.7304,-7.7304,-7.7304,-7.7304,-7.7304,-7.7304,-7.7304,-7.7304,-7.7304,-7.6937,-7.6093,-7.5322,-7.4478,-7.367,-7.367,-7.367,-7.3634,-7.2863,-7.2496,-4.1324,0.0,0.0,0.0,0.0,0.0,0.0,0.0,-4.4496,-4.5155,-4.5454,-4.5693,-4.6052,-4.6531,-4.692,-4.71,-4.8327,-4.9254,-4.9254,-4.9254,-4.9254,-4.9254,-4.8835,-4.8745,-4.9224,-4.9342,-4.9748,0.0,-5.1811,-5.2536,-5.2986,-5.4185,-5.4601,-5.416,-5.5141,-5.5446,-5.4905,-5.5649,-5.6021,-5.6021,-5.6427,-5.69,-5.7408,-5.7611,-5.7983,-5.8524,-5.9066,-5.9438,-5.9742,-6.1061,-6.1603,-6.167,-6.2178,-6.2381,-6.2381,-6.2381,-6.2516,-6.2764,-6.3042,-6.4064,-6.5287,-6.5829,-6.6807,-6.8011,-6.9162,-6.9878,-7.0544,-7.1369,-7.2055,-7.2496,-7.2496,-7.2679,-7.2826,-7.2826,-7.345,-7.4037,-7.4037,-7.4845,-7.5579,-7.5579,-7.5579,-7.5579,-7.5579,-7.6056,-7.6423,-7.6423,-7.6937,-7.7304,-7.7304,-7.7304,-7.7304,-7.7304,-7.7304,-7.7304,-7.7304,-7.7304,-7.7304,-7.7304,-7.7304,-7.7304,-7.7304,-7.7304,-7.668,-7.5285,-7.5028,-7.4221,-7.2826,-7.2826,-7.2826,-7.2826,-7.2606,-7.2496,-4.1863,-4.2282,-4.2821,-4.309,0.0,0.0,-4.3389,-4.3509,-4.3539,0.0,-4.3868,-4.4167,-4.4436,-4.5035,-4.5484,-4.5484,-4.692,-4.8147,-4.8416,-4.8446,-4.8446,-4.8446,-4.8117,-4.8027,-4.8416,-4.8356,-4.8648,-4.9371,-5.0345,-5.1288,-5.2061,-5.278,-5.3102,-5.2834,-5.4089,-5.46,-5.416,-5.4871,-5.5243,-5.5243,-5.5581,-5.5953,-5.6359,-5.6359,-5.6731,-5.7476,-5.7915,-5.8254,-5.8626,-5.9844,-6.052,-6.0858,-6.1264,-6.1434,-6.1467,-6.1806,-6.1941,-6.1975,-6.2279,-6.3085,-6.3893,-6.4304,-6.5055,-6.6073,-6.7338,-6.8283,-6.9162,-7.0046,-7.1128,-7.2092,-7.2422,-7.2496,-7.2496,-7.2496,-7.2863,-7.3193,-7.3193,-7.356,-7.4111,-7.4771,-7.4918,-7.4918,-7.4918,-7.5285,-7.5616,-7.5616,-7.6019,-7.6313,-7.6313,-7.6313,-7.6313,-7.6313,-7.6313,-7.6313,-7.6313,-7.6313,-7.6313,-7.6313,-7.6313,-7.6313,-7.6313,-7.6313,-7.5873,-7.4918,-7.4588,-7.378,-7.2496,-7.2496,-7.2496,-7.2496,-7.2496,-7.2496,-4.2791,-4.294,-4.3389,-4.4047,-4.3718,0.0,-4.2581,-4.2462,-4.2312,0.0,-4.2162,-4.2761,-4.3329,-4.4047,-4.4526,-4.4526,-4.5544,-4.6531,-4.713,-4.7249,-4.7309,-4.7309,-4.7309,-4.7309,-4.7309,-4.7848,-4.7938,-4.7339,-4.931,-5.0746,-5.1357,-5.1554,-5.1849,-5.2065,-5.3008,-5.3518,-5.3518,-5.416,-5.4465,-5.4465,-5.5141,-5.5513,-5.5581,-5.5581,-5.5987,-5.6697,-5.6697,-5.7036,-5.7712,-5.8457,-5.9235,-5.9979,-6.008,-6.0114,-6.0182,-6.0892,-6.1231,-6.14,-6.2042,-6.2313,-6.2537,-6.3314,-6.3574,-6.3823,-6.5441,-6.6595,-6.7518,-6.8533,-6.9937,-7.1358,-7.2165,-7.2386,-7.2386,-7.2496,-7.2496,-7.2496,-7.2496,-7.2496,-7.2936,-7.4368,-7.4625,-7.4625,-7.4625,-7.4735,-7.4771,-7.4771,-7.4845,-7.4918,-7.4918,-7.4918,-7.4918,-7.4918,-7.4918,-7.4918,-7.4918,-7.4918,-7.4918,-7.4918,-7.4918,-7.4918,-7.4918,-7.4918,-7.4882,-7.4771,-7.3964,-7.3193,-7.2496,-7.2496,-7.2496,-7.2496,-7.2496,-7.2496,-4.4317,-4.3658,-4.2701,-4.3359,-4.303,0.0,-4.306,-4.315,-4.3269,0.0,-4.3838,-4.3958,-4.4107,-4.5125,-4.5933,-4.5933,-4.6142,-4.6381,-4.6501,-4.698,-4.7309,-4.7309,-4.7309,-4.7309,-4.7309,-4.7429,-4.7429,-4.7309,-4.7779,-4.8798,-5.0543,-5.0615,-5.1484,-5.311,-5.3416,-5.3518,-5.3518,-5.3653,-5.3721,-5.3721,-5.3856,-5.4228,-5.4803,-5.4803,-5.5209,-5.5919,-5.5919,-5.6021,-5.619,-5.6934,-5.8017,-5.9268,-5.9877,-6.0114,-6.0114,-6.0283,-6.0757,-6.1332,-6.1467,-6.1907,-6.2459,-6.2581,-6.2659,-6.2813,-6.3892,-6.4776,-6.5899,-6.8183,-6.9536,-7.0513,-7.1321,-7.1541,-7.1725,-7.2349,-7.2496,-7.2496,-7.2496,-7.2496,-7.2606,-7.2899,-7.2973,-7.2973,-7.2973,-7.3523,-7.3927,-7.3927,-7.4478,-7.4918,-7.4918,-7.4918,-7.4918,-7.4918,-7.4918,-7.4918,-7.4918,-7.4918,-7.4918,-7.4918,-7.4918,-7.4918,-7.4918,-7.4918,-7.4588,-7.3927,-7.3156,-7.2679,-7.2496,-7.2496,-7.2496,-7.2496,-7.2496,-7.2496,-4.4526,-4.3838,-4.291,-4.324,-4.309,0.0,0.0,-4.2851,-4.294,-4.3269,-4.309,-4.294,-4.3269,-4.3898,-4.4436,-4.4766,-4.4825,-4.5185,-4.6172,-4.6322,-4.6292,-4.6292,-4.6292,-4.6292,-4.6292,-4.6621,-4.68,-4.68,-4.713,-4.7643,-4.8295,-4.9662,-5.0855,-5.1954,-5.2972,-5.3518,-5.3518,-5.3518,-5.3518,-5.3518,-5.3518,-5.3687,-5.4059,-5.4059,-5.4465,-5.5141,-5.5141,-5.5378,-5.575,-5.6122,-5.6697,-5.7476,-5.8558,-5.8998,-5.9032,-5.9438,-5.981,-6.0216,-6.0588,-6.0926,-6.1298,-6.1704,-6.1839,-6.1985,-6.2795,-6.3664,-6.4774,-6.6891,-6.8076,-6.9018,-7.0314,-7.092,-7.1441,-7.227,-7.2496,-7.2496,-7.2496,-7.2496,-7.2496,-7.2496,-7.2496,-7.2496,-7.2496,-7.2826,-7.3083,-7.3083,-7.345,-7.3707,-7.3707,-7.3707,-7.3707,-7.3707,-7.3707,-7.3707,-7.3707,-7.3707,-7.3707,-7.3707,-7.3707,-7.3707,-7.3707,-7.3707,-7.3523,-7.312,-7.2716,-7.2496,-7.2496,-7.2496,-7.2496,-7.2496,-7.2496,-7.2496,-4.4796,-4.4227,-4.3539,-4.3688,-4.3509,-4.318,0.0,0.0,0.0,-4.2551,0.0,0.0,-4.2641,0.0,0.0,-4.3629,0.0,0.0,0.0,-4.5633,0.0,-4.5813,-4.5304,-4.5125,-4.5633,-4.6172,-4.6411,-4.6142,-4.686,-4.7096,-4.6575,-4.8667,-5.0115,-5.0703,-5.2345,-5.328,-5.3518,-5.3518,-5.3518,-5.3518,-5.3518,-5.3518,-5.3518,-5.3518,-5.3822,-5.4397,-5.4397,-5.4735,-5.531,-5.5446,-5.5513,-5.5649,-5.7103,-5.7679,-5.778,-5.8524,-5.8964,-5.9302,-5.9911,-6.0216,-6.0452,-6.1264,-6.1501,-6.1637,-6.2212,-6.2973,-6.3967,-6.5302,-6.6244,-6.7256,-6.8837,-6.9713,-7.0382,-7.1284,-7.1692,-7.1824,-7.197,-7.2123,-7.2312,-7.2459,-7.2496,-7.2496,-7.2496,-7.2496,-7.2496,-7.2496,-7.2496,-7.2496,-7.2496,-7.2496,-7.2496,-7.2496,-7.2496,-7.2496,-7.2496,-7.2496,-7.2496,-7.2496,-7.2496,-7.2496,-7.2496,-7.2496,-7.2496,-7.2496,-7.2496,-7.2496,-7.2496,-7.2496,-7.2496,-7.2496,-7.2496,-7.2496,-4.6471,-4.5603,-4.4347,-4.4915,-4.4197,-4.3299,-4.324,0.0,-4.324,-4.324,0.0,-4.3988,-4.4077,0.0,0.0,0.0,0.0,0.0,-4.5394,-4.5334,-4.5963,-4.7728,-4.5364,-4.4496,-4.686,-4.716,-4.6711,-4.5514,-4.6591,-4.7407,-4.7639,-4.796,-4.9187,-5.1671,-5.1993,-5.2557,-5.3518,-5.3518,-5.3518,-5.3518,-5.3518,-5.3518,-5.3518,-5.3518,-5.3551,-5.3619,-5.3619,-5.3687,-5.3822,-5.4465,-5.4702,-5.4871,-5.6359,-5.6934,-5.7002,-5.7746,-5.8863,-5.9979,-6.008,-6.0554,-6.1298,-6.2009,-6.2279,-6.2279,-6.2347,-6.2973,-6.3719,-6.3967,-6.4602,-6.5424,-6.6372,-6.6723,-6.6936,-6.7745,-6.865,-6.9441,-7.0129,-7.0894,-7.1651,-7.2349,-7.2496,-7.2496,-7.2496,-7.2496,-7.2496,-7.2496,-7.2496,-7.2496,-7.2496,-7.2496,-7.2496,-7.2496,-7.2496,-7.2496,-7.2496,-7.2496,-7.2496,-7.2496,-7.2496,-7.2496,-7.2496,-7.2496,-7.2496,-7.2496,-7.2496,-7.2496,-7.2496,-7.2496,-7.2496,-7.2496,-7.2496,-7.2496,-4.6211,-4.5094,-4.3578,-4.4482,-4.3501,-4.2467,-4.317,-4.3329,-4.3449,-4.3838,0.0,0.0,0.0,0.0,0.0,0.0,-4.4077,-4.3988,0.0,0.0,-4.3898,-4.6262,-4.5334,-4.4915,-4.6022,-4.6142,-4.5753,-4.4796,-4.5963,-4.6431,-4.5779,-4.7096,-4.8624,-5.0357,-5.1368,-5.2383,-5.3518,-5.3518,-5.3518,-5.3518,-5.3518,-5.3518,-5.3518,-5.3518,-5.3518,-5.3518,-5.3518,-5.3518,-5.3518,-5.3822,-5.3957,-5.4059,-5.5108,-5.6055,-5.69,-5.7611,-5.8287,-5.8829,-5.8829,-5.9032,-5.9438,-6.0182,-6.1028,-6.1772,-6.1772,-6.2013,-6.2385,-6.2795,-6.3508,-6.43,-6.5231,-6.5758,-6.632,-6.7161,-6.7674,-6.8213,-6.9084,-6.96,-7.0251,-7.1537,-7.1798,-7.1945,-7.2422,-7.2496,-7.2496,-7.2496,-7.2496,-7.2496,-7.2496,-7.2496,-7.2496,-7.2496,-7.2496,-7.2496,-7.2496,-7.2496,-7.2496,-7.2496,-7.2496,-7.2496,-7.2496,-7.2496,-7.2496,-7.2496,-7.2496,-7.2496,-7.2496,-7.2496,-7.2496,-7.2496,-7.2496,-7.2496,-4.5713,-4.4637,-4.3166,-4.4311,-4.3478,-4.2509,-4.312,-4.3479,-4.3688,-4.3988,-4.3808,0.0,0.0,0.0,-4.3479,-4.3958,0.0,-4.3389,-4.4825,-4.3539,-4.3299,-4.5574,-4.5843,-4.5633,-4.5095,-4.5514,-4.5424,-4.4377,-4.5574,-4.5723,-4.4377,-4.6072,-4.7681,-4.8929,-5.0317,-5.1704,-5.3041,-5.3041,-5.3179,-5.3518,-5.3518,-5.3518,-5.3518,-5.3518,-5.3518,-5.3518,-5.3518,-5.3518,-5.3518,-5.3518,-5.3518,-5.3585,-5.4296,-5.5243,-5.6325,-5.7239,-5.7848,-5.8186,-5.8186,-5.8321,-5.8558,-5.8896,-5.9911,-6.096,-6.096,-6.1129,-6.14,-6.1941,-6.2618,-6.3351,-6.4064,-6.4594,-6.5199,-6.5861,-6.6216,-6.6633,-6.7552,-6.7948,-6.8516,-6.9963,-7.0205,-7.0543,-7.134,-7.2087,-7.2496,-7.2496,-7.2496,-7.2496,-7.2496,-7.2496,-7.2496,-7.2496,-7.2496,-7.2496,-7.2496,-7.2496,-7.2496,-7.2496,-7.2496,-7.2496,-7.2496,-7.2496,-7.2496,-7.2496,-7.2496,-7.2496,-7.2496,-7.2496,-7.2496,-7.2496,-7.2496,-7.2496,-4.5595,-4.4991,-4.3834,-4.4995,-4.4766,-4.4026,-4.3479,-4.3838,-4.4107,-4.3479,-4.3838,-4.4107,-4.3479,-4.3329,-4.3329,-4.3359,-4.3868,0.0,0.0,-4.4825,-4.5693,-4.707,-4.7249,-4.6471,-4.4526,-4.6112,-4.6441,-4.4466,-4.5574,-4.5723,-4.4377,-4.4945,-4.6152,-4.7787,-4.855,-4.9899,-5.1921,-5.1921,-5.2454,-5.3518,-5.3518,-5.3518,-5.3518,-5.3518,-5.3518,-5.3518,-5.3518,-5.3518,-5.3518,-5.3518,-5.3518,-5.3585,-5.4296,-5.4634,-5.4837,-5.6292,-5.7746,-5.8964,-5.8964,-5.9438,-5.9911,-5.9235,-5.9539,-6.0148,-6.0148,-6.0689,-6.1298,-6.1332,-6.1873,-6.2415,-6.2493,-6.2527,-6.2527,-6.2527,-6.3193,-6.4069,-6.4836,-6.5689,-6.6518,-6.733,-6.7575,-6.7843,-6.8759,-7.093,-7.2496,-7.2496,-7.2496,-7.2496,-7.2496,-7.2496,-7.2496,-7.2496,-7.2496,-7.2496,-7.2496,-7.2496,-7.2496,-7.2496,-7.2496,-7.2496,-7.2496,-7.2496,-7.2496,-7.2496,-7.2496,-7.2496,-7.2496,-7.2496,-7.2496,-7.2496,-7.2496,-7.2496,-4.5149,-4.4343,-4.3141,-4.3833,-4.3303,-4.2573,-4.2694,-4.3212,-4.3599,-4.3389,-4.3509,-4.3599,-4.3359,-4.3329,-4.3329,-4.3329,-4.3509,-4.3658,0.0,-4.4227,-4.4825,-4.5274,-4.5723,-4.5873,-4.5663,-4.5454,-4.4855,-4.3748,-4.4077,-4.3958,-4.306,-4.4047,-4.5193,-4.6485,-4.757,-4.8844,-5.0186,-5.1368,-5.2065,-5.2454,-5.3179,-5.3518,-5.3518,-5.3518,-5.3518,-5.3518,-5.3518,-5.3518,-5.3518,-5.3518,-5.3518,-5.3518,-5.3788,-5.416,-5.4769,-5.6258,-5.7137,-5.7611,-5.8084,-5.8761,-5.9268,-5.8524,-5.8761,-5.9471,-5.9945,-6.0283,-6.0723,-6.1738,-6.2212,-6.2381,-6.2381,-6.2381,-6.2381,-6.2381,-6.2659,-6.3042,-6.3885,-6.4354,-6.4988,-6.6347,-6.6624,-6.6869,-6.7736,-6.86,-6.9507,-7.071,-7.1358,-7.1725,-7.1725,-7.2165,-7.2496,-7.2496,-7.2496,-7.2496,-7.2496,-7.2496,-7.2496,-7.2496,-7.2496,-7.2496,-7.2496,-7.2496,-7.2496,-7.2496,-7.2496,-7.2496,-7.2496,-7.2496,-7.2496,-7.2496,-7.2496,-7.2496,-4.4525,-4.3814,-4.2794,-4.3568,-4.3157,-4.2631,-4.2986,-4.3537,-4.3898,-4.3449,-4.3718,-4.3748,-4.2821,-4.303,-4.3269,-4.303,-4.318,-4.3269,0.0,-4.3539,-4.3958,-4.3988,-4.4975,-4.5633,-4.5603,-4.5244,-4.4466,-4.309,-4.321,-4.306,-4.2402,-4.3389,-4.4368,-4.5262,-4.6578,-4.7738,-4.8776,-5.0165,-5.1155,-5.1921,-5.2627,-5.311,-5.3518,-5.3518,-5.3518,-5.3518,-5.3518,-5.3518,-5.3518,-5.3518,-5.3518,-5.3518,-5.3518,-5.3788,-5.4363,-5.5581,-5.6359,-5.69,-5.7645,-5.822,-5.8524,-5.8051,-5.822,-5.8693,-5.9167,-5.9674,-6.0351,-6.1637,-6.2178,-6.2448,-6.2719,-6.2584,-6.2381,-6.2381,-6.2381,-6.2503,-6.3124,-6.3274,-6.3526,-6.4598,-6.4845,-6.5127,-6.5935,-6.611,-6.6901,-6.9259,-7.0296,-7.0961,-7.1264,-7.2018,-7.2496,-7.2496,-7.2496,-7.2386,-7.2092,-7.2349,-7.2386,-7.2092,-7.2349,-7.2496,-7.2496,-7.2496,-7.2899,-7.378,-7.2936,-7.2936,-7.378,-7.2936,-7.2496,-7.2496,-7.2496,-7.2496]}]]